[[{"header":{"parameterUnit":"m.s-1","parameterCategory":1,"la1":31.0,"la2":29.5877,"lo1":-88.7671,"lo2":-86.6584,"dy":0.0162,"dx":0.0185,"nx":115,"ny":88,"refTime":"2024-07-19T00:00:00:Z","depth":0,"parameterNumber":2,"parameterNumberName":"U-component_of_WINDS"},"data":[0.0,0.0,0.0,0.0,0.0,0.0,0.0,0.0,0.0,0.0,0.0,0.0,0.0,0.0,0.0,0.0,0.0,0.0,0.0,0.0,0.0,0.0,0.0,0.0,0.0,0.0,0.0,0.0,0.0,0.0,0.0,0.0,0.0,0.0,0.0,0.0,0.0,0.0,0.0,0.0,0.0,0.0,0.0,0.0,0.0,0.0,0.0,0.0,0.0,0.0,0.0,0.0,0.0,0.0,0.0,0.0,0.0,0.0,0.0,0.0,0.0,0.0,0.0,0.0,0.0,0.0,0.0,0.0,0.0,0.0,0.0,0.0,0.0,0.0,0.0,0.0,0.0,0.0,0.0,0.0,0.0,0.0,0.0,0.0,0.0,0.0,0.0,0.0,0.0,0.0,0.0,0.0,0.0,0.0,0.0,0.0,0.0,0.0,0.0,0.0,0.0,0.0,0.0,0.0,0.0,0.0,0.0,0.0,0.0,0.0,0.0,0.0,0.0,0.0,0.0,0.0,0.0,0.0,0.0,0.0,0.0,0.0,0.0,0.0,0.0,0.0,0.0,0.0,0.0,0.0,0.0,0.0,0.0,0.0,0.0,0.0,0.0,0.0,0.0,0.0,0.0,0.0,0.0,0.0,0.0,0.0,0.0,0.0,0.0,0.0,0.0,0.0,0.0,0.0,0.0,0.0,0.0,0.0,0.0,0.0,0.0,0.0,0.0,0.0,0.0,0.0,0.0,0.0,0.0,0.0,0.0,0.0,0.0,0.0,0.0,0.0,0.0,0.0,0.0,0.0,0.0,0.0,0.0,0.0,0.0,0.0,0.0,0.0,0.0,0.0,0.0,0.0,0.0,0.0,0.0,0.0,0.0,0.0,0.0,0.0,0.0,0.0,0.0,0.0,0.0,0.0,0.0,0.0,0.0,0.0,0.0,0.0,0.0,0.0,0.0,0.0,0.0,0.0,0.0,0.0,0.0,0.0,0.0,0.0,0.0,0.0,0.0,0.0,0.0,0.0,0.0,0.0,0.0,0.0,0.0,0.0,0.0,0.0,0.0,0.0,0.0,0.0,0.0,0.0,0.0,0.0,0.0,0.0,0.0,0.0,0.0,0.0,0.0,0.0,0.0,0.0,0.0,0.0,0.0,0.0,0.0,0.0,0.0,0.0,0.0,0.0,0.0,0.0,0.0,0.0,0.0,0.0,0.0,0.0,0.0,0.0,0.0,0.0,0.0,0.0,0.0,0.0,0.0,0.0,0.0,0.0,0.0,0.0,0.0,0.0,0.0,0.0,0.0,0.0,0.0,0.0,0.0,0.0,0.0,0.0,0.0,0.0,0.0,0.0,0.0,0.0,0.0,0.0,0.0,0.0,0.0,0.0,0.0,0.0,0.0,0.0,0.0,0.0,0.0,0.0,0.0,0.0,0.0,0.0,0.0,0.0,0.0,0.0,0.0,0.0,0.0,0.0,0.0,0.0,0.0,0.0,0.0,0.0,0.0,0.0,0.0,0.0,0.0,0.0,0.0,0.0,0.0,0.0,0.0,0.0,0.0,0.0,0.0,0.0,0.0,0.0,0.0,0.0,0.0,0.0,0.0,0.0,0.0,0.0,0.0,0.0,0.0,0.0,0.0,0.0,0.0,0.0,0.0,0.0,0.0,0.0,0.0,0.0,0.0,0.0,0.0,0.0,0.0,0.0,0.0,0.0,0.0,0.0,0.0,0.0,0.0,0.0,0.0,0.0,0.0,0.0,0.0,0.0,0.0,0.0,0.0,0.0,0.0,0.0,0.0,0.0,0.0,0.0,0.0,0.0,0.0,0.0,0.0,0.0,0.0,0.0,0.0,0.0,0.0,0.0,0.0,0.0,0.0,0.0,0.0,0.0,0.0,0.0,0.0,0.0,0.0,0.0,0.0,0.0,0.0,0.0,0.0,0.0,0.0,0.0,0.0,0.0,0.0,0.0,0.0,0.0,0.0,0.0,0.0,0.0,0.0,0.0,0.0,0.0,0.0,0.0,0.0,0.0,0.0,0.0,0.0,0.0,0.0,0.0,0.0,0.0,0.0,0.0,0.0,0.0,0.0,0.0,0.0,0.0,0.0,0.0,0.0,0.0,0.0,0.0,0.0,0.0,0.0,0.0,0.0,0.0,0.0,0.0,0.0,0.0,0.0,0.0,0.0,0.0,0.0,0.0,0.0,0.0,0.0,0.0,0.0,0.0,0.0,0.0,0.0,0.0,0.0,0.0,0.0,0.0,0.0,0.0,0.0,0.0,0.0,0.0,0.0,0.0,0.0,0.0,0.0,0.0,0.0,0.0,0.0,0.0,0.0,0.0,0.0,0.0,0.0,0.0,0.0,0.0,0.0,0.0,0.0,0.0,0.0,0.0,0.0,0.0,0.0,0.0,0.0,0.0,0.0,0.0,0.0,0.0,0.0,0.0,0.0,0.0,0.0,0.0,0.0,0.0,0.0,0.0,0.0,0.0,0.0,0.0,0.0,0.0,0.0,0.0,0.0,0.0,0.0,0.0,0.0,0.0,0.0,0.0,0.0,0.0,0.0,0.0,0.0,0.0,0.0,0.0,0.0,0.0,0.0,0.0,0.0,0.0,0.0,0.0,0.0,0.0,0.0,0.0,0.0,0.0,0.0,0.0,0.0,0.0,0.0,0.0,0.0,0.0,0.0,0.0,0.0,0.0,0.0,0.0,0.0,0.0,0.0,0.0,0.0,0.0,0.0,0.0,0.0,0.0,0.0,0.0,0.0,0.0,0.0,0.0,0.0,0.0,0.0,0.0,0.0,0.0,0.0,0.0,0.0,0.0,0.0,0.0,0.0,0.0,0.0,0.0,0.0,0.0,0.0,0.0,0.0,0.0,0.0,0.0,0.0,0.0,0.0,0.0,0.0,0.0,0.0,0.0,0.0,0.0,0.0,0.0,0.0,0.0,0.0,0.0,0.0,0.0,0.0,0.0,0.0,0.0,0.0,0.0,0.0,0.0,0.0,0.0,0.0,0.0,0.0,0.0,0.0,0.0,0.0,0.0,0.0,0.0,0.0,0.0,0.0,0.0,0.0,0.0,0.0,0.0,0.0,0.0,0.0,0.0,0.0,0.0,0.0,0.0,0.0,0.0,0.0,0.0,0.0,0.0,0.0,0.0,0.0,0.0,0.0,0.0,0.0,0.0,0.0,0.0,0.0,0.0,0.0,0.0,0.0,0.0,0.0,0.0,0.0,0.0,0.0,0.0,0.0,0.0,0.0,0.0,0.0,0.0,0.0,0.0,0.0,0.0,0.0,0.0,0.0,0.0,0.0,0.0,0.0,0.0,0.0,0.0,0.0,0.0,0.0,0.0,0.0,0.0,0.0,0.0,0.0,0.0,0.0,0.0,0.0,0.0,0.0,0.0,0.0,0.0,0.0,0.0,0.0,0.0,0.0,0.0,0.0,0.0,0.0,0.0,0.0,0.0,0.0,0.0,0.0,0.0,0.0,0.0,0.0,0.0,0.0,0.0,0.0,0.0,0.0,0.0,0.0,0.0,0.0,0.0,0.0,0.0,0.0,0.0,0.0,0.0,0.0,0.0,0.0,0.0,0.0,0.0,0.0,0.0,0.0,0.0,0.0,0.0,0.0,0.0,0.0,0.0,0.0,0.0,0.0,0.0,0.0,0.0,0.0,0.0,0.0,0.0,0.0,0.0,0.0,0.0,0.0,0.0,0.0,0.0,0.0,0.0,0.0,0.0,0.0,0.0,0.0,0.0,0.0,0.0,0.0,0.0,0.0,0.0,0.0,0.0,0.0,0.0,0.0,0.0,0.0,0.0,0.0,0.0,0.0,0.0,0.0,0.0,0.0,0.0,0.0,0.0,0.0,0.0,0.0,0.0,0.0,0.0,0.0,0.0,0.0,0.0,0.0,0.0,0.0,0.0,0.0,0.0,0.0,0.0,0.0,0.0,0.0,0.0,0.0,0.0,0.0,0.0,0.0,0.0,0.0,0.0,0.0,0.0,0.0,0.0,0.0,0.0,0.0,0.0,0.0,0.0,0.0,0.0,0.0,0.0,0.0,0.0,0.0,0.0,0.0,0.0,0.0,0.0,0.0,0.0,0.0,0.0,0.0,0.0,0.0,0.0,0.0,0.0,0.0,0.0,0.0,0.0,0.0,0.0,0.0,0.0,0.0,0.0,0.0,0.0,0.0,0.0,0.0,0.0,0.0,0.0,0.0,0.0,0.0,0.0,0.0,0.0,0.0,0.0,0.0,0.0,0.0,0.0,-1.5209,0.0,0.0,0.0,0.0,0.0,0.0,0.0,0.0,0.0,0.0,0.0,0.0,0.0,0.0,0.0,0.0,0.0,0.0,0.0,0.0,0.0,0.0,0.0,0.0,0.0,0.0,0.0,0.0,0.0,0.0,0.0,0.0,0.0,0.0,0.0,0.0,0.0,0.0,0.0,0.0,0.0,0.0,0.0,0.0,0.0,0.0,0.0,0.0,0.0,0.0,0.0,0.0,0.0,0.0,0.0,0.0,0.0,0.0,0.0,0.0,0.0,0.0,0.0,0.0,0.0,0.0,0.0,0.0,0.0,0.0,0.0,0.0,0.0,0.0,0.0,0.0,0.0,0.0,0.0,0.0,0.0,0.0,0.0,0.0,0.0,0.0,0.0,0.0,0.0,0.0,0.0,0.0,0.0,0.0,0.0,0.0,0.0,0.0,0.0,0.0,0.0,0.0,0.0,0.0,0.0,0.0,0.0,0.0,0.0,0.0,-1.6319,-1.674,-1.635,-1.6117,-1.6079,0.0,0.0,0.0,0.0,0.0,0.0,0.0,0.0,0.0,0.0,0.0,0.0,0.0,0.0,0.0,0.0,0.0,0.0,0.0,0.0,0.0,0.0,0.0,0.0,0.0,0.0,0.0,0.0,0.0,0.0,0.0,0.0,0.0,0.0,0.0,0.0,0.0,0.0,0.0,0.0,0.0,0.0,0.0,0.0,0.0,0.0,0.0,0.0,0.0,0.0,0.0,0.0,0.0,0.0,0.0,0.0,0.0,0.0,0.0,0.0,0.0,0.0,0.0,0.0,0.0,0.0,0.0,0.0,0.0,0.0,0.0,0.0,0.0,0.0,0.0,0.0,0.0,0.0,0.0,0.0,0.0,0.0,0.0,0.0,0.0,0.0,0.0,0.0,0.0,0.0,0.0,0.0,0.0,0.0,0.0,0.0,0.0,0.0,0.0,0.0,0.0,0.0,0.0,0.0,0.0,0.0,0.0,0.0,0.0,0.0,0.0,0.0,-1.7305,-1.6881,-1.6655,0.0,0.0,0.0,0.0,0.0,0.0,0.0,0.0,0.0,0.0,0.0,0.0,0.0,0.0,0.0,0.0,0.0,0.0,0.0,0.0,0.0,0.0,0.0,0.0,0.0,0.0,0.0,0.0,0.0,0.0,0.0,0.0,0.0,0.0,0.0,0.0,0.0,0.0,0.0,0.0,0.0,0.0,0.0,0.0,0.0,0.0,0.0,0.0,0.0,0.0,0.0,0.0,0.0,0.0,0.0,0.0,0.0,0.0,0.0,0.0,0.0,0.0,0.0,0.0,0.0,0.0,0.0,0.0,0.0,0.0,0.0,0.0,0.0,0.0,0.0,0.0,0.0,0.0,0.0,0.0,0.0,0.0,0.0,0.0,0.0,0.0,0.0,0.0,0.0,0.0,0.0,0.0,0.0,0.0,0.0,0.0,0.0,0.0,0.0,0.0,0.0,0.0,0.0,0.0,0.0,0.0,0.0,0.0,0.0,0.0,-1.7835,-1.7902,-1.7835,0.0,-1.6669,0.0,0.0,0.0,0.0,0.0,0.0,0.0,0.0,0.0,0.0,0.0,0.0,0.0,0.0,0.0,0.0,0.0,0.0,0.0,0.0,0.0,0.0,0.0,0.0,0.0,0.0,0.0,0.0,0.0,0.0,0.0,0.0,0.0,0.0,0.0,0.0,0.0,0.0,0.0,0.0,0.0,0.0,0.0,0.0,0.0,0.0,0.0,0.0,0.0,0.0,0.0,0.0,0.0,0.0,0.0,0.0,0.0,0.0,0.0,0.0,0.0,0.0,0.0,0.0,0.0,0.0,0.0,0.0,0.0,0.0,0.0,0.0,0.0,0.0,0.0,0.0,0.0,0.0,0.0,0.0,0.0,0.0,0.0,0.0,0.0,0.0,0.0,0.0,0.0,0.0,0.0,0.0,0.0,0.0,0.0,0.0,0.0,0.0,0.0,0.0,0.0,0.0,0.0,0.0,0.0,0.0,0.0,0.0,0.0,0.0,0.0,-1.9359,-1.8426,-1.7526,0.0,0.0,0.0,0.0,0.0,0.0,0.0,0.0,0.0,0.0,0.0,0.0,0.0,0.0,0.0,0.0,0.0,0.0,0.0,0.0,0.0,0.0,0.0,0.0,0.0,0.0,0.0,0.0,0.0,0.0,0.0,0.0,0.0,0.0,0.0,0.0,0.0,0.0,0.0,0.0,0.0,0.0,0.0,0.0,0.0,0.0,0.0,0.0,0.0,0.0,0.0,0.0,0.0,0.0,0.0,0.0,0.0,0.0,0.0,0.0,0.0,0.0,0.0,0.0,0.0,0.0,0.0,0.0,0.0,0.0,0.0,0.0,0.0,0.0,0.0,0.0,0.0,0.0,0.0,0.0,0.0,0.0,0.0,0.0,0.0,0.0,0.0,0.0,0.0,0.0,0.0,0.0,0.0,0.0,0.0,0.0,0.0,0.0,0.0,0.0,0.0,0.0,0.0,0.0,0.0,0.0,0.0,0.0,0.0,0.0,-1.8869,0.0,-2.0269,-1.8759,-1.7628,-1.7032,0.0,0.0,0.0,0.0,0.0,0.0,0.0,0.0,0.0,0.0,0.0,0.0,0.0,0.0,0.0,0.0,0.0,0.0,0.0,0.0,0.0,0.0,0.0,0.0,0.0,0.0,0.0,0.0,0.0,0.0,0.0,0.0,0.0,0.0,0.0,0.0,0.0,0.0,0.0,0.0,0.0,0.0,0.0,0.0,0.0,0.0,0.0,0.0,0.0,0.0,0.0,0.0,0.0,0.0,0.0,0.0,0.0,0.0,0.0,0.0,0.0,0.0,0.0,0.0,0.0,0.0,0.0,0.0,0.0,0.0,0.0,0.0,0.0,0.0,0.0,0.0,0.0,0.0,0.0,0.0,0.0,0.0,0.0,0.0,0.0,0.0,0.0,0.0,0.0,0.0,0.0,0.0,0.0,0.0,0.0,0.0,0.0,0.0,0.0,0.0,0.0,0.0,0.0,0.0,0.0,0.0,0.0,0.0,0.0,-1.9394,-2.0286,-2.0371,-1.8765,-1.7873,0.0,0.0,0.0,0.0,0.0,0.0,0.0,0.0,0.0,0.0,0.0,0.0,0.0,0.0,0.0,0.0,0.0,0.0,0.0,0.0,0.0,0.0,0.0,0.0,0.0,0.0,0.0,0.0,0.0,0.0,0.0,0.0,0.0,0.0,0.0,0.0,0.0,0.0,0.0,0.0,0.0,0.0,0.0,0.0,0.0,0.0,0.0,0.0,0.0,0.0,0.0,0.0,0.0,0.0,0.0,0.0,0.0,0.0,0.0,0.0,0.0,0.0,0.0,0.0,0.0,0.0,0.0,0.0,0.0,0.0,0.0,0.0,0.0,0.0,0.0,0.0,0.0,0.0,0.0,0.0,0.0,0.0,0.0,0.0,0.0,0.0,0.0,0.0,0.0,0.0,0.0,0.0,0.0,0.0,0.0,0.0,0.0,0.0,0.0,0.0,0.0,0.0,0.0,0.0,0.0,0.0,0.0,0.0,0.0,-1.8599,-1.9699,-2.0318,-2.0302,-1.9256,-1.8399,0.0,0.0,0.0,0.0,0.0,0.0,0.0,0.0,0.0,0.0,0.0,0.0,0.0,0.0,0.0,0.0,0.0,0.0,0.0,0.0,0.0,0.0,0.0,0.0,0.0,0.0,0.0,0.0,0.0,0.0,0.0,0.0,0.0,0.0,0.0,0.0,0.0,0.0,0.0,0.0,0.0,0.0,0.0,0.0,0.0,0.0,0.0,0.0,0.0,0.0,0.0,0.0,0.0,0.0,0.0,0.0,0.0,0.0,0.0,0.0,0.0,0.0,0.0,0.0,0.0,0.0,0.0,0.0,0.0,0.0,0.0,0.0,0.0,0.0,0.0,0.0,0.0,0.0,0.0,0.0,0.0,0.0,0.0,0.0,0.0,0.0,0.0,0.0,0.0,0.0,0.0,0.0,0.0,0.0,0.0,0.0,0.0,0.0,0.0,0.0,0.0,0.0,0.0,0.0,0.0,0.0,0.0,0.0,0.0,-1.9387,0.0,-2.0294,0.0,-1.9491,-1.8653,0.0,0.0,0.0,0.0,0.0,0.0,0.0,0.0,0.0,0.0,0.0,0.0,0.0,0.0,0.0,0.0,0.0,0.0,0.0,0.0,0.0,0.0,0.0,0.0,0.0,0.0,0.0,0.0,0.0,0.0,0.0,0.0,0.0,0.0,0.0,0.0,0.0,0.0,0.0,0.0,0.0,0.0,0.0,0.0,0.0,0.0,0.0,0.0,0.0,0.0,0.0,0.0,0.0,0.0,0.0,0.0,0.0,0.0,0.0,0.0,0.0,0.0,0.0,0.0,0.0,0.0,0.0,0.0,0.0,0.0,0.0,0.0,0.0,0.0,0.0,0.0,0.0,0.0,0.0,0.0,0.0,0.0,0.0,0.0,0.0,0.0,0.0,0.0,0.0,0.0,0.0,0.0,0.0,0.0,0.0,0.0,0.0,0.0,0.0,0.0,0.0,0.0,0.0,0.0,0.0,0.0,0.0,0.0,-1.86,-2.0192,-2.0292,-2.0304,-2.0265,-1.9496,-1.8661,0.0,0.0,0.0,0.0,0.0,0.0,0.0,0.0,0.0,0.0,0.0,0.0,0.0,0.0,0.0,0.0,0.0,0.0,0.0,0.0,0.0,0.0,0.0,0.0,0.0,0.0,0.0,0.0,0.0,0.0,0.0,0.0,0.0,0.0,0.0,0.0,0.0,0.0,0.0,0.0,0.0,0.0,0.0,0.0,0.0,0.0,0.0,0.0,0.0,0.0,0.0,0.0,0.0,0.0,0.0,0.0,0.0,0.0,0.0,0.0,0.0,0.0,0.0,0.0,0.0,0.0,0.0,0.0,0.0,0.0,0.0,0.0,0.0,0.0,0.0,0.0,0.0,0.0,0.0,0.0,0.0,0.0,0.0,0.0,0.0,0.0,0.0,0.0,0.0,0.0,0.0,0.0,0.0,0.0,0.0,0.0,0.0,0.0,0.0,0.0,0.0,0.0,0.0,0.0,0.0,0.0,0.0,0.0,0.0,-2.0288,-2.0296,-2.03,-2.03,-2.0049,-1.9235,0.0,0.0,0.0,0.0,0.0,0.0,0.0,0.0,0.0,0.0,0.0,0.0,0.0,0.0,0.0,0.0,0.0,0.0,0.0,0.0,0.0,0.0,0.0,0.0,0.0,0.0,0.0,0.0,0.0,0.0,0.0,0.0,0.0,0.0,0.0,0.0,0.0,0.0,0.0,0.0,0.0,0.0,0.0,0.0,0.0,0.0,0.0,0.0,0.0,0.0,0.0,0.0,0.0,0.0,0.0,0.0,0.0,0.0,0.0,0.0,0.0,0.0,0.0,0.0,0.0,0.0,0.0,0.0,0.0,0.0,0.0,0.0,0.0,0.0,0.0,0.0,0.0,0.0,0.0,0.0,0.0,0.0,0.0,0.0,0.0,0.0,0.0,0.0,0.0,0.0,0.0,0.0,0.0,0.0,0.0,0.0,0.0,0.0,0.0,0.0,0.0,0.0,0.0,0.0,0.0,0.0,0.0,0.0,0.0,-2.0788,-2.1062,-2.1216,-2.1235,-2.092,-2.0119,-1.8787,0.0,0.0,0.0,0.0,0.0,0.0,0.0,0.0,0.0,0.0,0.0,0.0,0.0,0.0,0.0,0.0,0.0,0.0,0.0,0.0,0.0,0.0,0.0,0.0,0.0,0.0,0.0,0.0,0.0,0.0,0.0,0.0,0.0,0.0,0.0,0.0,0.0,0.0,0.0,0.0,0.0,0.0,0.0,0.0,0.0,0.0,0.0,0.0,0.0,0.0,0.0,0.0,0.0,0.0,0.0,0.0,0.0,0.0,0.0,0.0,0.0,0.0,0.0,0.0,0.0,0.0,0.0,0.0,0.0,0.0,0.0,0.0,0.0,0.0,0.0,0.0,0.0,0.0,0.0,0.0,0.0,0.0,0.0,0.0,0.0,0.0,0.0,0.0,0.0,0.0,0.0,0.0,0.0,0.0,0.0,0.0,0.0,0.0,0.0,0.0,0.0,0.0,0.0,0.0,0.0,0.0,0.0,0.0,-2.1658,-2.2504,-2.2893,-2.2759,-2.1927,-2.1119,0.0,0.0,0.0,0.0,0.0,0.0,0.0,0.0,0.0,0.0,0.0,0.0,0.0,0.0,0.0,0.0,0.0,0.0,0.0,0.0,0.0,0.0,0.0,0.0,0.0,0.0,0.0,0.0,0.0,0.0,0.0,0.0,0.0,0.0,0.0,0.0,0.0,0.0,0.0,0.0,0.0,0.0,0.0,0.0,0.0,0.0,0.0,0.0,0.0,0.0,0.0,0.0,0.0,0.0,0.0,0.0,0.0,0.0,0.0,0.0,0.0,0.0,0.0,0.0,0.0,0.0,0.0,0.0,0.0,0.0,0.0,0.0,0.0,0.0,0.0,0.0,0.0,0.0,0.0,0.0,0.0,0.0,0.0,0.0,0.0,0.0,0.0,0.0,0.0,0.0,0.0,0.0,0.0,0.0,0.0,0.0,0.0,0.0,0.0,0.0,0.0,0.0,0.0,0.0,0.0,0.0,0.0,0.0,0.0,-2.3413,-2.4235,-2.4058,-2.2855,-2.1947,-2.1119,0.0,0.0,0.0,0.0,0.0,0.0,0.0,0.0,0.0,0.0,0.0,0.0,0.0,0.0,0.0,0.0,0.0,0.0,0.0,0.0,0.0,0.0,0.0,0.0,0.0,0.0,0.0,0.0,0.0,0.0,0.0,0.0,0.0,0.0,0.0,0.0,0.0,0.0,0.0,0.0,0.0,0.0,0.0,0.0,0.0,0.0,0.0,0.0,0.0,0.0,0.0,0.0,0.0,0.0,0.0,0.0,0.0,0.0,0.0,0.0,0.0,0.0,0.0,0.0,0.0,0.0,0.0,0.0,0.0,0.0,0.0,0.0,0.0,0.0,0.0,0.0,0.0,0.0,0.0,0.0,0.0,0.0,0.0,0.0,0.0,0.0,0.0,0.0,0.0,0.0,0.0,0.0,0.0,0.0,0.0,0.0,0.0,0.0,0.0,0.0,0.0,0.0,0.0,0.0,0.0,0.0,0.0,0.0,-2.322,-2.4091,-2.4865,-2.4827,-2.387,-2.3043,-2.2216,0.0,0.0,0.0,0.0,0.0,0.0,0.0,0.0,0.0,0.0,0.0,0.0,0.0,0.0,0.0,0.0,0.0,0.0,0.0,0.0,0.0,0.0,0.0,0.0,0.0,0.0,0.0,0.0,0.0,0.0,0.0,0.0,0.0,0.0,0.0,0.0,0.0,0.0,0.0,0.0,0.0,0.0,0.0,0.0,0.0,0.0,0.0,0.0,0.0,0.0,0.0,0.0,0.0,0.0,0.0,0.0,0.0,0.0,0.0,0.0,0.0,0.0,0.0,0.0,0.0,0.0,0.0,0.0,0.0,0.0,0.0,0.0,0.0,0.0,0.0,0.0,0.0,0.0,0.0,0.0,0.0,0.0,0.0,0.0,0.0,0.0,0.0,0.0,0.0,0.0,0.0,0.0,0.0,0.0,0.0,0.0,0.0,0.0,0.0,0.0,0.0,0.0,0.0,0.0,0.0,0.0,0.0,0.0,-2.3278,-2.4221,-2.4928,-2.5308,-2.5288,-2.4529,-2.3687,0.0,0.0,0.0,0.0,0.0,0.0,0.0,0.0,0.0,0.0,0.0,0.0,0.0,0.0,0.0,0.0,0.0,0.0,0.0,0.0,0.0,0.0,0.0,0.0,0.0,0.0,0.0,0.0,0.0,0.0,0.0,0.0,0.0,0.0,0.0,0.0,0.0,0.0,0.0,0.0,0.0,0.0,0.0,0.0,0.0,0.0,0.0,0.0,0.0,0.0,0.0,0.0,0.0,0.0,0.0,0.0,0.0,0.0,0.0,0.0,0.0,0.0,0.0,0.0,0.0,0.0,0.0,0.0,0.0,0.0,0.0,0.0,0.0,0.0,0.0,0.0,0.0,0.0,0.0,0.0,0.0,0.0,0.0,0.0,0.0,0.0,0.0,0.0,0.0,0.0,0.0,0.0,0.0,0.0,0.0,0.0,0.0,0.0,0.0,0.0,0.0,0.0,0.0,0.0,0.0,0.0,0.0,0.0,-2.3524,-2.5,-2.5212,-2.5308,-2.5308,-2.4529,-2.3701,0.0,0.0,0.0,0.0,0.0,0.0,0.0,0.0,0.0,0.0,0.0,0.0,0.0,0.0,0.0,0.0,0.0,0.0,0.0,0.0,0.0,0.0,0.0,0.0,0.0,0.0,0.0,0.0,0.0,0.0,0.0,0.0,0.0,0.0,0.0,0.0,0.0,0.0,0.0,0.0,0.0,0.0,0.0,0.0,0.0,0.0,0.0,0.0,-1.7607,0.0,0.0,0.0,0.0,0.0,0.0,0.0,0.0,0.0,0.0,0.0,0.0,0.0,0.0,0.0,0.0,0.0,0.0,0.0,0.0,0.0,0.0,0.0,0.0,0.0,0.0,0.0,0.0,0.0,0.0,0.0,0.0,0.0,0.0,0.0,0.0,0.0,0.0,0.0,0.0,0.0,0.0,0.0,0.0,0.0,0.0,0.0,0.0,0.0,0.0,0.0,0.0,0.0,0.0,0.0,0.0,0.0,0.0,0.0,-2.362,-2.5231,-2.5308,-2.5308,-2.5288,-2.4885,-2.4082,0.0,0.0,0.0,0.0,0.0,0.0,0.0,0.0,0.0,0.0,0.0,0.0,0.0,0.0,0.0,0.0,0.0,0.0,0.0,0.0,0.0,0.0,0.0,0.0,0.0,0.0,0.0,0.0,0.0,0.0,0.0,0.0,0.0,0.0,0.0,0.0,0.0,0.0,0.0,0.0,0.0,0.0,0.0,0.0,0.0,0.0,0.0,0.0,0.0,0.0,0.0,0.0,0.0,0.0,0.0,0.0,0.0,0.0,0.0,0.0,0.0,0.0,0.0,0.0,0.0,0.0,0.0,0.0,0.0,0.0,0.0,0.0,0.0,0.0,0.0,0.0,0.0,0.0,0.0,0.0,0.0,0.0,0.0,0.0,0.0,0.0,0.0,0.0,0.0,0.0,0.0,0.0,0.0,0.0,0.0,0.0,0.0,0.0,0.0,0.0,0.0,0.0,0.0,0.0,0.0,0.0,0.0,-2.2797,-2.3601,-2.5212,-2.5308,-2.5308,-2.5308,-2.5192,-2.4385,-2.2855,0.0,0.0,0.0,0.0,0.0,0.0,0.0,0.0,0.0,0.0,0.0,0.0,0.0,0.0,0.0,0.0,0.0,0.0,0.0,0.0,0.0,0.0,0.0,0.0,0.0,0.0,0.0,0.0,0.0,0.0,0.0,0.0,0.0,0.0,0.0,0.0,0.0,0.0,-1.5334,-1.6204,0.0,0.0,0.0,0.0,0.0,0.0,0.0,0.0,-2.0279,0.0,0.0,0.0,0.0,0.0,0.0,0.0,0.0,0.0,0.0,0.0,0.0,0.0,0.0,0.0,0.0,0.0,0.0,0.0,0.0,0.0,0.0,0.0,0.0,0.0,0.0,0.0,0.0,0.0,0.0,0.0,0.0,0.0,0.0,0.0,0.0,0.0,0.0,0.0,0.0,0.0,0.0,0.0,0.0,0.0,0.0,0.0,0.0,0.0,0.0,0.0,0.0,0.0,0.0,0.0,0.0,-2.2759,-2.2797,-2.362,-2.525,-2.5308,-2.5308,-2.5288,-2.4639,-2.3817,-2.2797,0.0,0.0,0.0,0.0,0.0,0.0,0.0,0.0,0.0,0.0,0.0,0.0,0.0,0.0,0.0,0.0,0.0,0.0,0.0,0.0,0.0,0.0,0.0,0.0,0.0,0.0,0.0,0.0,0.0,0.0,0.0,0.0,0.0,0.0,0.0,0.0,0.0,0.0,0.0,-1.7855,-1.8997,0.0,0.0,0.0,0.0,0.0,0.0,0.0,0.0,-2.0789,0.0,0.0,0.0,0.0,0.0,0.0,0.0,0.0,0.0,0.0,0.0,0.0,0.0,0.0,0.0,0.0,0.0,0.0,0.0,0.0,0.0,0.0,0.0,0.0,0.0,0.0,0.0,0.0,0.0,0.0,0.0,0.0,0.0,0.0,0.0,0.0,0.0,0.0,0.0,0.0,0.0,0.0,0.0,0.0,0.0,0.0,0.0,0.0,0.0,0.0,0.0,0.0,0.0,0.0,0.0,-2.2605,-2.2797,-2.362,-2.5231,-2.5308,-2.5308,-2.5288,-2.4529,-2.3701,0.0,0.0,0.0,0.0,0.0,0.0,0.0,0.0,0.0,0.0,0.0,0.0,0.0,0.0,0.0,0.0,0.0,0.0,0.0,0.0,0.0,0.0,0.0,0.0,0.0,0.0,0.0,0.0,0.0,0.0,0.0,0.0,0.0,0.0,0.0,0.0,0.0,0.0,0.0,0.0,-1.8617,-1.9853,-2.1064,0.0,0.0,0.0,0.0,0.0,0.0,-2.191,-2.1643,0.0,0.0,0.0,0.0,0.0,0.0,0.0,0.0,0.0,0.0,0.0,0.0,0.0,0.0,0.0,0.0,0.0,0.0,0.0,0.0,0.0,0.0,0.0,0.0,0.0,0.0,0.0,0.0,0.0,0.0,0.0,0.0,0.0,0.0,0.0,0.0,0.0,0.0,0.0,0.0,0.0,0.0,0.0,0.0,0.0,0.0,0.0,0.0,0.0,0.0,0.0,0.0,0.0,0.0,0.0,-2.2663,-2.2797,-2.362,-2.5212,-2.5308,-2.5308,-2.5288,-2.4351,-2.3509,0.0,0.0,0.0,0.0,0.0,0.0,0.0,0.0,0.0,0.0,0.0,0.0,0.0,0.0,0.0,0.0,0.0,0.0,0.0,0.0,0.0,0.0,0.0,0.0,0.0,0.0,0.0,0.0,0.0,0.0,0.0,0.0,0.0,0.0,0.0,0.0,0.0,0.0,0.0,0.0,0.0,-2.059,-2.1546,-2.2278,0.0,0.0,0.0,0.0,-2.2777,-2.2739,0.0,0.0,0.0,0.0,0.0,0.0,0.0,0.0,0.0,0.0,0.0,0.0,0.0,0.0,0.0,0.0,0.0,0.0,0.0,0.0,0.0,0.0,0.0,0.0,0.0,0.0,0.0,0.0,0.0,0.0,0.0,0.0,0.0,0.0,0.0,0.0,0.0,0.0,0.0,0.0,0.0,0.0,0.0,0.0,0.0,0.0,0.0,0.0,0.0,0.0,0.0,0.0,0.0,0.0,0.0,0.0,-2.2643,-2.2797,-2.3596,-2.5192,-2.5308,-2.5308,-2.5269,-2.3774,-2.2893,0.0,0.0,0.0,0.0,0.0,0.0,0.0,0.0,0.0,0.0,0.0,0.0,0.0,0.0,0.0,0.0,0.0,0.0,0.0,0.0,0.0,0.0,0.0,0.0,0.0,0.0,0.0,0.0,0.0,0.0,0.0,0.0,0.0,0.0,0.0,0.0,0.0,0.0,0.0,0.0,0.0,-2.1538,-2.3112,-2.3421,-2.373,0.0,0.0,-2.4441,-2.3663,-2.3556,0.0,0.0,0.0,0.0,0.0,0.0,0.0,0.0,0.0,0.0,0.0,0.0,0.0,0.0,0.0,0.0,0.0,0.0,0.0,0.0,0.0,0.0,0.0,0.0,0.0,0.0,0.0,0.0,0.0,0.0,0.0,0.0,0.0,0.0,0.0,0.0,0.0,0.0,0.0,0.0,0.0,0.0,0.0,0.0,0.0,0.0,0.0,0.0,0.0,0.0,0.0,0.0,0.0,0.0,0.0,-1.9392,-2.2663,-2.2797,-2.362,-2.5231,-2.5308,-2.5308,-2.5288,-2.3678,-2.2797,0.0,0.0,0.0,0.0,0.0,0.0,0.0,0.0,0.0,0.0,0.0,0.0,0.0,0.0,0.0,0.0,0.0,0.0,0.0,0.0,0.0,0.0,0.0,0.0,0.0,0.0,0.0,0.0,0.0,0.0,0.0,0.0,0.0,0.0,0.0,0.0,0.0,0.0,0.0,0.0,0.0,0.0,-2.3328,-2.394,0.0,0.0,0.0,-2.4757,-2.4384,0.0,0.0,0.0,0.0,0.0,0.0,0.0,0.0,0.0,0.0,0.0,0.0,0.0,0.0,0.0,0.0,0.0,0.0,0.0,0.0,0.0,0.0,0.0,0.0,0.0,0.0,0.0,0.0,0.0,0.0,0.0,0.0,0.0,0.0,0.0,0.0,0.0,0.0,0.0,0.0,0.0,0.0,0.0,0.0,0.0,0.0,0.0,0.0,0.0,0.0,0.0,0.0,0.0,0.0,0.0,0.0,0.0,-2.2701,-2.2797,-2.362,-2.5231,-2.5308,-2.5308,-2.5269,-2.3678,0.0,0.0,0.0,0.0,0.0,0.0,0.0,0.0,0.0,0.0,0.0,0.0,0.0,0.0,0.0,0.0,0.0,0.0,0.0,0.0,0.0,0.0,0.0,0.0,0.0,0.0,0.0,-1.1886,0.0,0.0,0.0,0.0,0.0,0.0,0.0,0.0,0.0,0.0,0.0,0.0,0.0,0.0,-2.2821,-2.3835,-2.4575,-2.5102,0.0,0.0,-2.5069,-2.5069,-2.4904,-2.4535,0.0,0.0,0.0,0.0,0.0,0.0,0.0,0.0,0.0,0.0,0.0,0.0,0.0,0.0,0.0,0.0,0.0,0.0,0.0,0.0,0.0,0.0,0.0,0.0,0.0,0.0,0.0,0.0,0.0,0.0,0.0,0.0,0.0,0.0,0.0,0.0,0.0,0.0,0.0,0.0,0.0,0.0,0.0,0.0,0.0,0.0,0.0,0.0,0.0,0.0,0.0,0.0,0.0,0.0,0.0,-2.2682,-2.2797,-2.362,-2.5231,-2.5308,-2.5308,-2.5269,-2.3673,-2.2797,0.0,0.0,0.0,0.0,0.0,0.0,0.0,0.0,0.0,0.0,0.0,0.0,0.0,0.0,0.0,0.0,0.0,0.0,0.0,0.0,0.0,0.0,0.0,0.0,0.0,0.0,0.0,0.0,0.0,0.0,0.0,0.0,0.0,0.0,0.0,0.0,0.0,0.0,0.0,0.0,0.0,-2.3787,-2.5323,-2.5611,-2.5955,0.0,0.0,-2.5824,-2.5814,-2.5196,-2.4655,-2.4548,0.0,0.0,0.0,0.0,0.0,0.0,0.0,0.0,0.0,0.0,0.0,0.0,0.0,0.0,0.0,0.0,0.0,0.0,0.0,0.0,0.0,0.0,0.0,0.0,0.0,0.0,0.0,0.0,0.0,0.0,0.0,0.0,0.0,0.0,0.0,0.0,0.0,0.0,0.0,0.0,0.0,0.0,0.0,0.0,0.0,0.0,0.0,0.0,0.0,0.0,0.0,0.0,0.0,-2.0788,-2.2759,-2.3336,-2.4163,-2.5231,-2.5308,-2.5308,-2.5308,-2.3678,-2.2797,0.0,0.0,0.0,0.0,0.0,0.0,0.0,0.0,0.0,0.0,0.0,0.0,0.0,0.0,0.0,0.0,0.0,0.0,0.0,0.0,0.0,0.0,0.0,0.0,0.0,0.0,0.0,0.0,-1.443,-1.4704,-1.5493,0.0,0.0,0.0,0.0,0.0,0.0,0.0,0.0,0.0,0.0,-2.4319,-2.5421,-2.6042,0.0,0.0,-2.6684,-2.6525,-2.6516,-2.5818,-2.5233,-2.5216,-2.4503,0.0,0.0,0.0,0.0,0.0,0.0,0.0,0.0,0.0,0.0,0.0,0.0,0.0,0.0,0.0,0.0,0.0,0.0,0.0,0.0,0.0,0.0,0.0,0.0,0.0,0.0,0.0,0.0,0.0,0.0,0.0,0.0,0.0,0.0,0.0,0.0,0.0,0.0,0.0,0.0,0.0,0.0,0.0,0.0,0.0,0.0,0.0,0.0,0.0,0.0,0.0,0.0,-2.137,-2.2797,-2.3648,-2.449,-2.5269,-2.5308,-2.5308,-2.525,-2.3928,-2.3067,0.0,0.0,0.0,0.0,0.0,0.0,0.0,0.0,0.0,0.0,0.0,0.0,0.0,0.0,0.0,0.0,0.0,0.0,0.0,0.0,0.0,0.0,0.0,0.0,0.0,0.0,0.0,0.0,-1.5071,-1.5624,-1.6597,0.0,0.0,0.0,0.0,0.0,0.0,0.0,0.0,0.0,0.0,-2.5032,-2.6064,-2.674,-2.7233,-2.7475,-2.7338,-2.7219,-2.7219,-2.6485,-2.593,-2.593,0.0,0.0,0.0,0.0,0.0,0.0,0.0,0.0,0.0,0.0,0.0,0.0,0.0,0.0,0.0,0.0,0.0,0.0,0.0,0.0,0.0,0.0,0.0,0.0,0.0,0.0,0.0,0.0,0.0,0.0,-1.7719,0.0,0.0,0.0,0.0,0.0,0.0,0.0,0.0,0.0,0.0,0.0,0.0,0.0,0.0,0.0,0.0,0.0,0.0,0.0,0.0,0.0,0.0,-2.1927,-2.2816,-2.3701,-2.449,-2.5269,-2.5308,-2.5308,-2.5288,-2.4485,-2.3663,-2.2797,0.0,0.0,0.0,0.0,0.0,0.0,0.0,0.0,0.0,0.0,0.0,0.0,0.0,0.0,0.0,0.0,0.0,0.0,0.0,0.0,0.0,0.0,0.0,0.0,0.0,0.0,-1.4841,-1.5528,-1.6631,0.0,0.0,0.0,0.0,0.0,0.0,0.0,0.0,0.0,0.0,-2.4956,-2.6033,-2.7598,-2.7874,-2.8172,-2.8975,-2.8466,-2.7967,-2.7957,-2.7255,-2.6692,0.0,0.0,0.0,0.0,0.0,0.0,0.0,0.0,0.0,0.0,0.0,0.0,0.0,0.0,0.0,0.0,0.0,0.0,0.0,0.0,0.0,0.0,0.0,0.0,0.0,0.0,0.0,-1.9349,-1.8821,0.0,0.0,0.0,0.0,0.0,0.0,0.0,0.0,0.0,0.0,0.0,-2.1529,-2.1817,0.0,0.0,0.0,0.0,0.0,0.0,0.0,0.0,0.0,0.0,0.0,0.0,-2.2797,-2.3663,-2.4485,-2.5019,-2.5288,-2.5308,-2.5308,-2.5308,-2.4524,-2.3437,-2.1989,0.0,0.0,0.0,0.0,0.0,0.0,0.0,0.0,0.0,0.0,0.0,0.0,0.0,0.0,0.0,0.0,0.0,0.0,0.0,0.0,0.0,0.0,0.0,0.0,0.0,-1.5099,0.0,0.0,0.0,0.0,0.0,0.0,0.0,0.0,0.0,0.0,0.0,-2.4321,-2.5623,-2.6515,-2.7232,-2.7765,-2.8305,-2.8757,0.0,0.0,0.0,0.0,0.0,0.0,0.0,0.0,0.0,0.0,0.0,0.0,0.0,0.0,-2.498,-2.3648,-2.296,-2.2611,-2.2593,0.0,0.0,0.0,0.0,0.0,0.0,0.0,0.0,0.0,0.0,0.0,0.0,0.0,0.0,-2.1085,0.0,-2.0521,0.0,0.0,0.0,0.0,0.0,0.0,0.0,0.0,-2.3152,-2.3247,-2.3266,-2.3552,-2.3528,0.0,-2.324,-2.1932,0.0,0.0,0.0,0.0,0.0,0.0,0.0,0.0,-2.3528,-2.411,-2.4904,-2.5308,-2.5308,-2.5308,-2.5308,-2.5288,-2.4524,-2.3571,-2.2427,-2.1312,-2.0331,0.0,0.0,0.0,0.0,0.0,0.0,0.0,0.0,0.0,0.0,0.0,0.0,0.0,0.0,0.0,0.0,0.0,0.0,0.0,0.0,0.0,0.0,0.0,-1.6005,0.0,0.0,0.0,0.0,0.0,0.0,0.0,0.0,0.0,-2.4201,-2.4697,-2.5523,-2.6851,-2.7457,-2.7908,-2.8172,0.0,0.0,0.0,0.0,0.0,0.0,0.0,-2.8227,-2.8227,-2.7548,-2.6943,-2.6649,-2.6602,-2.6602,-2.6602,0.0,0.0,-2.486,-2.419,-2.3768,-2.3474,-2.3428,-2.3419,-2.3428,-2.3841,-2.418,0.0,0.0,0.0,0.0,0.0,0.0,0.0,0.0,-2.3288,-2.3261,0.0,-2.3098,0.0,0.0,0.0,0.0,0.0,0.0,0.0,0.0,-2.3921,-2.4224,-2.4297,-2.5029,-2.4966,-2.4245,-2.4264,-2.3802,-2.2932,-2.2913,0.0,0.0,0.0,0.0,0.0,0.0,-2.4105,-2.4182,-2.4909,-2.5308,-2.5308,-2.5308,-2.5308,-2.5288,-2.4543,-2.4129,-2.4028,-2.2427,-2.1158,-2.0369,-1.9469,0.0,0.0,0.0,0.0,0.0,0.0,0.0,0.0,0.0,0.0,0.0,0.0,0.0,0.0,0.0,0.0,0.0,0.0,0.0,0.0,-1.6814,0.0,0.0,0.0,0.0,0.0,0.0,0.0,0.0,0.0,0.0,-2.4468,-2.5752,-2.6969,-2.7787,0.0,0.0,0.0,0.0,-2.8987,-2.8987,-2.8987,-2.8987,-2.8987,-2.8987,-2.8987,-2.8987,0.0,0.0,-2.6833,-2.6675,-2.6741,-2.6693,-2.6767,-2.6429,-2.565,-2.5448,-2.5172,-2.4447,-2.4318,-2.4281,-2.4281,-2.441,-2.4372,-2.6326,0.0,0.0,0.0,0.0,-2.6464,-2.6707,-2.6673,-2.6662,-2.632,-2.5686,-2.5063,0.0,0.0,0.0,0.0,0.0,0.0,-2.5861,-2.6468,-2.6718,-2.6804,-2.6823,-2.7049,-2.7024,-2.6818,-2.6799,-2.637,-2.5524,-2.5505,-2.4582,-2.2816,0.0,0.0,0.0,0.0,-2.4375,-2.4947,-2.5192,-2.5308,-2.5308,-2.5308,-2.5308,-2.5308,-2.5077,-2.4678,-2.411,-2.3009,-2.2047,-2.1177,-1.9777,0.0,0.0,0.0,0.0,0.0,0.0,0.0,0.0,0.0,0.0,0.0,0.0,0.0,0.0,0.0,0.0,0.0,0.0,0.0,-1.6937,-1.8135,-1.9006,0.0,0.0,0.0,0.0,0.0,0.0,0.0,0.0,0.0,-2.7559,-2.8026,-2.8601,0.0,0.0,-2.9586,-2.9824,-2.9372,-2.8987,-2.8987,0.0,0.0,0.0,-2.8987,-2.8987,-2.8987,-2.8803,-2.8565,-2.8363,-2.8326,-2.8326,-2.829,-2.8326,-2.8051,-2.7255,-2.6631,-2.6209,-2.597,-2.5915,-2.5915,-2.5915,-2.5915,-2.5701,-2.9113,-2.8363,-2.821,-2.7861,-2.743,-2.7938,-2.8146,-2.8113,-2.8103,-2.7821,-2.7286,-2.6741,-2.6191,-2.5691,-2.5162,0.0,0.0,0.0,-2.7382,-2.7892,-2.7901,-2.789,-2.789,-2.789,-2.789,-2.789,-2.789,-2.7626,-2.7121,-2.7121,-2.6351,-2.4836,0.0,0.0,-2.4548,-2.4562,-2.4812,-2.5269,-2.5308,-2.5308,-2.5308,-2.5308,-2.5308,-2.5308,-2.5308,-2.5058,-2.4586,-2.3759,-2.2913,-2.2043,-2.072,-1.9469,0.0,0.0,0.0,0.0,0.0,0.0,0.0,0.0,0.0,0.0,0.0,-1.5436,-1.6747,0.0,0.0,0.0,-1.8019,-1.8339,-1.824,-1.9667,0.0,0.0,0.0,0.0,0.0,0.0,0.0,-2.6977,-2.7809,-2.8594,-2.9354,-3.0032,-3.0509,-3.065,-3.0687,-3.0558,-3.0246,0.0,-2.9372,-2.906,-2.8987,-2.8987,-2.8987,-2.8987,-2.8987,-2.8987,-2.8987,-2.8987,-2.8987,-2.8987,-2.8987,-2.8987,-2.8987,-2.8858,-2.8356,-2.7868,-2.7317,-2.673,-2.6602,-2.6602,-2.6602,-2.6602,-2.6416,-3.151,-3.0679,-2.9144,-2.8431,-2.8299,-2.8299,-2.8295,-2.8315,-2.8315,-2.8295,-2.8291,-2.8159,-2.8055,-2.7992,-2.8085,0.0,0.0,-2.8058,-2.8123,-2.8107,-2.8088,-2.8102,-2.8102,-2.8107,-2.8107,-2.8082,-2.8107,-2.8063,-2.7992,-2.7992,-2.7948,-2.7852,-2.6294,-2.55,-2.5495,-2.5442,-2.5404,-2.5404,-2.5341,-2.5308,-2.5308,-2.5308,-2.5308,-2.5308,-2.5308,-2.5308,-2.5269,-2.4529,-2.3725,-2.2913,-2.2023,-2.0773,-1.9226,0.0,0.0,0.0,0.0,0.0,0.0,0.0,0.0,0.0,0.0,0.0,0.0,0.0,0.0,0.0,-1.9173,0.0,-1.9984,-2.1384,0.0,0.0,0.0,-2.4957,-2.5623,-2.6408,-2.7179,-2.7901,0.0,0.0,-3.0271,0.0,-3.2357,-3.1678,-3.1531,-3.1231,-3.0485,-3.0301,-2.9934,-2.9244,-2.9042,-2.8987,-2.8987,-2.8987,-2.8987,-2.8987,-2.8987,-2.8987,-2.8987,-2.8987,-2.8987,-2.8987,-2.8987,-2.8987,-2.8987,-2.8895,-2.8565,-2.7097,-2.6859,-2.684,-2.6906,-2.6932,-2.6885,-3.2691,-3.2464,-3.2077,-3.1191,-3.0005,-3.0001,-2.9997,-3.0004,-3.0004,-3.0014,-2.9973,-2.9291,-2.8614,-2.8034,-2.8642,-2.8907,-2.8917,-2.9514,-2.9813,-2.9808,-2.9808,-2.9813,-2.9808,-2.9808,-2.9808,-2.9788,-2.9808,-2.9467,-2.8838,-2.8819,-2.8511,-2.7915,-2.7467,-2.7274,-2.7255,-2.664,-2.6294,-2.6294,-2.5635,-2.5308,-2.5308,-2.5308,-2.5308,-2.5308,-2.5308,-2.5308,-2.5288,-2.4529,-2.3995,-2.3759,-2.2331,-2.1019,-2.0038,-1.9357,0.0,0.0,0.0,0.0,0.0,0.0,0.0,0.0,0.0,-1.7995,-1.9411,0.0,-1.9917,0.0,-2.1441,-2.1816,-2.2454,-2.3369,0.0,0.0,-2.5829,-2.6599,-2.7318,-2.8128,-2.8876,-2.9612,-3.0356,-3.1127,-3.1922,-3.2362,-3.2748,-3.3128,-3.2706,-3.2247,-3.2032,-3.0931,-3.0136,-2.9916,-2.9427,-2.9005,-2.9023,-2.8987,-2.8987,-2.8987,-2.8987,-2.8987,-2.8987,-2.8987,-2.8987,-2.8987,-2.8987,-2.8987,-2.8987,-2.8987,-2.8895,-2.851,-2.8436,-2.8436,-2.8436,-2.84,-2.8205,-3.3455,-3.3107,-3.3107,-3.2561,-3.1694,-3.1312,-3.1133,-3.1105,-3.0756,-3.0612,-3.0578,-3.0075,-2.9616,-2.9205,-2.9612,-2.9776,-2.9823,-3.0199,-3.0396,-3.0404,-3.0404,-3.0404,-3.0404,-3.0404,-3.0404,-3.0404,-3.0404,-3.0154,-2.9698,-2.9679,-2.9448,-2.9025,-2.9025,-2.9006,-2.8967,-2.7794,-2.7178,-2.7178,-2.6313,-2.5692,-2.5308,-2.5308,-2.5308,-2.5308,-2.5308,-2.5308,-2.5308,-2.4865,-2.4471,-2.411,-2.3182,-2.2278,-2.1446,-2.0585,-1.9735,0.0,0.0,0.0,0.0,0.0,0.0,0.0,0.0,0.0,0.0,0.0,-2.1616,0.0,-2.3094,-2.3556,-2.4385,-2.5119,-2.5894,-2.6684,-2.7501,-2.8299,-2.9024,-2.9824,-3.0452,-3.0788,-3.1513,-3.2125,-3.2559,-3.2926,-3.3293,-3.3752,-3.3421,-3.2999,-3.2601,-3.1806,-3.1146,-3.0779,-3.0356,-2.9922,-2.9622,-2.9225,-2.8987,-2.8987,-2.8987,-2.8987,-2.8987,-2.8987,-2.8987,-2.8987,-2.8987,-2.8987,-2.8987,-2.8987,-2.8987,-2.8987,-2.8987,-2.8987,-2.8987,-2.8987,-2.8828,-3.4137,-3.3436,-3.3436,-3.3436,-3.3358,-3.2507,-3.2063,-3.1908,-3.1236,-3.0926,-3.0926,-3.0907,-3.0868,-3.0752,-3.0704,-3.0602,-3.0504,-3.0428,-3.0394,-3.0404,-3.0404,-3.0404,-3.0404,-3.0404,-3.0404,-3.0404,-3.0404,-3.0404,-3.0404,-3.0404,-3.0404,-3.0404,-3.0404,-3.0404,-3.0327,-2.8948,-2.8126,-2.789,-2.7159,-2.6385,-2.5654,-2.5519,-2.5462,-2.5462,-2.5341,-2.5308,-2.5308,-2.5308,-2.4981,-2.4317,-2.4168,-2.3744,-2.299,-2.2158,-2.135,0.0,-2.0615,0.0,0.0,0.0,0.0,0.0,0.0,0.0,0.0,-2.2872,-2.3259,-2.3933,-2.4543,-2.5235,-2.6037,-2.6684,-2.7427,-2.8319,-2.9109,-2.984,-3.0583,-3.1388,-3.1823,-3.1697,-3.2391,-3.2851,-3.2855,-3.3398,-3.382,-3.3802,-3.3784,-3.3495,-3.2913,-3.2619,-3.2247,-3.1623,-3.1452,-3.0974,-3.0265,-2.961,-2.9152,-2.906,-2.8987,-2.8987,-2.8987,-2.8987,-2.8987,-2.8987,-2.8987,-2.8987,-2.8987,-2.8987,-2.8987,-2.8987,-2.8987,-2.8987,-2.8987,-2.8987,-2.8987,-3.5356,-3.522,-3.5201,-3.5201,-3.5123,-3.4272,-3.3518,-3.2836,-3.2681,-3.2623,-3.2623,-3.2623,-3.2237,-3.1579,-3.1559,-3.1167,-3.0504,-3.0433,-3.04,-3.0404,-3.0404,-3.0404,-3.0404,-3.0404,-3.0404,-3.0404,-3.0404,-3.0404,-3.0404,-3.0404,-3.0404,-3.0404,-3.0404,-3.0404,-3.0385,0.0,0.0,0.0,-2.7717,-2.7563,-2.739,-2.6697,-2.6346,-2.6332,-2.5673,0.0,-2.5308,-2.5308,-2.5231,-2.5058,-2.4452,0.0,0.0,0.0,0.0,0.0,0.0,0.0,0.0,0.0,0.0,0.0,-2.3403,-2.3313,-2.3566,-2.4705,-2.5733,-2.6492,-2.6611,-2.6962,-2.7746,-2.7857,-2.8486,-2.9935,-3.027,-3.0697,-3.1474,-3.2226,-3.2661,-3.2667,-3.329,-3.3732,-3.372,-3.3847,-3.3881,-3.3868,-3.3829,-3.3733,-3.3587,-3.3018,-3.2564,-3.2344,-3.188,-3.1146,-3.032,-3.0106,-2.9757,-2.9225,-2.8987,-2.9005,-2.9005,-2.8987,-2.8987,-2.8987,-2.8987,-2.8987,-2.8987,-2.8987,-2.8987,-2.8987,-2.8987,-2.8987,-2.8987,-2.8987,-2.8987,-3.5704,0.0,-3.5704,-3.5704,0.0,-3.5245,-3.4795,-3.4325,-3.3474,-3.3107,-3.3107,-3.3107,-3.2856,-3.243,-3.2439,-3.1969,-3.1141,-3.1124,-3.0841,-3.0404,-3.0404,-3.0404,-3.0404,-3.0404,-3.0404,-3.0404,-3.0404,-3.0404,-3.0404,-3.0404,-3.0404,-3.0404,-3.0404,-3.0404,-3.0404,-3.0404,-2.975,-2.8511,-2.8511,-2.8294,-2.7876,-2.7063,-2.6621,-2.6582,0.0,0.0,0.0,0.0,0.0,0.0,0.0,0.0,0.0,0.0,0.0,-2.3456,-2.3437,-2.3456,-2.3451,-2.3798,-2.438,-2.5173,-2.5529,-2.5501,-2.4985,-2.6012,-2.7003,-2.7756,-2.7754,-2.8026,-2.8792,-2.916,-2.9675,-3.0511,-3.131,-3.1979,-3.2388,-3.3078,-3.3524,-3.3518,-3.3833,-3.4036,-3.4011,-3.3972,-3.3965,-3.3947,-3.3895,-3.3842,-3.3823,-3.3471,-3.3201,-3.3164,-3.2504,-3.188,-3.1458,-3.0999,-3.0522,-2.9806,-2.9574,-2.9409,-2.906,-2.8987,-2.8987,-2.8987,-2.8987,-2.8987,-2.8987,-2.8987,-2.8987,-2.8987,-2.8987,-2.8987,-2.8987,-2.8987,-2.8987,-3.5704,-3.5704,-3.5704,-3.5704,-3.5704,-3.5704,-3.5704,-3.5607,0.0,0.0,0.0,-3.3571,-3.3474,-3.332,-3.3339,-3.2849,-3.2028,-3.2009,-3.1513,-3.0635,-3.0635,-3.0558,-3.0404,-3.0404,-3.0404,-3.0404,-3.0404,-3.0404,-3.0404,-3.0404,-3.0404,-3.0404,-3.0404,-3.0404,-3.0404,-3.0404,-3.0058,-2.9377,-2.9319,-2.9011,-2.8352,-2.7351,-2.6832,-2.6832,-2.5846,-2.5308,-2.5308,-2.5308,-2.5308,-2.5308,-2.5308,-2.5308,-2.5288,-2.4683,-2.4317,-2.4298,-2.4322,-2.4375,-2.4548,-2.5159,-2.5854,-2.6663,-2.7395,-2.745,-2.6586,-2.7153,-2.7842,-2.8566,-2.8559,-2.8857,-2.9623,-3.0232,-3.0745,-3.0995,-3.2221,-3.3039,-3.3224,-3.3782,-3.4136,-3.4136,-3.4105,-3.4099,-3.4049,-3.4023,-3.4005,-3.4011,-3.3959,-3.3908,-3.3895,-3.3792,-3.3733,-3.3678,-3.3164,-3.2748,-3.2509,-3.2045,-3.1311,-3.0577,-3.0283,-2.9953,-2.9409,-2.9085,-2.9005,-2.8987,-2.8987,-2.8987,-2.8987,-2.8987,-2.8987,-2.8987,-2.8987,-2.8987,-2.8987,-2.8987,-2.8987,-3.5704,-3.5704,-3.5704,-3.5704,-3.5704,-3.5704,-3.5704,-3.5684,-3.5433,-3.5336,-3.5317,-3.5336,-3.4911,-3.4214,-3.4214,-3.3705,-3.2838,-3.2814,-3.2361,0.0,-3.1506,-3.1115,-3.0423,-3.0404,-3.0404,-3.0404,-3.0404,-3.0404,-3.0404,-3.0404,-3.0404,-3.0404,-3.0404,-3.0404,-3.0404,-3.0404,-3.0327,-3.0231,-3.0237,-3.0173,-3.0038,-2.8525,-2.7722,-2.764,-2.6159,-2.5308,-2.5308,-2.5308,-2.5308,-2.5308,-2.5308,-2.5308,-2.5288,-2.5192,-2.5135,-2.5115,-2.5135,-2.5442,-2.6197,-2.6351,-2.6757,-2.7483,-2.8209,-2.8525,-2.8296,-2.8361,-2.8728,-2.9429,-2.9439,-2.9718,-3.0426,-3.0663,-3.128,-3.24,-3.2853,-3.325,-3.3881,-3.4086,-3.4197,-3.4185,-3.4185,-3.4185,-3.4161,-3.4124,-3.4086,-3.4074,-3.4023,-3.3959,-3.3908,-3.386,-3.3807,-3.3807,-3.3715,-3.3348,-3.2821,-3.2546,-3.21,-3.1378,-3.0668,-3.0228,-2.9989,-2.9409,-2.9023,-2.8987,-2.8987,-2.8987,-2.8987,-2.8987,-2.8987,-2.8987,-2.8987,-2.8987,-2.8987,-2.8987,-2.8987,-3.6342,-3.6303,-3.5878,-3.5704,-3.5704,-3.5704,-3.5704,-3.5704,-3.5704,-3.5704,-3.5704,-3.5704,-3.5477,-3.511,-3.511,-3.4605,-3.371,-3.3712,-3.3259,-3.2422,-3.2365,-3.1904,-3.1154,-3.1102,-3.0865,-3.0423,-3.0404,-3.0404,-3.0404,-3.0404,-3.0404,-3.0404,-3.0404,-3.0404,-3.0404,-3.0404,-3.0404,-3.0404,-3.0404,-3.0404,-3.0385,-2.9179,-2.8357,-2.7915,-2.6659,-2.5769,-2.5308,-2.5308,-2.5308,-2.5308,-2.5308,-2.5308,-2.5308,-2.5308,-2.55,-2.5962,-2.6019,-2.639,-2.7255,-2.7679,-2.8048,-2.8389,-2.9074,-2.9467,-2.9363,-2.9311,-2.9386,-2.9681,-3.0011,-3.0384,-3.0757,-3.1496,-3.23,-3.2973,-3.3385,-3.38,-3.4135,-3.4216,-3.4216,-3.4216,-3.4216,-3.4216,-3.4216,-3.4173,-3.4161,-3.4148,-3.4099,-3.4018,-3.3941,-3.3913,-3.3847,-3.382,-3.3807,-3.366,-3.3311,-3.3256,-3.2908,-3.2173,-3.1384,-3.0723,-3.0301,-2.9537,-2.9078,-2.8987,-2.8987,-2.8987,-2.8987,-2.8987,-2.8987,-2.8987,-2.8987,-2.8987,-2.8987,-2.8987,-2.8987,-3.7207,-3.7129,-3.6323,-3.5858,-3.5704,-3.5704,-3.5704,-3.5704,-3.5704,-3.5704,-3.5704,-3.5704,-3.5704,-3.5704,-3.5704,-3.5287,-3.4654,-3.4587,-3.4133,-3.3326,-3.3218,-3.2776,-3.2045,-3.1968,-3.1525,-3.0769,-3.0673,-3.0596,-3.0423,-3.0404,-3.0404,-3.0404,-3.0404,-3.0404,-3.0404,-3.0404,-3.0404,-3.0404,-3.0404,-3.0404,-3.0365,-2.9544,-2.88,-2.8184,-2.7332,-2.6577,-2.5923,-2.5885,-2.5885,-2.5885,-2.5885,-2.5885,-2.5865,-2.5865,-2.6192,-2.6813,-2.689,-2.7274,-2.8121,-2.8885,-2.9283,-2.9302,-2.9782,-3.0068,-3.0022,-3.008,-3.0072,-3.0066,-3.0499,-3.0948,-3.1461,-3.2379,-3.3209,-3.3373,-3.3866,-3.4165,-3.4197,-3.4216,-3.4216,-3.4216,-3.4216,-3.4216,-3.4216,-3.4216,-3.4216,-3.4185,-3.4161,-3.4099,-3.4036,-3.3972,-3.3921,-3.3842,-3.382,-3.3788,-3.3807,-3.3788,-3.3495,-3.2913,-3.2192,-3.1439,-3.0668,-2.9831,-2.9207,-2.9097,-2.8987,-2.8987,-2.8987,-2.8987,-2.8987,-2.8987,-2.8987,-2.8987,-2.8987,-2.8987,-2.8987,-3.8077,-3.7947,-3.7135,-3.6361,-3.5742,-3.5704,-3.5704,-3.5704,-3.5704,-3.5704,-3.5704,-3.5704,-3.5704,-3.5704,-3.5704,-3.559,-3.5452,-3.5475,-3.4962,-3.416,-3.4084,-3.3603,-3.2833,-3.2776,-3.2372,-3.166,-3.1583,-3.1179,-3.05,-3.0423,-3.0404,-3.0404,-3.0404,-3.0404,-3.0404,-3.0404,-3.0404,-3.0404,-3.0404,-3.0404,-3.0346,-2.9544,-2.9069,-2.8973,-2.8203,-2.7761,-2.7563,-2.7664,-2.764,-2.7645,-2.7601,-2.7621,-2.7626,-2.764,-2.7678,-2.7755,-2.7794,-2.8126,-2.8929,-2.9735,-3.0139,-3.0164,-3.0089,-3.0106,-3.0164,-3.0704,-3.1002,-3.0979,-3.097,-3.1636,-3.2858,-3.3219,-3.3568,-3.4048,-3.42,-3.4269,-3.4209,-3.4216,-3.4216,-3.4216,-3.4216,-3.4216,-3.4216,-3.4216,-3.4216,-3.4216,-3.4197,-3.4161,-3.4093,-3.4074,-3.4023,-3.3921,-3.3842,-3.382,-3.3807,-3.3807,-3.3715,-3.3587,-3.2999,-3.2137,-3.1292,-3.0522,-2.9886,-2.9115,-2.8987,-2.8987,-2.8987,-2.8987,-2.8987,-2.8987,-2.8987,-2.8987,-2.8987,-2.8987,-2.8987,-3.8953,-3.8882,-3.8025,-3.7174,-3.6419,-3.5916,-3.5704,-3.5704,-3.5704,-3.5704,-3.5704,-3.5704,-3.5704,-3.5704,-3.5704,-3.5698,-3.5668,-3.562,-3.5417,-3.5033,-3.5002,-3.4494,-3.3725,-3.368,-3.3244,-3.2468,-3.241,-3.1987,-3.1192,-3.0654,-3.0404,-3.0404,-3.0404,-3.0404,-3.0404,-3.0404,-3.0404,-3.0404,-3.0404,-3.0404,-3.0365,-3.0058,-2.9621,-2.9127,-2.878,-2.8357,-2.7967,-2.789,-2.789,-2.789,-2.789,-2.789,-2.789,-2.789,-2.8107,-2.8569,-2.9102,-2.9525,-2.9852,-3.0137,-3.0311,-3.0312,-3.0213,-3.0359,-3.0837,-3.1113,-3.1572,-3.2439,-3.2515,-3.2765,-3.3312,-3.373,-3.4136,-3.4371,-3.4358,-3.4293,-3.4269,-3.4203,-3.4216,-3.4216,-3.4216,-3.4216,-3.4216,-3.4216,-3.4216,-3.4216,-3.4216,-3.4185,-3.4161,-3.4136,-3.4074,-3.4042,-3.3978,-3.3881,-3.3834,-3.3807,-3.3807,-3.3678,-3.3115,-3.2339,-3.1544,-3.0742,-2.9941,-2.9152,-2.9023,-2.8987,-2.8987,-2.8987,-2.8987,-2.8987,-2.8987,-2.8987,-2.8987,-2.8987,-2.8987,-3.9849,-3.9733,-3.8914,-3.7928,-3.6864,-3.6284,-3.5897,-3.5704,-3.5704,-3.5704,-3.5704,-3.5704,-3.5704,-3.5704,-3.5704,-3.5704,-3.5704,-3.5637,-3.5614,-3.559,-3.5528,-3.5168,-3.4603,-3.4533,-3.4083,-3.3372,-3.3276,-3.2833,-3.2045,-3.1423,-3.0981,-3.0808,-3.075,-3.0635,-3.0423,-3.0404,-3.0404,-3.0404,-3.0404,-3.0404,-3.0404,-3.0404,-3.0096,-2.9525,-2.9473,-2.9159,-2.8621,-2.8582,-2.8582,-2.8602,-2.8588,-2.8602,-2.8582,-2.8582,-2.8852,-2.941,-3.0038,-3.0404,-3.0404,-3.0342,-3.0311,-3.0312,-3.0233,-3.0548,-3.1249,-3.1561,-3.2275,-3.343,-3.38,-3.3843,-3.3826,-3.4223,-3.4509,-3.4495,-3.4416,-3.434,-3.4305,-3.4245,-3.4221,-3.4209,-3.4216,-3.4216,-3.4216,-3.4216,-3.4216,-3.4216,-3.4216,-3.4216,-3.4197,-3.4161,-3.4105,-3.4093,-3.4061,-3.3972,-3.3873,-3.3829,-3.3834,-3.3715,-3.3256,-3.2651,-3.169,-3.087,-3.0032,-2.9372,-2.9152,-2.8987,-2.8987,-2.8987,-2.8987,-2.8987,-2.8987,-2.8987,-2.8987,-2.8987,-2.8987,-4.0758,-4.0603,-3.9791,-3.8475,-3.6942,-3.6884,-3.64,-3.5781,-3.5742,-3.5723,-3.5704,-3.5704,-3.5704,-3.5704,-3.5704,-3.5704,-3.5684,-3.5637,-3.5626,-3.5595,-3.5521,-3.547,-3.5445,-3.5443,-3.4968,-3.418,-3.4141,-3.3699,-3.291,-3.2756,-3.2391,-3.1679,-3.1641,-3.1237,-3.0577,-3.0481,-3.0423,-3.0423,-3.0404,-3.0404,-3.0404,-3.0404,-3.0365,-3.0269,-3.0308,-3.0231,-3.0212,-3.025,-3.025,-3.025,-3.0173,-3.0212,-3.0231,-3.0212,-3.0212,-3.0308,-3.0365,-3.0404,-3.0379,-3.0342,-3.033,-3.0331,-3.0349,-3.0607,-3.1588,-3.2198,-3.2915,-3.3675,-3.4387,-3.4679,-3.4567,-3.4551,-3.4561,-3.4517,-3.4514,-3.4409,-3.4316,-3.4293,-3.4288,-3.4221,-3.4197,-3.4216,-3.4216,-3.4216,-3.4216,-3.4216,-3.4216,-3.4216,-3.4216,-3.4185,-3.4161,-3.4124,-3.4099,-3.4049,-3.3939,-3.3895,-3.3855,-3.3792,-3.3576,-3.3201,-3.2186,-3.1195,-3.0338,-2.9574,-2.9207,-2.9005,-2.9005,-2.8987,-2.8987,-2.8987,-2.8987,-2.8987,-2.8987,-2.8987,-2.8987,-4.0797,-4.0719,-3.9849,-3.9114,-3.8533,-3.7986,-3.7251,-3.6497,-3.6477,-3.6168,-3.5762,-3.5704,-3.5704,-3.5704,-3.5704,-3.5704,-3.5704,-3.5673,-3.5643,-3.5587,-3.5583,-3.5553,-3.549,-3.5489,-3.5373,-3.5084,-3.5026,-3.4584,-3.3757,-3.3199,-3.2776,-3.2526,-3.2468,-3.2064,-3.1385,-3.1231,-3.0981,-3.0462,-3.0404,-3.0404,-3.0423,-3.0404,-3.0404,-3.0404,-3.0404,-3.0404,-3.0404,-3.0404,-3.0404,-3.0404,-3.0404,-3.0404,-3.0404,-3.0404,-3.0404,-3.0404,-3.0404,-3.0404,-3.0404,-3.0359,-3.0591,-3.1079,-3.1117,-3.1663,-3.2768,-3.3306,-3.3764,-3.4494,-3.4746,-3.4879,-3.4821,-3.4739,-3.4636,-3.4623,-3.4569,-3.4484,-3.442,-3.4351,-3.4293,-3.4257,-3.4233,-3.4216,-3.4216,-3.4216,-3.4216,-3.4216,-3.4216,-3.4216,-3.4216,-3.4216,-3.4185,-3.4173,-3.4161,-3.4117,-3.4067,-3.3985,-3.3947,-3.3895,-3.3708,-3.3296,-3.2493,-3.1648,-3.0791,-2.9953,-2.9445,-2.9005,-2.8987,-2.8987,-2.8987,-2.8987,-2.8987,-2.8987,-2.8987,-2.8987,-2.8987,-4.0797,-4.0719,-4.0158,-3.9752,-3.9443,-3.8882,-3.8121,-3.7328,-3.7013,-3.6574,-3.611,-3.582,-3.5704,-3.5704,-3.5704,-3.5704,-3.5704,-3.5704,-3.5679,-3.5637,-3.5612,-3.5583,-3.5527,-3.5528,-3.5522,-3.5489,-3.5488,-3.5173,-3.4622,-3.4026,-3.3603,-3.3333,-3.3314,-3.291,-3.2218,-3.2083,-3.1756,-3.125,-3.0962,-3.0827,-3.0788,-3.0538,-3.0404,-3.0404,-3.0404,-3.0404,-3.0404,-3.0404,-3.0404,-3.0404,-3.0404,-3.0404,-3.0404,-3.0404,-3.0404,-3.0404,-3.0404,-3.0404,-3.0442,-3.0654,-3.1046,-3.1565,-3.1898,-3.2605,-3.3845,-3.3945,-3.4364,-3.4925,-3.5092,-3.4992,-3.4917,-3.4821,-3.4749,-3.4697,-3.4623,-3.4539,-3.4514,-3.4427,-3.434,-3.4293,-3.4257,-3.4233,-3.4209,-3.4216,-3.4216,-3.4216,-3.4216,-3.4216,-3.4216,-3.4216,-3.4216,-3.4216,-3.4216,-3.4185,-3.4136,-3.4099,-3.4023,-3.3972,-3.3915,-3.3458,-3.2868,-3.204,-3.1219,-3.0387,-2.9714,-2.9225,-2.8987,-2.8987,-2.8987,-2.8987,-2.8987,-2.8987,-2.8987,-2.8987,-2.8987,-4.0797,-4.0797,-4.0797,-4.0294,-3.9655,-3.9539,-3.9011,-3.8154,-3.7406,-3.7096,-3.6845,-3.6129,-3.5839,-3.5762,-3.5748,-3.5704,-3.5704,-3.5704,-3.5704,-3.5679,-3.5637,-3.5606,-3.5595,-3.559,-3.556,-3.5502,-3.5482,-3.5481,-3.5365,-3.5231,-3.4891,-3.4321,-3.4199,-3.3776,-3.2929,-3.291,-3.2872,-3.2583,-3.2006,-3.1698,-3.1615,-3.1,-3.0654,-3.0577,-3.0538,-3.0519,-3.0462,-3.0423,-3.0404,-3.0404,-3.0404,-3.0404,-3.0404,-3.0404,-3.0404,-3.0404,-3.0404,-3.0404,-3.0558,-3.1192,-3.1571,-3.1994,-3.2474,-3.3247,-3.4002,-3.4163,-3.4431,-3.5034,-3.5191,-3.5138,-3.502,-3.4927,-3.484,-3.4728,-3.4687,-3.4615,-3.4539,-3.4476,-3.4431,-3.4347,-3.4286,-3.4269,-3.4221,-3.4209,-3.4209,-3.4209,-3.4209,-3.424,-3.4252,-3.4252,-3.4228,-3.4209,-3.4233,-3.4245,-3.4221,-3.4197,-3.4124,-3.403,-3.3974,-3.3732,-3.3055,-3.2274,-3.1452,-3.0612,-2.9639,-2.915,-2.8987,-2.8987,-2.8987,-2.8987,-2.8987,-2.8987,-2.8987,-2.8987,-2.8987,-4.0797,-4.0797,-4.0797,-4.0642,-4.041,-4.041,-3.9907,-3.9114,-3.8766,-3.8353,-3.7709,-3.6903,-3.6535,-3.6381,-3.5974,-3.5704,-3.5704,-3.5704,-3.5704,-3.5704,-3.5679,-3.5643,-3.5626,-3.5614,-3.5565,-3.5515,-3.5496,-3.5489,-3.5488,-3.5481,-3.5308,-3.5135,-3.5084,-3.4641,-3.3853,-3.3776,-3.3551,-3.2929,-3.266,-3.2506,-3.2526,-3.2256,-3.2102,-3.2064,-3.1602,-3.1288,-3.1269,-3.0731,-3.0404,-3.0404,-3.0404,-3.0404,-3.0404,-3.0404,-3.0404,-3.0404,-3.0404,-3.0712,-3.1231,-3.1583,-3.2275,-3.3109,-3.3608,-3.4119,-3.4813,-3.4902,-3.4979,-3.5245,-3.5242,-3.5164,-3.5129,-3.5029,-3.4936,-3.4858,-3.4758,-3.4687,-3.4615,-3.455,-3.4473,-3.4404,-3.4363,-3.434,-3.4293,-3.4269,-3.4269,-3.4269,-3.4269,-3.4281,-3.4335,-3.4335,-3.4358,-3.434,-3.4328,-3.4316,-3.4305,-3.4281,-3.4233,-3.4161,-3.4093,-3.4012,-3.3333,-3.2558,-3.1715,-3.0751,-2.9777,-2.9209,-2.9065,-2.8998,-2.8998,-2.8987,-2.8987,-2.8987,-2.8987,-2.8987,-2.8987,-4.0797,-4.0797,-4.0797,-4.0797,-4.0797,-4.0797,-4.0507,-3.9965,-3.9617,-3.9191,-3.8566,-3.7773,-3.7207,-3.6845,-3.6361,-3.5974,-3.5723,-3.5704,-3.5704,-3.5704,-3.5704,-3.5673,-3.5637,-3.5606,-3.5589,-3.5527,-3.5534,-3.5528,-3.5489,-3.5482,-3.5494,-3.5488,-3.55,-3.5231,-3.4718,-3.468,-3.4372,-3.3891,-3.3564,-3.3391,-3.3321,-3.3064,-3.2891,-3.2814,-3.241,-3.216,-3.2102,-3.1602,-3.1038,-3.0538,-3.0404,-3.0404,-3.0404,-3.0673,-3.0885,-3.0942,-3.1192,-3.1621,-3.2102,-3.2506,-3.3006,-3.4007,-3.4448,-3.4812,-3.5309,-3.5354,-3.5331,-3.5304,-3.5264,-3.5215,-3.52,-3.5138,-3.5039,-3.4936,-3.4839,-3.4739,-3.4697,-3.4612,-3.4517,-3.4461,-3.4439,-3.4416,-3.4351,-3.434,-3.4328,-3.4328,-3.434,-3.434,-3.4393,-3.4386,-3.4397,-3.4397,-3.4374,-3.4374,-3.4386,-3.4363,-3.4328,-3.4269,-3.4209,-3.4117,-3.3765,-3.2908,-3.2064,-3.0859,-2.9809,-2.9289,-2.91,-2.9055,-2.9033,-2.901,-2.8998,-2.8987,-2.8987,-2.8987,-2.8987,-4.0797,-4.0797,-4.0797,-4.0797,-4.0797,-4.0797,-4.0758,-4.0623,-3.9984,-3.9636,-3.9404,-3.8663,-3.7883,-3.7212,-3.6961,-3.6439,-3.5878,-3.5704,-3.5704,-3.5704,-3.5704,-3.5704,-3.5679,-3.5643,-3.5606,-3.5595,-3.559,-3.556,-3.5515,-3.5509,-3.5489,-3.552,-3.552,-3.5488,-3.536,-3.5468,-3.5353,-3.5154,-3.4603,-3.4257,-3.4237,-3.3583,-3.3179,-3.3199,-3.3083,-3.2987,-3.2949,-3.2737,-3.2045,-3.0808,-3.075,-3.0788,-3.075,-3.1346,-3.1756,-3.1795,-3.2468,-3.2756,-3.3103,-3.3526,-3.4109,-3.4391,-3.4981,-3.5486,-3.542,-3.5398,-3.5369,-3.5316,-3.5304,-3.5272,-3.5215,-3.52,-3.5129,-3.503,-3.4917,-3.4819,-3.4727,-3.4645,-3.4572,-3.4517,-3.4506,-3.4484,-3.4427,-3.4416,-3.4416,-3.4416,-3.4416,-3.4409,-3.4439,-3.445,-3.4427,-3.4439,-3.4443,-3.4484,-3.4506,-3.4506,-3.4473,-3.4427,-3.434,-3.4257,-3.395,-3.311,-3.2087,-3.0898,-2.9987,-2.9496,-2.9167,-2.9123,-2.9078,-2.9085,-2.9062,-2.901,-2.8987,-2.8987,-2.8987,-4.0797,-4.0797,-4.0797,-4.0797,-4.0797,-4.0797,-4.0797,-4.0777,-4.0565,-4.041,-4.0274,-3.9539,-3.8992,-3.8688,-3.7444,-3.6767,-3.6497,-3.5994,-3.5704,-3.5704,-3.5704,-3.5704,-3.5704,-3.5679,-3.5643,-3.5606,-3.562,-3.5577,-3.5566,-3.5585,-3.5554,-3.5573,-3.5586,-3.5554,-3.5515,-3.5509,-3.5495,-3.5488,-3.5308,-3.5122,-3.5084,-3.4904,-3.4827,-3.4769,-3.418,-3.3898,-3.3776,-3.3237,-3.2776,-3.2333,-3.2237,-3.2256,-3.2179,-3.2429,-3.2602,-3.266,-3.2814,-3.3237,-3.3776,-3.4071,-3.4494,-3.5084,-3.5334,-3.55,-3.5467,-3.542,-3.5398,-3.5369,-3.535,-3.5304,-3.5272,-3.5234,-3.5147,-3.5011,-3.4946,-3.4858,-3.4747,-3.4695,-3.4655,-3.4602,-3.458,-3.4558,-3.4495,-3.4454,-3.4484,-3.4484,-3.4465,-3.4476,-3.4528,-3.4539,-3.4539,-3.4561,-3.4583,-3.4604,-3.4634,-3.4634,-3.4594,-3.455,-3.4495,-3.4427,-3.388,-3.3089,-3.1931,-3.0713,-3.0109,-2.9579,-2.9333,-2.9178,-2.9163,-2.9141,-2.9096,-2.9062,-2.8998,-2.8987,-2.8987,-4.0797,-4.0797,-4.0797,-4.0797,-4.0797,-4.0797,-4.0797,-4.0797,-4.0797,-4.0797,-4.0681,-4.0313,-3.9829,-3.9385,-3.8456,-3.7773,-3.7367,-3.6593,-3.6245,-3.6129,-3.5858,-3.5723,-3.5704,-3.5704,-3.5679,-3.5643,-3.5643,-3.5606,-3.5602,-3.5616,-3.561,-3.5617,-3.5617,-3.5585,-3.5554,-3.5547,-3.5541,-3.5534,-3.5534,-3.5528,-3.5489,-3.5489,-3.5475,-3.543,-3.4968,-3.4757,-3.4661,-3.4257,-3.3718,-3.3103,-3.2891,-3.2891,-3.2949,-3.3276,-3.341,-3.3449,-3.3757,-3.4257,-3.4603,-3.4737,-3.4968,-3.5365,-3.55,-3.55,-3.55,-3.546,-3.5446,-3.5398,-3.5361,-3.5324,-3.5285,-3.5231,-3.5183,-3.5084,-3.4993,-3.4898,-3.4807,-3.4758,-3.4708,-3.4666,-3.4645,-3.4604,-3.4558,-3.4539,-3.455,-3.4591,-3.4572,-3.4623,-3.4685,-3.4695,-3.4676,-3.4687,-3.4697,-3.4718,-3.4728,-3.4728,-3.4728,-3.4687,-3.4626,-3.4572,-3.4053,-3.3258,-3.2314,-3.1269,-3.0437,-2.9755,-2.9463,-2.9254,-2.9229,-2.9197,-2.9152,-2.9108,-2.9062,-2.8998,-2.8998,-4.0797,-4.0797,-4.0797,-4.0797,-4.0797,-4.0797,-4.0797,-4.0797,-4.0797,-4.0797,-4.0777,-4.0797,-4.0332,-3.9636,-3.9346,-3.9017,-3.8276,-3.7439,-3.698,-3.6613,-3.611,-3.5704,-3.5704,-3.5704,-3.5704,-3.5679,-3.5704,-3.5654,-3.5631,-3.5631,-3.5614,-3.5622,-3.5635,-3.5604,-3.5604,-3.5598,-3.5617,-3.5611,-3.5605,-3.5573,-3.5534,-3.5534,-3.5534,-3.5495,-3.5443,-3.5347,-3.5379,-3.5257,-3.475,-3.3276,-3.316,-3.3333,-3.3391,-3.3987,-3.4276,-3.441,-3.4885,-3.5288,-3.5442,-3.5365,-3.5442,-3.55,-3.55,-3.55,-3.55,-3.5474,-3.5486,-3.542,-3.5405,-3.5361,-3.5293,-3.5239,-3.5217,-3.5164,-3.5094,-3.5002,-3.4936,-3.4858,-3.4797,-3.4727,-3.4716,-3.4676,-3.4626,-3.4604,-3.4645,-3.4676,-3.4687,-3.4716,-3.4747,-3.4747,-3.4749,-3.4751,-3.478,-3.48,-3.4829,-3.4839,-3.4839,-3.4829,-3.4769,-3.4651,-3.4376,-3.3674,-3.289,-3.1995,-3.0924,-3.0083,-2.9514,-2.937,-2.9315,-2.9262,-2.9211,-2.9163,-2.9108,-2.9062,-2.904,-4.0797,-4.0797,-4.0797,-4.0797,-4.0797,-4.0797,-4.0797,-4.0797,-4.0797,-4.0797,-4.0797,-4.0797,-4.0681,-4.0468,-3.9849,-3.9365,-3.9114,-3.8315,-3.7593,-3.6806,-3.6071,-3.5742,-3.5704,-3.5723,-3.5704,-3.5704,-3.5704,-3.5704,-3.5679,-3.5673,-3.5673,-3.5687,-3.5656,-3.5656,-3.5614,-3.5614,-3.5622,-3.5623,-3.5617,-3.5604,-3.5591,-3.5591,-3.5579,-3.5566,-3.5528,-3.5496,-3.5489,-3.5501,-3.5308,-3.5038,-3.4865,-3.4712,-3.4788,-3.5007,-3.5122,-3.5161,-3.5308,-3.55,-3.55,-3.55,-3.55,-3.55,-3.55,-3.55,-3.55,-3.55,-3.55,-3.5467,-3.5427,-3.5376,-3.5308,-3.5277,-3.5248,-3.5217,-3.5183,-3.512,-3.5039,-3.4936,-3.4868,-3.4798,-3.4778,-3.4787,-3.4758,-3.4747,-3.4739,-3.4759,-3.4788,-3.4788,-3.4798,-3.4819,-3.483,-3.4869,-3.4879,-3.4898,-3.4936,-3.4946,-3.4946,-3.4936,-3.4888,-3.484,-3.4571,-3.4158,-3.3383,-3.2391,-3.1277,-3.0538,-2.9922,-2.9423,-2.937,-2.9328,-2.9275,-2.9211,-2.9163,-2.9119,-2.9062,-4.0797,-4.0797,-4.0797,-4.0797,-4.0797,-4.0797,-4.0797,-4.0797,-4.0797,-4.0797,-4.0797,-4.0797,-4.0797,-4.0777,-4.0332,-4.012,-3.9907,-3.921,-3.8353,-3.7502,-3.669,-3.6284,-3.6129,-3.5878,-3.5704,-3.5704,-3.5704,-3.5704,-3.5704,-3.5704,-3.5704,-3.5704,-3.5709,-3.5679,-3.5648,-3.566,-3.5648,-3.5656,-3.5651,-3.5631,-3.5622,-3.5622,-3.561,-3.5598,-3.556,-3.5554,-3.5528,-3.5515,-3.5495,-3.5489,-3.5494,-3.55,-3.55,-3.55,-3.55,-3.55,-3.55,-3.55,-3.55,-3.55,-3.55,-3.55,-3.55,-3.55,-3.55,-3.55,-3.55,-3.5493,-3.546,-3.5405,-3.5346,-3.53,-3.528,-3.5248,-3.5225,-3.5191,-3.5129,-3.502,-3.4946,-3.4878,-3.483,-3.4819,-3.4809,-3.4819,-3.4829,-3.4839,-3.484,-3.4869,-3.4936,-3.4936,-3.4974,-3.4974,-3.4983,-3.5001,-3.5039,-3.5048,-3.5067,-3.5039,-3.5011,-3.4983,-3.487,-3.4424,-3.3912,-3.2899,-3.1934,-3.1182,-3.0562,-3.0044,-2.9488,-2.9372,-2.931,-2.9265,-2.9218,-2.9145,-2.9089,-4.0797,-4.0797,-4.0797,-4.0797,-4.0797,-4.0797,-4.0797,-4.0797,-4.0797,-4.0797,-4.0797,-4.0797,-4.0797,-4.0797,-4.0777,-4.0777,-4.0526,-3.9849,-3.892,-3.8353,-3.7502,-3.7,-3.6729,-3.6284,-3.5878,-3.5742,-3.5704,-3.5704,-3.5709,-3.5709,-3.5701,-3.5715,-3.5701,-3.5687,-3.5706,-3.5697,-3.5702,-3.5687,-3.5697,-3.5672,-3.5635,-3.5629,-3.5637,-3.5614,-3.5602,-3.561,-3.5578,-3.5554,-3.5515,-3.5515,-3.5495,-3.5494,-3.5488,-3.5481,-3.55,-3.55,-3.55,-3.55,-3.55,-3.55,-3.55,-3.55,-3.55,-3.55,-3.55,-3.55,-3.55,-3.55,-3.5474,-3.546,-3.5405,-3.5354,-3.5316,-3.5296,-3.5239,-3.5206,-3.5172,-3.5092,-3.5011,-3.4955,-3.4936,-3.4927,-3.4898,-3.4898,-3.4907,-3.4917,-3.4927,-3.4945,-3.5011,-3.5057,-3.5066,-3.5075,-3.5084,-3.5082,-3.5108,-3.5127,-3.5136,-3.5127,-3.5101,-3.5092,-3.5092,-3.4793,-3.4302,-3.362,-3.275,-3.1967,-3.1138,-3.0451,-2.997,-2.961,-2.9372,-2.931,-2.9265,-2.9189,-2.9134,-4.0797,-4.0797,-4.0797,-4.0797,-4.0797,-4.0797,-4.0797,-4.0797,-4.0797,-4.0797,-4.0797,-4.0797,-4.0797,-4.0797,-4.0797,-4.0797,-4.0603,-3.9984,-3.9501,-3.9152,-3.8392,-3.7754,-3.7193,-3.6748,-3.6323,-3.5839,-3.5709,-3.5709,-3.5715,-3.5711,-3.5697,-3.5702,-3.5698,-3.5708,-3.5708,-3.5699,-3.5699,-3.5713,-3.5723,-3.5699,-3.5703,-3.5674,-3.5664,-3.5662,-3.564,-3.5623,-3.5614,-3.559,-3.5566,-3.5585,-3.5534,-3.5502,-3.5489,-3.5482,-3.5488,-3.55,-3.55,-3.55,-3.55,-3.55,-3.55,-3.55,-3.55,-3.55,-3.55,-3.55,-3.55,-3.55,-3.55,-3.5467,-3.5412,-3.5383,-3.5354,-3.5308,-3.5277,-3.5253,-3.522,-3.5179,-3.5117,-3.5073,-3.5056,-3.5039,-3.5002,-3.4983,-3.4993,-3.5021,-3.503,-3.5029,-3.5075,-3.5101,-3.5119,-3.5155,-3.5164,-3.517,-3.5185,-3.5185,-3.5185,-3.5185,-3.5168,-3.5162,-3.5145,-3.511,-3.4678,-3.4083,-3.345,-3.2685,-3.1855,-3.1035,-3.0377,-2.9971,-2.9668,-2.9382,-2.931,-2.9235,-2.9207,-4.0797,-4.0797,-4.0797,-4.0797,-4.0797,-4.0797,-4.0797,-4.0797,-4.0797,-4.0797,-4.0797,-4.0797,-4.0797,-4.0797,-4.0797,-4.0797,-4.0642,-4.0429,-4.0178,-3.9984,-3.9288,-3.8702,-3.8005,-3.7425,-3.6767,-3.6289,-3.5972,-3.5725,-3.5706,-3.5702,-3.5718,-3.5708,-3.5704,-3.5708,-3.5713,-3.5732,-3.5732,-3.5751,-3.5745,-3.575,-3.5747,-3.5718,-3.5704,-3.5689,-3.5679,-3.5653,-3.5651,-3.5623,-3.562,-3.5602,-3.5572,-3.5528,-3.5509,-3.5489,-3.5489,-3.5488,-3.55,-3.55,-3.55,-3.55,-3.55,-3.55,-3.55,-3.55,-3.55,-3.55,-3.55,-3.55,-3.55,-3.5493,-3.546,-3.542,-3.5391,-3.5342,-3.5312,-3.5289,-3.5254,-3.525,-3.5226,-3.5185,-3.5117,-3.5101,-3.5084,-3.5075,-3.5092,-3.5101,-3.5119,-3.5127,-3.5136,-3.5162,-3.5196,-3.5212,-3.5229,-3.5226,-3.5231,-3.5231,-3.525,-3.5242,-3.5242,-3.5237,-3.5229,-3.5196,-3.5069,-3.4703,-3.4034,-3.3364,-3.2666,-3.1845,-3.1092,-3.0292,-2.9849,-2.9509,-2.9382,-2.931,-2.9254,-4.0797,-4.0797,-4.0797,-4.0797,-4.0797,-4.0797,-4.0797,-4.0797,-4.0797,-4.0797,-4.0797,-4.0797,-4.0797,-4.0797,-4.0797,-4.0797,-4.0797,-4.0758,-4.0719,-4.0584,-4.01,-3.9694,-3.9075,-3.8301,-3.7411,-3.7132,-3.6427,-3.5862,-3.5707,-3.5723,-3.5718,-3.5732,-3.5742,-3.5727,-3.5741,-3.5775,-3.581,-3.5818,-3.5811,-3.5815,-3.5786,-3.5769,-3.5732,-3.5722,-3.5718,-3.5728,-3.5693,-3.5653,-3.5632,-3.5623,-3.5595,-3.5584,-3.5534,-3.5522,-3.5522,-3.5501,-3.5488,-3.55,-3.55,-3.55,-3.55,-3.55,-3.55,-3.55,-3.55,-3.55,-3.55,-3.55,-3.55,-3.55,-3.5474,-3.5453,-3.5412,-3.5398,-3.5357,-3.5315,-3.53,-3.5293,-3.5285,-3.5239,-3.5185,-3.516,-3.5168,-3.5168,-3.5193,-3.5193,-3.5209,-3.5209,-3.5218,-3.5253,-3.5277,-3.5273,-3.5289,-3.5304,-3.5293,-3.5285,-3.5285,-3.5278,-3.527,-3.5281,-3.53,-3.5293,-3.5141,-3.5007,-3.47,-3.4032,-3.3353,-3.2561,-3.161,-3.0753,-3.0067,-2.9624,-2.9461,-2.9372,-2.9318,-4.0797,-4.0797,-4.0797,-4.0797,-4.0797,-4.0797,-4.0797,-4.0797,-4.0797,-4.0797,-4.0797,-4.0797,-4.0797,-4.0797,-4.0797,-4.0797,-4.0797,-4.0797,-4.0797,-4.0758,-4.0584,-4.0158,-3.9636,-3.9404,-3.857,-3.8059,-3.7251,-3.6424,-3.5974,-3.5849,-3.5775,-3.5784,-3.5791,-3.5792,-3.5792,-3.5838,-3.5891,-3.5891,-3.5895,-3.5895,-3.5891,-3.5864,-3.5842,-3.5799,-3.5786,-3.5769,-3.5732,-3.5699,-3.5684,-3.5697,-3.5632,-3.5604,-3.5575,-3.5584,-3.556,-3.5522,-3.5489,-3.55,-3.5481,-3.55,-3.55,-3.55,-3.55,-3.55,-3.55,-3.55,-3.55,-3.55,-3.55,-3.55,-3.55,-3.5481,-3.5441,-3.542,-3.5405,-3.5364,-3.533,-3.5364,-3.5357,-3.535,-3.5289,-3.5289,-3.5297,-3.5278,-3.5266,-3.5285,-3.5285,-3.5278,-3.5297,-3.5312,-3.5354,-3.5361,-3.5369,-3.5357,-3.5364,-3.5357,-3.5357,-3.535,-3.5342,-3.5342,-3.5327,-3.5339,-3.5316,-3.5146,-3.4898,-3.4613,-3.3985,-3.3098,-3.2061,-3.1242,-3.0537,-2.9982,-2.9521,-2.9451,-2.9359,-4.0797,-4.0797,-4.0797,-4.0797,-4.0797,-4.0797,-4.0797,-4.0797,-4.0797,-4.0797,-4.0797,-4.0797,-4.0797,-4.0797,-4.0797,-4.0797,-4.0797,-4.0797,-4.0797,-4.0797,-4.0777,-4.0584,-4.0216,-3.9752,-3.9209,-3.8903,-3.8144,-3.7332,-3.6649,-3.6042,-3.5793,-3.5799,-3.5795,-3.5811,-3.5849,-3.5876,-3.5888,-3.5891,-3.5897,-3.59,-3.5891,-3.5898,-3.5885,-3.5857,-3.5853,-3.583,-3.5778,-3.5765,-3.5727,-3.5713,-3.5688,-3.5637,-3.561,-3.5601,-3.5571,-3.5579,-3.5522,-3.5495,-3.5488,-3.5481,-3.55,-3.55,-3.55,-3.55,-3.55,-3.55,-3.55,-3.55,-3.55,-3.55,-3.55,-3.55,-3.5474,-3.546,-3.5453,-3.5427,-3.5412,-3.542,-3.5439,-3.5412,-3.5405,-3.5398,-3.5372,-3.533,-3.5323,-3.5315,-3.5315,-3.5308,-3.5327,-3.5342,-3.5391,-3.5439,-3.5439,-3.5446,-3.5427,-3.5427,-3.5427,-3.542,-3.542,-3.5412,-3.5364,-3.535,-3.5354,-3.5324,-3.5165,-3.4844,-3.4464,-3.373,-3.2777,-3.1882,-3.1026,-3.0434,-2.9851,-2.9453,-2.939,-4.0797,-4.0797,-4.0797,-4.0797,-4.0797,-4.0797,-4.0797,-4.0797,-4.0797,-4.0797,-4.0797,-4.0797,-4.0797,-4.0797,-4.0797,-4.0797,-4.0797,-4.0797,-4.0797,-4.0797,-4.0797,-4.0777,-4.0565,-4.0106,-3.9879,-3.9785,-3.9004,-3.8389,-3.7671,-3.6792,-3.611,-3.5827,-3.5822,-3.5836,-3.5876,-3.59,-3.5914,-3.5938,-3.5946,-3.5926,-3.5919,-3.5911,-3.5914,-3.5901,-3.5892,-3.5895,-3.5819,-3.5803,-3.5763,-3.5751,-3.5742,-3.5698,-3.5662,-3.5621,-3.5606,-3.5596,-3.5547,-3.5515,-3.5495,-3.5494,-3.5488,-3.55,-3.55,-3.55,-3.55,-3.55,-3.55,-3.55,-3.55,-3.55,-3.55,-3.55,-3.5481,-3.5481,-3.5481,-3.5481,-3.55,-3.5474,-3.5467,-3.546,-3.546,-3.5467,-3.5434,-3.5386,-3.5372,-3.5364,-3.5357,-3.5357,-3.5364,-3.5398,-3.542,-3.5467,-3.5467,-3.5467,-3.5467,-3.5474,-3.5481,-3.55,-3.55,-3.5474,-3.5427,-3.5412,-3.5398,-3.538,-3.5316,-3.5165,-3.4863,-3.4189,-3.3514,-3.2665,-3.1816,-3.0876,-3.0236,-2.9783,-2.9412,-4.0797,-4.0797,-4.0797,-4.0797,-4.0797,-4.0797,-4.0797,-4.0797,-4.0797,-4.0797,-4.0797,-4.0797,-4.0797,-4.0797,-4.0797,-4.0797,-4.0797,-4.0797,-4.0797,-4.0797,-4.0797,-4.0797,-4.0706,-4.0647,-4.0599,-4.0491,-3.9858,-3.9534,-3.9096,-3.7797,-3.6775,-3.5908,-3.5921,-3.5908,-3.5906,-3.5921,-3.5955,-3.5979,-3.5986,-3.5984,-3.5981,-3.5977,-3.5968,-3.5931,-3.5906,-3.5891,-3.5898,-3.5841,-3.5799,-3.5791,-3.5784,-3.5757,-3.5708,-3.5678,-3.5651,-3.5618,-3.5589,-3.5559,-3.5522,-3.5515,-3.5488,-3.55,-3.55,-3.55,-3.55,-3.55,-3.55,-3.55,-3.55,-3.55,-3.55,-3.55,-3.55,-3.55,-3.55,-3.55,-3.55,-3.55,-3.55,-3.55,-3.55,-3.55,-3.5481,-3.5434,-3.5427,-3.542,-3.5427,-3.542,-3.5427,-3.546,-3.5467,-3.55,-3.55,-3.55,-3.5481,-3.55,-3.55,-3.55,-3.55,-3.55,-3.5474,-3.546,-3.5446,-3.5398,-3.5335,-3.5304,-3.52,-3.4598,-3.3982,-3.3362,-3.258,-3.1657,-3.0763,-3.0179,-2.9754,-4.0797,-4.0797,-4.0797,-4.0797,-4.0797,-4.0797,-4.0797,-4.0797,-4.0797,-4.0797,-4.0797,-4.0797,-4.0797,-4.0797,-4.0797,-4.0797,-4.0797,-4.0797,-4.0797,-4.0797,-4.0797,-4.0797,-4.0803,-4.0808,-4.0773,-4.0749,-4.0465,-4.0078,-3.9531,-3.8813,-3.7879,-3.7017,-3.6339,-3.5925,-3.5904,-3.594,-3.5974,-3.6001,-3.6022,-3.602,-3.6013,-3.6013,-3.5988,-3.5975,-3.5924,-3.5894,-3.5894,-3.5856,-3.5856,-3.5853,-3.5803,-3.5778,-3.5747,-3.5718,-3.5683,-3.5651,-3.5629,-3.5595,-3.5565,-3.5534,-3.5495,-3.5488,-3.55,-3.55,-3.55,-3.55,-3.55,-3.55,-3.55,-3.55,-3.55,-3.55,-3.55,-3.55,-3.55,-3.55,-3.55,-3.55,-3.55,-3.55,-3.55,-3.55,-3.55,-3.5481,-3.5481,-3.5481,-3.5481,-3.55,-3.55,-3.55,-3.55,-3.55,-3.55,-3.55,-3.55,-3.55,-3.55,-3.55,-3.55,-3.55,-3.55,-3.55,-3.5467,-3.542,-3.5372,-3.5354,-3.5205,-3.4923,-3.444,-3.3859,-3.3192,-3.243,-3.1553,-3.0696,-3.0319,-4.0797,-4.0797,-4.0797,-4.0797,-4.0797,-4.0797,-4.0797,-4.0797,-4.0797,-4.0797,-4.0797,-4.0797,-4.0797,-4.0797,-4.0797,-4.0797,-4.0797,-4.0797,-4.0797,-4.0797,-4.0797,-4.0797,-4.0809,-4.0794,-4.0809,-4.0832,-4.0824,-4.0534,-4.0185,-3.9856,-3.9041,-3.8053,-3.7122,-3.6667,-3.5938,-3.5958,-3.601,-3.6014,-3.6017,-3.6016,-3.601,-3.6009,-3.602,-3.5992,-3.5962,-3.5912,-3.5897,-3.588,-3.5885,-3.5882,-3.5857,-3.583,-3.5786,-3.5756,-3.5718,-3.5683,-3.5676,-3.5623,-3.5595,-3.5547,-3.5489,-3.5488,-3.55,-3.55,-3.55,-3.55,-3.55,-3.55,-3.55,-3.55,-3.55,-3.55,-3.55,-3.55,-3.55,-3.55,-3.55,-3.55,-3.55,-3.55,-3.55,-3.55,-3.55,-3.55,-3.55,-3.55,-3.55,-3.55,-3.55,-3.55,-3.55,-3.55,-3.55,-3.55,-3.55,-3.55,-3.55,-3.55,-3.55,-3.55,-3.55,-3.55,-3.55,-3.546,-3.5432,-3.5376,-3.5255,-3.5085,-3.4773,-3.4393,-3.3719,-3.3024,-3.2231,-3.144,-3.1148,-4.0797,-4.0797,-4.0797,-4.0797,-4.0797,-4.0797,-4.0797,-4.0797,-4.0797,-4.0797,-4.0797,-4.0797,-4.0797,-4.0797,-4.0797,-4.0797,-4.0797,-4.0797,-4.0797,-4.0797,-4.0797,-4.0797,-4.0796,-4.0806,-4.0801,-4.0818,-4.0854,-4.0878,-4.0835,-4.0245,-3.973,-3.9279,-3.8368,-3.7429,-3.6146,-3.5994,-3.6003,-3.6004,-3.6008,-3.6006,-3.6003,-3.6021,-3.6013,-3.6006,-3.5995,-3.5947,-3.5914,-3.5897,-3.5883,-3.5891,-3.5889,-3.5861,-3.5811,-3.5795,-3.5756,-3.5703,-3.5707,-3.5676,-3.5606,-3.5547,-3.5522,-3.5494,-3.5494,-3.55,-3.55,-3.55,-3.55,-3.55,-3.55,-3.55,-3.55,-3.55,-3.55,-3.55,-3.55,-3.55,-3.55,-3.55,-3.55,-3.55,-3.55,-3.55,-3.55,-3.55,-3.55,-3.55,-3.55,-3.55,-3.55,-3.55,-3.55,-3.55,-3.55,-3.55,-3.55,-3.55,-3.55,-3.55,-3.55,-3.55,-3.55,-3.55,-3.55,-3.5493,-3.5472,-3.5424,-3.5376,-3.532,-3.5012,-3.4721,-3.4239,-3.359,-3.2805,-3.224,-3.1977,-4.0797,-4.0797,-4.0797,-4.0797,-4.0797,-4.0797,-4.0797,-4.0797,-4.0797,-4.0797,-4.0797,-4.0797,-4.0797,-4.0797,-4.0797,-4.0797,-4.0797,-4.0797,-4.0797,-4.0797,-4.0797,-4.0797,-4.0796,-4.0812,-4.0807,-4.0823,-4.0883,-4.095,-4.0949,-4.0564,-4.0192,-3.9742,-3.9048,-3.7954,-3.6968,-3.6433,-3.6005,-3.6009,-3.601,-3.601,-3.6028,-3.6026,-3.6002,-3.6016,-3.6007,-3.5995,-3.5949,-3.5914,-3.5902,-3.5892,-3.5894,-3.5872,-3.5849,-3.583,-3.5786,-3.5747,-3.5747,-3.5681,-3.5623,-3.5558,-3.5547,-3.5522,-3.5501,-3.5488,-3.55,-3.55,-3.55,-3.55,-3.55,-3.55,-3.55,-3.55,-3.55,-3.55,-3.55,-3.55,-3.55,-3.55,-3.55,-3.55,-3.55,-3.55,-3.55,-3.55,-3.55,-3.55,-3.55,-3.55,-3.55,-3.55,-3.55,-3.55,-3.55,-3.55,-3.55,-3.55,-3.55,-3.55,-3.55,-3.55,-3.55,-3.55,-3.55,-3.55,-3.5486,-3.5453,-3.5417,-3.5354,-3.5308,-3.5037,-3.4632,-3.4213,-3.359,-3.3136,-3.2873,-4.0797,-4.0797,-4.0797,-4.0797,-4.0797,-4.0797,-4.0797,-4.0797,-4.0797,-4.0797,-4.0797,-4.0797,-4.0797,-4.0797,-4.0797,-4.0797,-4.0797,-4.0797,-4.0797,-4.0797,-4.0797,-4.0797,-4.0796,-4.0798,-4.0801,-4.0823,-4.0883,-4.093,-4.0992,-4.0996,-4.074,-4.0223,-3.9433,-3.8864,-3.8112,-3.755,-3.7044,-3.7008,-3.6892,-3.656,-3.6442,-3.6263,-3.6026,-3.6021,-3.6013,-3.6002,-3.5997,-3.5968,-3.5916,-3.5907,-3.5894,-3.5897,-3.5879,-3.5859,-3.5819,-3.5791,-3.5752,-3.5697,-3.5646,-3.5606,-3.5577,-3.5547,-3.5515,-3.5501,-3.5488,-3.55,-3.55,-3.55,-3.55,-3.55,-3.55,-3.55,-3.55,-3.55,-3.55,-3.55,-3.55,-3.55,-3.55,-3.55,-3.55,-3.55,-3.55,-3.55,-3.55,-3.55,-3.55,-3.55,-3.55,-3.55,-3.55,-3.55,-3.55,-3.55,-3.55,-3.55,-3.55,-3.55,-3.55,-3.55,-3.55,-3.55,-3.55,-3.55,-3.5493,-3.546,-3.5424,-3.5369,-3.5339,-3.5293,-3.5122,-3.4725,-3.4288,-3.4015,-3.3732,-4.0797,-4.0797,-4.0797,-4.0797,-4.0797,-4.0797,-4.0797,-4.0797,-4.0797,-4.0797,-4.0797,-4.0797,-4.0797,-4.0797,-4.0797,-4.0797,-4.0797,-4.0797,-4.0797,-4.0797,-4.0797,-4.0797,-4.0796,-4.0798,-4.0807,-4.0828,-4.0869,-4.0939,-4.0992,-4.1018,-4.0994,-4.0877,-4.0226,-3.9848,-3.9464,-3.9076,-3.8512,-3.8065,-3.7636,-3.7382,-3.7245,-3.6755,-3.6478,-3.6376,-3.6292,-3.6145,-3.6082,-3.5997,-3.5949,-3.5919,-3.589,-3.5892,-3.59,-3.5888,-3.5852,-3.5803,-3.5752,-3.5708,-3.5672,-3.5635,-3.5612,-3.5583,-3.554,-3.5515,-3.5501,-3.5488,-3.55,-3.55,-3.55,-3.55,-3.55,-3.55,-3.55,-3.55,-3.55,-3.55,-3.55,-3.55,-3.55,-3.55,-3.55,-3.55,-3.55,-3.55,-3.55,-3.55,-3.55,-3.55,-3.55,-3.55,-3.55,-3.55,-3.55,-3.55,-3.55,-3.55,-3.55,-3.55,-3.55,-3.55,-3.55,-3.55,-3.55,-3.55,-3.55,-3.5467,-3.5446,-3.5405,-3.5364,-3.532,-3.5281,-3.5133,-3.4698,-3.4788,-3.4639,-4.0797,-4.0797,-4.0797,-4.0797,-4.0797,-4.0797,-4.0797,-4.0797,-4.0797,-4.0797,-4.0797,-4.0797,-4.0797,-4.0797,-4.0797,-4.0797,-4.0797,-4.0797,-4.0797,-4.0797,-4.0797,-4.0809,-4.0794,-4.0804,-4.0832,-4.0888,-4.0927,-4.0967,-4.1003,-4.1036,-4.107,-4.1001,-4.0777,-4.0711,-4.0599,-4.0485,-3.9667,-3.8945,-3.8437,-3.8281,-3.8184,-3.7811,-3.7419,-3.7063,-3.6922,-3.67,-3.6243,-3.612,-3.6073,-3.5972,-3.5919,-3.5902,-3.588,-3.5897,-3.5862,-3.5807,-3.5769,-3.5751,-3.5718,-3.5692,-3.5651,-3.5612,-3.559,-3.5554,-3.5515,-3.5508,-3.5488,-3.55,-3.55,-3.55,-3.55,-3.55,-3.55,-3.55,-3.55,-3.55,-3.55,-3.55,-3.55,-3.55,-3.55,-3.55,-3.55,-3.55,-3.55,-3.55,-3.55,-3.55,-3.55,-3.55,-3.55,-3.55,-3.55,-3.55,-3.55,-3.55,-3.55,-3.55,-3.55,-3.55,-3.55,-3.55,-3.55,-3.55,-3.55,-3.55,-3.5486,-3.5446,-3.5405,-3.5372,-3.5327,-3.5273,-3.5209,-3.5187,-3.5147,-4.0797,-4.0797,-4.0797,-4.0797,-4.0797,-4.0797,-4.0797,-4.0797,-4.0797,-4.0797,-4.0797,-4.0797,-4.0797,-4.0797,-4.0797,-4.0797,-4.0797,-4.0797,-4.0797,-4.0797,-4.0797,-4.0796,-4.08,-4.0815,-4.0818,-4.0898,-4.0956,-4.0975,-4.1015,-4.1061,-4.1115,-4.1107,-4.1112,-4.1102,-4.1049,-4.0916,-4.0605,-3.9902,-3.9375,-3.918,-3.9043,-3.8847,-3.8259,-3.7964,-3.7823,-3.7309,-3.6657,-3.6515,-3.6355,-3.6098,-3.5966,-3.5938,-3.5909,-3.5883,-3.5882,-3.5834,-3.5822,-3.5778,-3.5742,-3.5703,-3.5672,-3.564,-3.562,-3.5584,-3.5541,-3.5521,-3.5501,-3.55,-3.55,-3.55,-3.55,-3.55,-3.55,-3.55,-3.55,-3.55,-3.55,-3.55,-3.55,-3.55,-3.55,-3.55,-3.55,-3.55,-3.55,-3.55,-3.55,-3.55,-3.55,-3.55,-3.55,-3.55,-3.55,-3.55,-3.55,-3.55,-3.55,-3.55,-3.55,-3.55,-3.55,-3.55,-3.55,-3.55,-3.55,-3.55,-3.5493,-3.5467,-3.5446,-3.5412,-3.5398,-3.5335,-3.5289,-3.5261,-3.5204,-4.0797,-4.0797,-4.0797,-4.0797,-4.0797,-4.0797,-4.0797,-4.0797,-4.0797,-4.0797,-4.0797,-4.0797,-4.0797,-4.0797,-4.0797,-4.0797,-4.0797,-4.0797,-4.0797,-4.0797,-4.0797,-4.0796,-4.0806,-4.0809,-4.0823,-4.0878,-4.0945,-4.0992,-4.1041,-4.1087,-4.11,-4.1115,-4.1099,-4.1107,-4.1108,-4.1171,-4.0957,-4.0762,-4.0273,-4.0,-3.9805,-3.9335,-3.8767,-3.8724,-3.8604,-3.8306,-3.7636,-3.7222,-3.6947,-3.6414,-3.6017,-3.5988,-3.5929,-3.5892,-3.5894,-3.5892,-3.5857,-3.5826,-3.5773,-3.5737,-3.5703,-3.5672,-3.564,-3.5614,-3.5566,-3.5515,-3.5489,-3.5488,-3.55,-3.55,-3.55,-3.55,-3.55,-3.55,-3.55,-3.55,-3.55,-3.55,-3.55,-3.55,-3.55,-3.55,-3.55,-3.55,-3.55,-3.55,-3.55,-3.55,-3.55,-3.55,-3.55,-3.55,-3.55,-3.55,-3.55,-3.55,-3.55,-3.55,-3.55,-3.55,-3.55,-3.55,-3.55,-3.55,-3.55,-3.55,-3.55,-3.5474,-3.5467,-3.5467,-3.5453,-3.5412,-3.5376,-3.535,-3.5296,-4.0797,-4.0797,-4.0797,-4.0797,-4.0797,-4.0797,-4.0797,-4.0797,-4.0797,-4.0797,-4.0797,-4.0797,-4.0797,-4.0797,-4.0797,-4.0797,-4.0797,-4.0797,-4.0797,-4.0797,-4.0797,-4.0808,-4.0804,-4.0801,-4.0833,-4.0883,-4.0948,-4.103,-4.1071,-4.1103,-4.1103,-4.1117,-4.1099,-4.1107,-4.1108,-4.1172,-4.1191,-4.1172,-4.0976,-4.0742,-4.0644,-4.0625,-4.037,-3.9879,-3.9503,-3.9109,-3.8419,-3.7672,-3.7378,-3.6967,-3.6295,-3.6048,-3.5909,-3.5902,-3.5889,-3.5888,-3.5882,-3.5853,-3.5818,-3.5784,-3.5752,-3.5693,-3.5657,-3.5631,-3.5584,-3.5522,-3.5483,-3.5501,-3.55,-3.55,-3.55,-3.55,-3.55,-3.55,-3.55,-3.55,-3.55,-3.55,-3.55,-3.55,-3.55,-3.55,-3.55,-3.55,-3.55,-3.55,-3.55,-3.55,-3.55,-3.55,-3.55,-3.55,-3.55,-3.55,-3.55,-3.55,-3.55,-3.55,-3.55,-3.55,-3.55,-3.55,-3.55,-3.55,-3.55,-3.55,-3.55,-3.55,-3.55,-3.55,-3.5493,-3.5453,-3.542,-3.5403,-3.535,-4.0797,-4.0797,-4.0797,-4.0797,-4.0797,-4.0797,-4.0797,-4.0797,-4.0797,-4.0797,-4.0797,-4.0797,-4.0797,-4.0797,-4.0797,-4.0797,-4.0797,-4.0797,-4.0797,-4.0797,-4.0803,-4.0794,-4.0804,-4.0812,-4.0844,-4.0888,-4.0975,-4.1045,-4.1095,-4.1111,-4.1103,-4.1104,-4.1102,-4.1108,-4.111,-4.1172,-4.1191,-4.1191,-4.1191,-4.1191,-4.1191,-4.1113,-4.1016,-4.0505,-4.0306,-3.9912,-3.936,-3.8573,-3.8024,-3.7339,-3.6455,-3.6073,-3.594,-3.5912,-3.5899,-3.588,-3.5882,-3.5882,-3.585,-3.5814,-3.5775,-3.5713,-3.5683,-3.566,-3.5589,-3.5547,-3.5534,-3.5527,-3.5507,-3.55,-3.55,-3.55,-3.55,-3.55,-3.55,-3.55,-3.55,-3.55,-3.55,-3.55,-3.55,-3.55,-3.55,-3.55,-3.55,-3.55,-3.55,-3.55,-3.55,-3.55,-3.55,-3.55,-3.55,-3.55,-3.55,-3.55,-3.55,-3.55,-3.55,-3.55,-3.55,-3.55,-3.55,-3.55,-3.55,-3.55,-3.55,-3.55,-3.55,-3.55,-3.55,-3.5493,-3.546,-3.5446,-3.541,-4.0797,-4.0797,-4.0797,-4.0797,-4.0797,-4.0797,-4.0797,-4.0797,-4.0797,-4.0797,-4.0797,-4.0797,-4.0797,-4.0797,-4.0797,-4.0797,-4.0797,-4.0797,-4.0797,-4.0797,-4.0803,-4.08,-4.0815,-4.0798,-4.0859,-4.0917,-4.098,-4.1039,-4.1111,-4.1115,-4.1109,-4.1115,-4.1104,-4.1108,-4.1131,-4.1172,-4.1191,-4.1191,-4.1191,-4.1191,-4.1191,-4.1191,-4.1113,-4.1092,-4.105,-4.0734,-4.0261,-3.963,-3.8864,-3.7983,-3.6905,-3.6292,-3.6027,-3.5958,-3.5926,-3.5911,-3.5894,-3.5895,-3.5875,-3.5823,-3.5778,-3.5737,-3.5708,-3.5667,-3.5618,-3.559,-3.5579,-3.554,-3.5501,-3.5481,-3.5481,-3.55,-3.55,-3.55,-3.55,-3.55,-3.55,-3.55,-3.55,-3.55,-3.55,-3.55,-3.55,-3.55,-3.55,-3.55,-3.55,-3.55,-3.55,-3.55,-3.55,-3.55,-3.55,-3.55,-3.55,-3.55,-3.55,-3.55,-3.55,-3.55,-3.55,-3.55,-3.55,-3.55,-3.55,-3.55,-3.55,-3.55,-3.55,-3.55,-3.55,-3.55,-3.5493,-3.5467,-3.546,-4.0797,-4.0797,-4.0797,-4.0797,-4.0797,-4.0797,-4.0797,-4.0797,-4.0797,-4.0797,-4.0797,-4.0797,-4.0797,-4.0797,-4.0797,-4.0797,-4.0797,-4.0797,-4.0797,-4.0797,-4.0796,-4.0812,-4.0826,-4.0863,-4.0903,-4.0963,-4.1,-4.1039,-4.1108,-4.1115,-4.1113,-4.1099,-4.1105,-4.1109,-4.1112,-4.1152,-4.1191,-4.1191,-4.1191,-4.1191,-4.1191,-4.1191,-4.1152,-4.1131,-4.109,-4.1008,-4.0728,-4.0156,-3.9723,-3.8979,-3.7846,-3.6825,-3.6309,-3.6046,-3.5958,-3.5902,-3.5883,-3.5885,-3.5866,-3.5841,-3.5799,-3.5747,-3.5718,-3.5688,-3.5635,-3.5602,-3.5579,-3.5541,-3.5521,-3.5494,-3.5488,-3.5481,-3.55,-3.55,-3.55,-3.55,-3.55,-3.55,-3.55,-3.55,-3.55,-3.55,-3.55,-3.55,-3.55,-3.55,-3.55,-3.55,-3.55,-3.55,-3.55,-3.55,-3.55,-3.55,-3.55,-3.55,-3.55,-3.55,-3.55,-3.55,-3.55,-3.55,-3.55,-3.55,-3.55,-3.55,-3.55,-3.55,-3.55,-3.55,-3.55,-3.55,-3.55,-3.5481,-3.5474]},{"header":{"parameterUnit":"m.s-1","parameterCategory":1,"la1":31.0,"la2":29.5877,"lo1":-88.7671,"lo2":-86.6584,"dy":0.0162,"dx":0.0185,"nx":115,"ny":88,"refTime":"2024-07-19T00:00:00:Z","depth":0,"parameterNumber":3,"parameterNumberName":"V-component_of_WINDS"},"data":[0.0,0.0,0.0,0.0,0.0,0.0,0.0,0.0,0.0,0.0,0.0,0.0,0.0,0.0,0.0,0.0,0.0,0.0,0.0,0.0,0.0,0.0,0.0,0.0,0.0,0.0,0.0,0.0,0.0,0.0,0.0,0.0,0.0,0.0,0.0,0.0,0.0,0.0,0.0,0.0,0.0,0.0,0.0,0.0,0.0,0.0,0.0,0.0,0.0,0.0,0.0,0.0,0.0,0.0,0.0,0.0,0.0,0.0,0.0,0.0,0.0,0.0,0.0,0.0,0.0,0.0,0.0,0.0,0.0,0.0,0.0,0.0,0.0,0.0,0.0,0.0,0.0,0.0,0.0,0.0,0.0,0.0,0.0,0.0,0.0,0.0,0.0,0.0,0.0,0.0,0.0,0.0,0.0,0.0,0.0,0.0,0.0,0.0,0.0,0.0,0.0,0.0,0.0,0.0,0.0,0.0,0.0,0.0,0.0,0.0,0.0,0.0,0.0,0.0,0.0,0.0,0.0,0.0,0.0,0.0,0.0,0.0,0.0,0.0,0.0,0.0,0.0,0.0,0.0,0.0,0.0,0.0,0.0,0.0,0.0,0.0,0.0,0.0,0.0,0.0,0.0,0.0,0.0,0.0,0.0,0.0,0.0,0.0,0.0,0.0,0.0,0.0,0.0,0.0,0.0,0.0,0.0,0.0,0.0,0.0,0.0,0.0,0.0,0.0,0.0,0.0,0.0,0.0,0.0,0.0,0.0,0.0,0.0,0.0,0.0,0.0,0.0,0.0,0.0,0.0,0.0,0.0,0.0,0.0,0.0,0.0,0.0,0.0,0.0,0.0,0.0,0.0,0.0,0.0,0.0,0.0,0.0,0.0,0.0,0.0,0.0,0.0,0.0,0.0,0.0,0.0,0.0,0.0,0.0,0.0,0.0,0.0,0.0,0.0,0.0,0.0,0.0,0.0,0.0,0.0,0.0,0.0,0.0,0.0,0.0,0.0,0.0,0.0,0.0,0.0,0.0,0.0,0.0,0.0,0.0,0.0,0.0,0.0,0.0,0.0,0.0,0.0,0.0,0.0,0.0,0.0,0.0,0.0,0.0,0.0,0.0,0.0,0.0,0.0,0.0,0.0,0.0,0.0,0.0,0.0,0.0,0.0,0.0,0.0,0.0,0.0,0.0,0.0,0.0,0.0,0.0,0.0,0.0,0.0,0.0,0.0,0.0,0.0,0.0,0.0,0.0,0.0,0.0,0.0,0.0,0.0,0.0,0.0,0.0,0.0,0.0,0.0,0.0,0.0,0.0,0.0,0.0,0.0,0.0,0.0,0.0,0.0,0.0,0.0,0.0,0.0,0.0,0.0,0.0,0.0,0.0,0.0,0.0,0.0,0.0,0.0,0.0,0.0,0.0,0.0,0.0,0.0,0.0,0.0,0.0,0.0,0.0,0.0,0.0,0.0,0.0,0.0,0.0,0.0,0.0,0.0,0.0,0.0,0.0,0.0,0.0,0.0,0.0,0.0,0.0,0.0,0.0,0.0,0.0,0.0,0.0,0.0,0.0,0.0,0.0,0.0,0.0,0.0,0.0,0.0,0.0,0.0,0.0,0.0,0.0,0.0,0.0,0.0,0.0,0.0,0.0,0.0,0.0,0.0,0.0,0.0,0.0,0.0,0.0,0.0,0.0,0.0,0.0,0.0,0.0,0.0,0.0,0.0,0.0,0.0,0.0,0.0,0.0,0.0,0.0,0.0,0.0,0.0,0.0,0.0,0.0,0.0,0.0,0.0,0.0,0.0,0.0,0.0,0.0,0.0,0.0,0.0,0.0,0.0,0.0,0.0,0.0,0.0,0.0,0.0,0.0,0.0,0.0,0.0,0.0,0.0,0.0,0.0,0.0,0.0,0.0,0.0,0.0,0.0,0.0,0.0,0.0,0.0,0.0,0.0,0.0,0.0,0.0,0.0,0.0,0.0,0.0,0.0,0.0,0.0,0.0,0.0,0.0,0.0,0.0,0.0,0.0,0.0,0.0,0.0,0.0,0.0,0.0,0.0,0.0,0.0,0.0,0.0,0.0,0.0,0.0,0.0,0.0,0.0,0.0,0.0,0.0,0.0,0.0,0.0,0.0,0.0,0.0,0.0,0.0,0.0,0.0,0.0,0.0,0.0,0.0,0.0,0.0,0.0,0.0,0.0,0.0,0.0,0.0,0.0,0.0,0.0,0.0,0.0,0.0,0.0,0.0,0.0,0.0,0.0,0.0,0.0,0.0,0.0,0.0,0.0,0.0,0.0,0.0,0.0,0.0,0.0,0.0,0.0,0.0,0.0,0.0,0.0,0.0,0.0,0.0,0.0,0.0,0.0,0.0,0.0,0.0,0.0,0.0,0.0,0.0,0.0,0.0,0.0,0.0,0.0,0.0,0.0,0.0,0.0,0.0,0.0,0.0,0.0,0.0,0.0,0.0,0.0,0.0,0.0,0.0,0.0,0.0,0.0,0.0,0.0,0.0,0.0,0.0,0.0,0.0,0.0,0.0,0.0,0.0,0.0,0.0,0.0,0.0,0.0,0.0,0.0,0.0,0.0,0.0,0.0,0.0,0.0,0.0,0.0,0.0,0.0,0.0,0.0,0.0,0.0,0.0,0.0,0.0,0.0,0.0,0.0,0.0,0.0,0.0,0.0,0.0,0.0,0.0,0.0,0.0,0.0,0.0,0.0,0.0,0.0,0.0,0.0,0.0,0.0,0.0,0.0,0.0,0.0,0.0,0.0,0.0,0.0,0.0,0.0,0.0,0.0,0.0,0.0,0.0,0.0,0.0,0.0,0.0,0.0,0.0,0.0,0.0,0.0,0.0,0.0,0.0,0.0,0.0,0.0,0.0,0.0,0.0,0.0,0.0,0.0,0.0,0.0,0.0,0.0,0.0,0.0,0.0,0.0,0.0,0.0,0.0,0.0,0.0,0.0,0.0,0.0,0.0,0.0,0.0,0.0,0.0,0.0,0.0,0.0,0.0,0.0,0.0,0.0,0.0,0.0,0.0,0.0,0.0,0.0,0.0,0.0,0.0,0.0,0.0,0.0,0.0,0.0,0.0,0.0,0.0,0.0,0.0,0.0,0.0,0.0,0.0,0.0,0.0,0.0,0.0,0.0,0.0,0.0,0.0,0.0,0.0,0.0,0.0,0.0,0.0,0.0,0.0,0.0,0.0,0.0,0.0,0.0,0.0,0.0,0.0,0.0,0.0,0.0,0.0,0.0,0.0,0.0,0.0,0.0,0.0,0.0,0.0,0.0,0.0,0.0,0.0,0.0,0.0,0.0,0.0,0.0,0.0,0.0,0.0,0.0,0.0,0.0,0.0,0.0,0.0,0.0,0.0,0.0,0.0,0.0,0.0,0.0,0.0,0.0,0.0,0.0,0.0,0.0,0.0,0.0,0.0,0.0,0.0,0.0,0.0,0.0,0.0,0.0,0.0,0.0,0.0,0.0,0.0,0.0,0.0,0.0,0.0,0.0,0.0,0.0,0.0,0.0,0.0,0.0,0.0,0.0,0.0,0.0,0.0,0.0,0.0,0.0,0.0,0.0,0.0,0.0,0.0,0.0,0.0,0.0,0.0,0.0,0.0,0.0,0.0,0.0,0.0,0.0,0.0,0.0,0.0,0.0,0.0,0.0,0.0,0.0,0.0,0.0,0.0,0.0,0.0,0.0,0.0,0.0,0.0,0.0,0.0,0.0,0.0,0.0,0.0,0.0,0.0,0.0,0.0,0.0,0.0,0.0,0.0,0.0,0.0,0.0,0.0,0.0,0.0,0.0,0.0,0.0,0.0,0.0,0.0,0.0,0.0,0.0,0.0,0.0,0.0,0.0,0.0,0.0,0.0,0.0,0.0,0.0,0.0,0.0,0.0,0.0,0.0,0.0,0.0,0.0,0.0,0.0,0.0,0.0,0.0,0.0,0.0,0.0,0.0,0.0,0.0,0.0,0.0,0.0,0.0,0.0,0.0,0.0,0.0,0.0,0.0,0.0,0.0,0.0,0.0,0.0,0.0,0.0,0.0,0.0,0.0,0.0,0.0,0.0,0.0,0.0,0.0,0.0,0.0,0.0,0.0,0.0,0.0,0.0,0.0,0.0,0.0,0.0,0.0,0.0,0.0,0.0,0.0,0.0,0.0,0.0,0.0,0.0,0.0,0.0,0.0,0.0,0.0,0.0,0.0,0.0,0.0,0.0,0.0,0.0,0.0,0.0,0.0,0.0,0.0,0.0,0.0,0.0,-0.088,0.0,0.0,0.0,0.0,0.0,0.0,0.0,0.0,0.0,0.0,0.0,0.0,0.0,0.0,0.0,0.0,0.0,0.0,0.0,0.0,0.0,0.0,0.0,0.0,0.0,0.0,0.0,0.0,0.0,0.0,0.0,0.0,0.0,0.0,0.0,0.0,0.0,0.0,0.0,0.0,0.0,0.0,0.0,0.0,0.0,0.0,0.0,0.0,0.0,0.0,0.0,0.0,0.0,0.0,0.0,0.0,0.0,0.0,0.0,0.0,0.0,0.0,0.0,0.0,0.0,0.0,0.0,0.0,0.0,0.0,0.0,0.0,0.0,0.0,0.0,0.0,0.0,0.0,0.0,0.0,0.0,0.0,0.0,0.0,0.0,0.0,0.0,0.0,0.0,0.0,0.0,0.0,0.0,0.0,0.0,0.0,0.0,0.0,0.0,0.0,0.0,0.0,0.0,0.0,0.0,0.0,0.0,0.0,0.0,0.0,-0.1249,-0.1116,-0.109,-0.1074,-0.1054,0.0,0.0,0.0,0.0,0.0,0.0,0.0,0.0,0.0,0.0,0.0,0.0,0.0,0.0,0.0,0.0,0.0,0.0,0.0,0.0,0.0,0.0,0.0,0.0,0.0,0.0,0.0,0.0,0.0,0.0,0.0,0.0,0.0,0.0,0.0,0.0,0.0,0.0,0.0,0.0,0.0,0.0,0.0,0.0,0.0,0.0,0.0,0.0,0.0,0.0,0.0,0.0,0.0,0.0,0.0,0.0,0.0,0.0,0.0,0.0,0.0,0.0,0.0,0.0,0.0,0.0,0.0,0.0,0.0,0.0,0.0,0.0,0.0,0.0,0.0,0.0,0.0,0.0,0.0,0.0,0.0,0.0,0.0,0.0,0.0,0.0,0.0,0.0,0.0,0.0,0.0,0.0,0.0,0.0,0.0,0.0,0.0,0.0,0.0,0.0,0.0,0.0,0.0,0.0,0.0,0.0,0.0,0.0,0.0,0.0,0.0,0.0,-0.1419,-0.1329,-0.1219,0.0,0.0,0.0,0.0,0.0,0.0,0.0,0.0,0.0,0.0,0.0,0.0,0.0,0.0,0.0,0.0,0.0,0.0,0.0,0.0,0.0,0.0,0.0,0.0,0.0,0.0,0.0,0.0,0.0,0.0,0.0,0.0,0.0,0.0,0.0,0.0,0.0,0.0,0.0,0.0,0.0,0.0,0.0,0.0,0.0,0.0,0.0,0.0,0.0,0.0,0.0,0.0,0.0,0.0,0.0,0.0,0.0,0.0,0.0,0.0,0.0,0.0,0.0,0.0,0.0,0.0,0.0,0.0,0.0,0.0,0.0,0.0,0.0,0.0,0.0,0.0,0.0,0.0,0.0,0.0,0.0,0.0,0.0,0.0,0.0,0.0,0.0,0.0,0.0,0.0,0.0,0.0,0.0,0.0,0.0,0.0,0.0,0.0,0.0,0.0,0.0,0.0,0.0,0.0,0.0,0.0,0.0,0.0,0.0,0.0,-0.1835,-0.1763,-0.1639,0.0,-0.1294,0.0,0.0,0.0,0.0,0.0,0.0,0.0,0.0,0.0,0.0,0.0,0.0,0.0,0.0,0.0,0.0,0.0,0.0,0.0,0.0,0.0,0.0,0.0,0.0,0.0,0.0,0.0,0.0,0.0,0.0,0.0,0.0,0.0,0.0,0.0,0.0,0.0,0.0,0.0,0.0,0.0,0.0,0.0,0.0,0.0,0.0,0.0,0.0,0.0,0.0,0.0,0.0,0.0,0.0,0.0,0.0,0.0,0.0,0.0,0.0,0.0,0.0,0.0,0.0,0.0,0.0,0.0,0.0,0.0,0.0,0.0,0.0,0.0,0.0,0.0,0.0,0.0,0.0,0.0,0.0,0.0,0.0,0.0,0.0,0.0,0.0,0.0,0.0,0.0,0.0,0.0,0.0,0.0,0.0,0.0,0.0,0.0,0.0,0.0,0.0,0.0,0.0,0.0,0.0,0.0,0.0,0.0,0.0,0.0,0.0,0.0,-0.2099,-0.1815,-0.1591,0.0,0.0,0.0,0.0,0.0,0.0,0.0,0.0,0.0,0.0,0.0,0.0,0.0,0.0,0.0,0.0,0.0,0.0,0.0,0.0,0.0,0.0,0.0,0.0,0.0,0.0,0.0,0.0,0.0,0.0,0.0,0.0,0.0,0.0,0.0,0.0,0.0,0.0,0.0,0.0,0.0,0.0,0.0,0.0,0.0,0.0,0.0,0.0,0.0,0.0,0.0,0.0,0.0,0.0,0.0,0.0,0.0,0.0,0.0,0.0,0.0,0.0,0.0,0.0,0.0,0.0,0.0,0.0,0.0,0.0,0.0,0.0,0.0,0.0,0.0,0.0,0.0,0.0,0.0,0.0,0.0,0.0,0.0,0.0,0.0,0.0,0.0,0.0,0.0,0.0,0.0,0.0,0.0,0.0,0.0,0.0,0.0,0.0,0.0,0.0,0.0,0.0,0.0,0.0,0.0,0.0,0.0,0.0,0.0,0.0,-0.2568,0.0,-0.2399,-0.2013,-0.1756,-0.1621,0.0,0.0,0.0,0.0,0.0,0.0,0.0,0.0,0.0,0.0,0.0,0.0,0.0,0.0,0.0,0.0,0.0,0.0,0.0,0.0,0.0,0.0,0.0,0.0,0.0,0.0,0.0,0.0,0.0,0.0,0.0,0.0,0.0,0.0,0.0,0.0,0.0,0.0,0.0,0.0,0.0,0.0,0.0,0.0,0.0,0.0,0.0,0.0,0.0,0.0,0.0,0.0,0.0,0.0,0.0,0.0,0.0,0.0,0.0,0.0,0.0,0.0,0.0,0.0,0.0,0.0,0.0,0.0,0.0,0.0,0.0,0.0,0.0,0.0,0.0,0.0,0.0,0.0,0.0,0.0,0.0,0.0,0.0,0.0,0.0,0.0,0.0,0.0,0.0,0.0,0.0,0.0,0.0,0.0,0.0,0.0,0.0,0.0,0.0,0.0,0.0,0.0,0.0,0.0,0.0,0.0,0.0,0.0,0.0,-0.2898,-0.2874,-0.2682,-0.2304,-0.2036,0.0,0.0,0.0,0.0,0.0,0.0,0.0,0.0,0.0,0.0,0.0,0.0,0.0,0.0,0.0,0.0,0.0,0.0,0.0,0.0,0.0,0.0,0.0,0.0,0.0,0.0,0.0,0.0,0.0,0.0,0.0,0.0,0.0,0.0,0.0,0.0,0.0,0.0,0.0,0.0,0.0,0.0,0.0,0.0,0.0,0.0,0.0,0.0,0.0,0.0,0.0,0.0,0.0,0.0,0.0,0.0,0.0,0.0,0.0,0.0,0.0,0.0,0.0,0.0,0.0,0.0,0.0,0.0,0.0,0.0,0.0,0.0,0.0,0.0,0.0,0.0,0.0,0.0,0.0,0.0,0.0,0.0,0.0,0.0,0.0,0.0,0.0,0.0,0.0,0.0,0.0,0.0,0.0,0.0,0.0,0.0,0.0,0.0,0.0,0.0,0.0,0.0,0.0,0.0,0.0,0.0,0.0,0.0,0.0,-0.305,-0.3098,-0.3059,-0.2898,-0.2621,-0.2402,0.0,0.0,0.0,0.0,0.0,0.0,0.0,0.0,0.0,0.0,0.0,0.0,0.0,0.0,0.0,0.0,0.0,0.0,0.0,0.0,0.0,0.0,0.0,0.0,0.0,0.0,0.0,0.0,0.0,0.0,0.0,0.0,0.0,0.0,0.0,0.0,0.0,0.0,0.0,0.0,0.0,0.0,0.0,0.0,0.0,0.0,0.0,0.0,0.0,0.0,0.0,0.0,0.0,0.0,0.0,0.0,0.0,0.0,0.0,0.0,0.0,0.0,0.0,0.0,0.0,0.0,0.0,0.0,0.0,0.0,0.0,0.0,0.0,0.0,0.0,0.0,0.0,0.0,0.0,0.0,0.0,0.0,0.0,0.0,0.0,0.0,0.0,0.0,0.0,0.0,0.0,0.0,0.0,0.0,0.0,0.0,0.0,0.0,0.0,0.0,0.0,0.0,0.0,0.0,0.0,0.0,0.0,0.0,0.0,-0.331,0.0,-0.3214,0.0,-0.2913,-0.2704,0.0,0.0,0.0,0.0,0.0,0.0,0.0,0.0,0.0,0.0,0.0,0.0,0.0,0.0,0.0,0.0,0.0,0.0,0.0,0.0,0.0,0.0,0.0,0.0,0.0,0.0,0.0,0.0,0.0,0.0,0.0,0.0,0.0,0.0,0.0,0.0,0.0,0.0,0.0,0.0,0.0,0.0,0.0,0.0,0.0,0.0,0.0,0.0,0.0,0.0,0.0,0.0,0.0,0.0,0.0,0.0,0.0,0.0,0.0,0.0,0.0,0.0,0.0,0.0,0.0,0.0,0.0,0.0,0.0,0.0,0.0,0.0,0.0,0.0,0.0,0.0,0.0,0.0,0.0,0.0,0.0,0.0,0.0,0.0,0.0,0.0,0.0,0.0,0.0,0.0,0.0,0.0,0.0,0.0,0.0,0.0,0.0,0.0,0.0,0.0,0.0,0.0,0.0,0.0,0.0,0.0,0.0,0.0,-0.328,-0.3583,-0.3464,-0.3398,-0.3391,-0.3132,-0.2914,0.0,0.0,0.0,0.0,0.0,0.0,0.0,0.0,0.0,0.0,0.0,0.0,0.0,0.0,0.0,0.0,0.0,0.0,0.0,0.0,0.0,0.0,0.0,0.0,0.0,0.0,0.0,0.0,0.0,0.0,0.0,0.0,0.0,0.0,0.0,0.0,0.0,0.0,0.0,0.0,0.0,0.0,0.0,0.0,0.0,0.0,0.0,0.0,0.0,0.0,0.0,0.0,0.0,0.0,0.0,0.0,0.0,0.0,0.0,0.0,0.0,0.0,0.0,0.0,0.0,0.0,0.0,0.0,0.0,0.0,0.0,0.0,0.0,0.0,0.0,0.0,0.0,0.0,0.0,0.0,0.0,0.0,0.0,0.0,0.0,0.0,0.0,0.0,0.0,0.0,0.0,0.0,0.0,0.0,0.0,0.0,0.0,0.0,0.0,0.0,0.0,0.0,0.0,0.0,0.0,0.0,0.0,0.0,0.0,-0.36,-0.3556,-0.3534,-0.3534,-0.3378,-0.3154,0.0,0.0,0.0,0.0,0.0,0.0,0.0,0.0,0.0,0.0,0.0,0.0,0.0,0.0,0.0,0.0,0.0,0.0,0.0,0.0,0.0,0.0,0.0,0.0,0.0,0.0,0.0,0.0,0.0,0.0,0.0,0.0,0.0,0.0,0.0,0.0,0.0,0.0,0.0,0.0,0.0,0.0,0.0,0.0,0.0,0.0,0.0,0.0,0.0,0.0,0.0,0.0,0.0,0.0,0.0,0.0,0.0,0.0,0.0,0.0,0.0,0.0,0.0,0.0,0.0,0.0,0.0,0.0,0.0,0.0,0.0,0.0,0.0,0.0,0.0,0.0,0.0,0.0,0.0,0.0,0.0,0.0,0.0,0.0,0.0,0.0,0.0,0.0,0.0,0.0,0.0,0.0,0.0,0.0,0.0,0.0,0.0,0.0,0.0,0.0,0.0,0.0,0.0,0.0,0.0,0.0,0.0,0.0,0.0,-0.3689,-0.3714,-0.3741,-0.3744,-0.3618,-0.3434,-0.3228,0.0,0.0,0.0,0.0,0.0,0.0,0.0,0.0,0.0,0.0,0.0,0.0,0.0,0.0,0.0,0.0,0.0,0.0,0.0,0.0,0.0,0.0,0.0,0.0,0.0,0.0,0.0,0.0,0.0,0.0,0.0,0.0,0.0,0.0,0.0,0.0,0.0,0.0,0.0,0.0,0.0,0.0,0.0,0.0,0.0,0.0,0.0,0.0,0.0,0.0,0.0,0.0,0.0,0.0,0.0,0.0,0.0,0.0,0.0,0.0,0.0,0.0,0.0,0.0,0.0,0.0,0.0,0.0,0.0,0.0,0.0,0.0,0.0,0.0,0.0,0.0,0.0,0.0,0.0,0.0,0.0,0.0,0.0,0.0,0.0,0.0,0.0,0.0,0.0,0.0,0.0,0.0,0.0,0.0,0.0,0.0,0.0,0.0,0.0,0.0,0.0,0.0,0.0,0.0,0.0,0.0,0.0,0.0,-0.3819,-0.3968,-0.4011,-0.3987,-0.3866,-0.3724,0.0,0.0,0.0,0.0,0.0,0.0,0.0,0.0,0.0,0.0,0.0,0.0,0.0,0.0,0.0,0.0,0.0,0.0,0.0,0.0,0.0,0.0,0.0,0.0,0.0,0.0,0.0,0.0,0.0,0.0,0.0,0.0,0.0,0.0,0.0,0.0,0.0,0.0,0.0,0.0,0.0,0.0,0.0,0.0,0.0,0.0,0.0,0.0,0.0,0.0,0.0,0.0,0.0,0.0,0.0,0.0,0.0,0.0,0.0,0.0,0.0,0.0,0.0,0.0,0.0,0.0,0.0,0.0,0.0,0.0,0.0,0.0,0.0,0.0,0.0,0.0,0.0,0.0,0.0,0.0,0.0,0.0,0.0,0.0,0.0,0.0,0.0,0.0,0.0,0.0,0.0,0.0,0.0,0.0,0.0,0.0,0.0,0.0,0.0,0.0,0.0,0.0,0.0,0.0,0.0,0.0,0.0,0.0,0.0,-0.4102,-0.4273,-0.4269,-0.4004,-0.387,-0.3724,0.0,0.0,0.0,0.0,0.0,0.0,0.0,0.0,0.0,0.0,0.0,0.0,0.0,0.0,0.0,0.0,0.0,0.0,0.0,0.0,0.0,0.0,0.0,0.0,0.0,0.0,0.0,0.0,0.0,0.0,0.0,0.0,0.0,0.0,0.0,0.0,0.0,0.0,0.0,0.0,0.0,0.0,0.0,0.0,0.0,0.0,0.0,0.0,0.0,0.0,0.0,0.0,0.0,0.0,0.0,0.0,0.0,0.0,0.0,0.0,0.0,0.0,0.0,0.0,0.0,0.0,0.0,0.0,0.0,0.0,0.0,0.0,0.0,0.0,0.0,0.0,0.0,0.0,0.0,0.0,0.0,0.0,0.0,0.0,0.0,0.0,0.0,0.0,0.0,0.0,0.0,0.0,0.0,0.0,0.0,0.0,0.0,0.0,0.0,0.0,0.0,0.0,0.0,0.0,0.0,0.0,0.0,0.0,-0.4068,-0.4194,-0.4412,-0.4406,-0.4209,-0.4063,-0.3917,0.0,0.0,0.0,0.0,0.0,0.0,0.0,0.0,0.0,0.0,0.0,0.0,0.0,0.0,0.0,0.0,0.0,0.0,0.0,0.0,0.0,0.0,0.0,0.0,0.0,0.0,0.0,0.0,0.0,0.0,0.0,0.0,0.0,0.0,0.0,0.0,0.0,0.0,0.0,0.0,0.0,0.0,0.0,0.0,0.0,0.0,0.0,0.0,0.0,0.0,0.0,0.0,0.0,0.0,0.0,0.0,0.0,0.0,0.0,0.0,0.0,0.0,0.0,0.0,0.0,0.0,0.0,0.0,0.0,0.0,0.0,0.0,0.0,0.0,0.0,0.0,0.0,0.0,0.0,0.0,0.0,0.0,0.0,0.0,0.0,0.0,0.0,0.0,0.0,0.0,0.0,0.0,0.0,0.0,0.0,0.0,0.0,0.0,0.0,0.0,0.0,0.0,0.0,0.0,0.0,0.0,0.0,0.0,-0.4078,-0.4244,-0.4395,-0.4491,-0.4487,-0.4297,-0.4123,0.0,0.0,0.0,0.0,0.0,0.0,0.0,0.0,0.0,0.0,0.0,0.0,0.0,0.0,0.0,0.0,0.0,0.0,0.0,0.0,0.0,0.0,0.0,0.0,0.0,0.0,0.0,0.0,0.0,0.0,0.0,0.0,0.0,0.0,0.0,0.0,0.0,0.0,0.0,0.0,0.0,0.0,0.0,0.0,0.0,0.0,0.0,0.0,0.0,0.0,0.0,0.0,0.0,0.0,0.0,0.0,0.0,0.0,0.0,0.0,0.0,0.0,0.0,0.0,0.0,0.0,0.0,0.0,0.0,0.0,0.0,0.0,0.0,0.0,0.0,0.0,0.0,0.0,0.0,0.0,0.0,0.0,0.0,0.0,0.0,0.0,0.0,0.0,0.0,0.0,0.0,0.0,0.0,0.0,0.0,0.0,0.0,0.0,0.0,0.0,0.0,0.0,0.0,0.0,0.0,0.0,0.0,0.0,-0.4148,-0.4436,-0.4474,-0.4491,-0.4491,-0.4297,-0.4153,0.0,0.0,0.0,0.0,0.0,0.0,0.0,0.0,0.0,0.0,0.0,0.0,0.0,0.0,0.0,0.0,0.0,0.0,0.0,0.0,0.0,0.0,0.0,0.0,0.0,0.0,0.0,0.0,0.0,0.0,0.0,0.0,0.0,0.0,0.0,0.0,0.0,0.0,0.0,0.0,0.0,0.0,0.0,0.0,0.0,0.0,0.0,0.0,-0.3682,0.0,0.0,0.0,0.0,0.0,0.0,0.0,0.0,0.0,0.0,0.0,0.0,0.0,0.0,0.0,0.0,0.0,0.0,0.0,0.0,0.0,0.0,0.0,0.0,0.0,0.0,0.0,0.0,0.0,0.0,0.0,0.0,0.0,0.0,0.0,0.0,0.0,0.0,0.0,0.0,0.0,0.0,0.0,0.0,0.0,0.0,0.0,0.0,0.0,0.0,0.0,0.0,0.0,0.0,0.0,0.0,0.0,0.0,0.0,-0.4165,-0.4477,-0.4491,-0.4491,-0.4487,-0.4416,-0.4246,0.0,0.0,0.0,0.0,0.0,0.0,0.0,0.0,0.0,0.0,0.0,0.0,0.0,0.0,0.0,0.0,0.0,0.0,0.0,0.0,0.0,0.0,0.0,0.0,0.0,0.0,0.0,0.0,0.0,0.0,0.0,0.0,0.0,0.0,0.0,0.0,0.0,0.0,0.0,0.0,0.0,0.0,0.0,0.0,0.0,0.0,0.0,0.0,0.0,0.0,0.0,0.0,0.0,0.0,0.0,0.0,0.0,0.0,0.0,0.0,0.0,0.0,0.0,0.0,0.0,0.0,0.0,0.0,0.0,0.0,0.0,0.0,0.0,0.0,0.0,0.0,0.0,0.0,0.0,0.0,0.0,0.0,0.0,0.0,0.0,0.0,0.0,0.0,0.0,0.0,0.0,0.0,0.0,0.0,0.0,0.0,0.0,0.0,0.0,0.0,0.0,0.0,0.0,0.0,0.0,0.0,0.0,-0.3994,-0.4161,-0.4474,-0.4491,-0.4491,-0.4491,-0.447,-0.4327,-0.4004,0.0,0.0,0.0,0.0,0.0,0.0,0.0,0.0,0.0,0.0,0.0,0.0,0.0,0.0,0.0,0.0,0.0,0.0,0.0,0.0,0.0,0.0,0.0,0.0,0.0,0.0,0.0,0.0,0.0,0.0,0.0,0.0,0.0,0.0,0.0,0.0,0.0,0.0,-0.3294,-0.3518,0.0,0.0,0.0,0.0,0.0,0.0,0.0,0.0,-0.4357,0.0,0.0,0.0,0.0,0.0,0.0,0.0,0.0,0.0,0.0,0.0,0.0,0.0,0.0,0.0,0.0,0.0,0.0,0.0,0.0,0.0,0.0,0.0,0.0,0.0,0.0,0.0,0.0,0.0,0.0,0.0,0.0,0.0,0.0,0.0,0.0,0.0,0.0,0.0,0.0,0.0,0.0,0.0,0.0,0.0,0.0,0.0,0.0,0.0,0.0,0.0,0.0,0.0,0.0,0.0,0.0,-0.3987,-0.3994,-0.4165,-0.4481,-0.4491,-0.4491,-0.4487,-0.4345,-0.4173,-0.3994,0.0,0.0,0.0,0.0,0.0,0.0,0.0,0.0,0.0,0.0,0.0,0.0,0.0,0.0,0.0,0.0,0.0,0.0,0.0,0.0,0.0,0.0,0.0,0.0,0.0,0.0,0.0,0.0,0.0,0.0,0.0,0.0,0.0,0.0,0.0,0.0,0.0,0.0,0.0,-0.4102,-0.4364,0.0,0.0,0.0,0.0,0.0,0.0,0.0,0.0,-0.4585,0.0,0.0,0.0,0.0,0.0,0.0,0.0,0.0,0.0,0.0,0.0,0.0,0.0,0.0,0.0,0.0,0.0,0.0,0.0,0.0,0.0,0.0,0.0,0.0,0.0,0.0,0.0,0.0,0.0,0.0,0.0,0.0,0.0,0.0,0.0,0.0,0.0,0.0,0.0,0.0,0.0,0.0,0.0,0.0,0.0,0.0,0.0,0.0,0.0,0.0,0.0,0.0,0.0,0.0,0.0,-0.396,-0.3994,-0.4165,-0.4477,-0.4491,-0.4491,-0.4487,-0.4297,-0.4153,0.0,0.0,0.0,0.0,0.0,0.0,0.0,0.0,0.0,0.0,0.0,0.0,0.0,0.0,0.0,0.0,0.0,0.0,0.0,0.0,0.0,0.0,0.0,0.0,0.0,0.0,0.0,0.0,0.0,0.0,0.0,0.0,0.0,0.0,0.0,0.0,0.0,0.0,0.0,0.0,-0.4362,-0.4652,-0.496,0.0,0.0,0.0,0.0,0.0,0.0,-0.5033,-0.4972,0.0,0.0,0.0,0.0,0.0,0.0,0.0,0.0,0.0,0.0,0.0,0.0,0.0,0.0,0.0,0.0,0.0,0.0,0.0,0.0,0.0,0.0,0.0,0.0,0.0,0.0,0.0,0.0,0.0,0.0,0.0,0.0,0.0,0.0,0.0,0.0,0.0,0.0,0.0,0.0,0.0,0.0,0.0,0.0,0.0,0.0,0.0,0.0,0.0,0.0,0.0,0.0,0.0,0.0,0.0,-0.3971,-0.3994,-0.4165,-0.4474,-0.4491,-0.4491,-0.4487,-0.4294,-0.4119,0.0,0.0,0.0,0.0,0.0,0.0,0.0,0.0,0.0,0.0,0.0,0.0,0.0,0.0,0.0,0.0,0.0,0.0,0.0,0.0,0.0,0.0,0.0,0.0,0.0,0.0,0.0,0.0,0.0,0.0,0.0,0.0,0.0,0.0,0.0,0.0,0.0,0.0,0.0,0.0,0.0,-0.5014,-0.5297,-0.5426,0.0,0.0,0.0,0.0,-0.5442,-0.5433,0.0,0.0,0.0,0.0,0.0,0.0,0.0,0.0,0.0,0.0,0.0,0.0,0.0,0.0,0.0,0.0,0.0,0.0,0.0,0.0,0.0,0.0,0.0,0.0,0.0,0.0,0.0,0.0,0.0,0.0,0.0,0.0,0.0,0.0,0.0,0.0,0.0,0.0,0.0,0.0,0.0,0.0,0.0,0.0,0.0,0.0,0.0,0.0,0.0,0.0,0.0,0.0,0.0,0.0,0.0,0.0,-0.3967,-0.3994,-0.4187,-0.447,-0.4491,-0.4491,-0.4484,-0.4192,-0.4011,0.0,0.0,0.0,0.0,0.0,0.0,0.0,0.0,0.0,0.0,0.0,0.0,0.0,0.0,0.0,0.0,0.0,0.0,0.0,0.0,0.0,0.0,0.0,0.0,0.0,0.0,0.0,0.0,0.0,0.0,0.0,0.0,0.0,0.0,0.0,0.0,0.0,0.0,0.0,0.0,0.0,-0.5721,-0.6112,-0.6166,-0.622,0.0,0.0,-0.6037,-0.5927,-0.5873,0.0,0.0,0.0,0.0,0.0,0.0,0.0,0.0,0.0,0.0,0.0,0.0,0.0,0.0,0.0,0.0,0.0,0.0,0.0,0.0,0.0,0.0,0.0,0.0,0.0,0.0,0.0,0.0,0.0,0.0,0.0,0.0,0.0,0.0,0.0,0.0,0.0,0.0,0.0,0.0,0.0,0.0,0.0,0.0,0.0,0.0,0.0,0.0,0.0,0.0,0.0,0.0,0.0,0.0,0.0,-0.3398,-0.3971,-0.3994,-0.4165,-0.4477,-0.4491,-0.4491,-0.4487,-0.4175,-0.3994,0.0,0.0,0.0,0.0,0.0,0.0,0.0,0.0,0.0,0.0,0.0,0.0,0.0,0.0,0.0,0.0,0.0,0.0,0.0,0.0,0.0,0.0,0.0,0.0,0.0,0.0,0.0,0.0,0.0,0.0,0.0,0.0,0.0,0.0,0.0,0.0,0.0,0.0,0.0,0.0,0.0,0.0,-0.6579,-0.6639,0.0,0.0,0.0,-0.646,-0.642,0.0,0.0,0.0,0.0,0.0,0.0,0.0,0.0,0.0,0.0,0.0,0.0,0.0,0.0,0.0,0.0,0.0,0.0,0.0,0.0,0.0,0.0,0.0,0.0,0.0,0.0,0.0,0.0,0.0,0.0,0.0,0.0,0.0,0.0,0.0,0.0,0.0,0.0,0.0,0.0,0.0,0.0,0.0,0.0,0.0,0.0,0.0,0.0,0.0,0.0,0.0,0.0,0.0,0.0,0.0,0.0,0.0,-0.3977,-0.3994,-0.4165,-0.4477,-0.4491,-0.4491,-0.4484,-0.4175,0.0,0.0,0.0,0.0,0.0,0.0,0.0,0.0,0.0,0.0,0.0,0.0,0.0,0.0,0.0,0.0,0.0,0.0,0.0,0.0,0.0,0.0,0.0,0.0,0.0,0.0,0.0,-0.295,0.0,0.0,0.0,0.0,0.0,0.0,0.0,0.0,0.0,0.0,0.0,0.0,0.0,0.0,-0.6787,-0.7145,-0.7192,-0.7198,0.0,0.0,-0.6952,-0.6952,-0.6965,-0.6977,0.0,0.0,0.0,0.0,0.0,0.0,0.0,0.0,0.0,0.0,0.0,0.0,0.0,0.0,0.0,0.0,0.0,0.0,0.0,0.0,0.0,0.0,0.0,0.0,0.0,0.0,0.0,0.0,0.0,0.0,0.0,0.0,0.0,0.0,0.0,0.0,0.0,0.0,0.0,0.0,0.0,0.0,0.0,0.0,0.0,0.0,0.0,0.0,0.0,0.0,0.0,0.0,0.0,0.0,0.0,-0.3974,-0.3994,-0.4165,-0.4477,-0.4491,-0.4491,-0.4484,-0.4201,-0.3994,0.0,0.0,0.0,0.0,0.0,0.0,0.0,0.0,0.0,0.0,0.0,0.0,0.0,0.0,0.0,0.0,0.0,0.0,0.0,0.0,0.0,0.0,0.0,0.0,0.0,0.0,0.0,0.0,0.0,0.0,0.0,0.0,0.0,0.0,0.0,0.0,0.0,0.0,0.0,0.0,0.0,-0.75,-0.7954,-0.8014,-0.8028,0.0,0.0,-0.765,-0.7616,-0.7433,-0.7333,-0.7417,0.0,0.0,0.0,0.0,0.0,0.0,0.0,0.0,0.0,0.0,0.0,0.0,0.0,0.0,0.0,0.0,0.0,0.0,0.0,0.0,0.0,0.0,0.0,0.0,0.0,0.0,0.0,0.0,0.0,0.0,0.0,0.0,0.0,0.0,0.0,0.0,0.0,0.0,0.0,0.0,0.0,0.0,0.0,0.0,0.0,0.0,0.0,0.0,0.0,0.0,0.0,0.0,0.0,-0.3689,-0.3987,-0.4089,-0.4233,-0.4477,-0.4491,-0.4491,-0.4491,-0.4175,-0.3994,0.0,0.0,0.0,0.0,0.0,0.0,0.0,0.0,0.0,0.0,0.0,0.0,0.0,0.0,0.0,0.0,0.0,0.0,0.0,0.0,0.0,0.0,0.0,0.0,0.0,0.0,0.0,0.0,-0.3951,-0.413,-0.4498,0.0,0.0,0.0,0.0,0.0,0.0,0.0,0.0,0.0,0.0,-0.8137,-0.8475,-0.8588,0.0,0.0,-0.8509,-0.8363,-0.8392,-0.8202,-0.8108,-0.8163,-0.808,0.0,0.0,0.0,0.0,0.0,0.0,0.0,0.0,0.0,0.0,0.0,0.0,0.0,0.0,0.0,0.0,0.0,0.0,0.0,0.0,0.0,0.0,0.0,0.0,0.0,0.0,0.0,0.0,0.0,0.0,0.0,0.0,0.0,0.0,0.0,0.0,0.0,0.0,0.0,0.0,0.0,0.0,0.0,0.0,0.0,0.0,0.0,0.0,0.0,0.0,0.0,0.0,-0.3768,-0.3994,-0.4117,-0.4291,-0.4484,-0.4491,-0.4491,-0.4481,-0.4219,-0.4041,0.0,0.0,0.0,0.0,0.0,0.0,0.0,0.0,0.0,0.0,0.0,0.0,0.0,0.0,0.0,0.0,0.0,0.0,0.0,0.0,0.0,0.0,0.0,0.0,0.0,0.0,0.0,0.0,-0.4268,-0.4536,-0.5035,0.0,0.0,0.0,0.0,0.0,0.0,0.0,0.0,0.0,0.0,-0.8711,-0.907,-0.9207,-0.9277,-0.9293,-0.9147,-0.9074,-0.9074,-0.8926,-0.8802,-0.8802,0.0,0.0,0.0,0.0,0.0,0.0,0.0,0.0,0.0,0.0,0.0,0.0,0.0,0.0,0.0,0.0,0.0,0.0,0.0,0.0,0.0,0.0,0.0,0.0,0.0,0.0,0.0,0.0,0.0,0.0,-0.1394,0.0,0.0,0.0,0.0,0.0,0.0,0.0,0.0,0.0,0.0,0.0,0.0,0.0,0.0,0.0,0.0,0.0,0.0,0.0,0.0,0.0,0.0,-0.3866,-0.3998,-0.4153,-0.4291,-0.4484,-0.4491,-0.4491,-0.4487,-0.4317,-0.4146,-0.3994,0.0,0.0,0.0,0.0,0.0,0.0,0.0,0.0,0.0,0.0,0.0,0.0,0.0,0.0,0.0,0.0,0.0,0.0,0.0,0.0,0.0,0.0,0.0,0.0,0.0,0.0,-0.4291,-0.4655,-0.5124,0.0,0.0,0.0,0.0,0.0,0.0,0.0,0.0,0.0,0.0,-0.8807,-0.9219,-0.9773,-0.9871,-0.9907,-0.9977,-0.9836,-0.9664,-0.9695,-0.9451,-0.9288,0.0,0.0,0.0,0.0,0.0,0.0,0.0,0.0,0.0,0.0,0.0,0.0,0.0,0.0,0.0,0.0,0.0,0.0,0.0,0.0,0.0,0.0,0.0,0.0,0.0,0.0,0.0,-0.1332,-0.1316,0.0,0.0,0.0,0.0,0.0,0.0,0.0,0.0,0.0,0.0,0.0,-0.353,-0.37,0.0,0.0,0.0,0.0,0.0,0.0,0.0,0.0,0.0,0.0,0.0,0.0,-0.3994,-0.4146,-0.4317,-0.444,-0.4487,-0.4491,-0.4491,-0.4491,-0.4324,-0.408,-0.3853,0.0,0.0,0.0,0.0,0.0,0.0,0.0,0.0,0.0,0.0,0.0,0.0,0.0,0.0,0.0,0.0,0.0,0.0,0.0,0.0,0.0,0.0,0.0,0.0,0.0,-0.417,0.0,0.0,0.0,0.0,0.0,0.0,0.0,0.0,0.0,0.0,0.0,-0.8612,-0.9263,-0.9553,-0.9811,-1.0003,-1.0232,-1.036,0.0,0.0,0.0,0.0,0.0,0.0,0.0,0.0,0.0,0.0,0.0,0.0,0.0,0.0,-0.903,-0.8578,-0.8357,-0.823,-0.8223,0.0,0.0,0.0,0.0,0.0,0.0,0.0,0.0,0.0,0.0,0.0,0.0,0.0,0.0,-0.1683,0.0,-0.1863,0.0,0.0,0.0,0.0,0.0,0.0,0.0,0.0,-0.3771,-0.3916,-0.3919,-0.41,-0.4122,0.0,-0.4072,-0.3842,0.0,0.0,0.0,0.0,0.0,0.0,0.0,0.0,-0.4122,-0.4197,-0.4419,-0.4491,-0.4491,-0.4491,-0.4491,-0.4487,-0.4324,-0.4103,-0.3955,-0.3758,-0.3585,0.0,0.0,0.0,0.0,0.0,0.0,0.0,0.0,0.0,0.0,0.0,0.0,0.0,0.0,0.0,0.0,0.0,0.0,0.0,0.0,0.0,0.0,0.0,-0.4627,0.0,0.0,0.0,0.0,0.0,0.0,0.0,0.0,0.0,-0.86,-0.8837,-0.9195,-0.9773,-0.9993,-1.0123,-1.0254,0.0,0.0,0.0,0.0,0.0,0.0,0.0,-1.0274,-1.0274,-1.0027,-0.9806,-0.9699,-0.9715,-0.9715,-0.9715,0.0,0.0,-0.9018,-0.8804,-0.8651,-0.8544,-0.8556,-0.8524,-0.8556,-0.8677,-0.8831,0.0,0.0,0.0,0.0,0.0,0.0,0.0,0.0,-0.2063,-0.2137,0.0,-0.2402,0.0,0.0,0.0,0.0,0.0,0.0,0.0,0.0,-0.403,-0.4108,-0.4148,-0.4385,-0.4402,-0.422,-0.4224,-0.4143,-0.4018,-0.4014,0.0,0.0,0.0,0.0,0.0,0.0,-0.4223,-0.4237,-0.4392,-0.4491,-0.4491,-0.4491,-0.4491,-0.4487,-0.4328,-0.42,-0.421,-0.3955,-0.3731,-0.3592,-0.3411,0.0,0.0,0.0,0.0,0.0,0.0,0.0,0.0,0.0,0.0,0.0,0.0,0.0,0.0,0.0,0.0,0.0,0.0,0.0,0.0,-0.4921,0.0,0.0,0.0,0.0,0.0,0.0,0.0,0.0,0.0,0.0,-0.8725,-0.9309,-0.9849,-1.0114,0.0,0.0,0.0,0.0,-1.0586,-1.0586,-1.0586,-1.0586,-1.0586,-1.0586,-1.0586,-1.0586,0.0,0.0,-0.9766,-0.9742,-0.9733,-0.9749,-0.9775,-0.9619,-0.9304,-0.9231,-0.9131,-0.8898,-0.8851,-0.8838,-0.8838,-0.8884,-0.8931,-0.2709,0.0,0.0,0.0,0.0,-0.2286,-0.2425,-0.2568,-0.2685,-0.2766,-0.2813,-0.2939,0.0,0.0,0.0,0.0,0.0,0.0,-0.427,-0.4429,-0.4591,-0.4666,-0.4669,-0.4739,-0.4765,-0.4699,-0.4695,-0.465,-0.4501,-0.4497,-0.4334,-0.3998,0.0,0.0,0.0,0.0,-0.4271,-0.4399,-0.447,-0.4491,-0.4491,-0.4491,-0.4491,-0.4491,-0.445,-0.4351,-0.4197,-0.4031,-0.3863,-0.3734,-0.3465,0.0,0.0,0.0,0.0,0.0,0.0,0.0,0.0,0.0,0.0,0.0,0.0,0.0,0.0,0.0,0.0,0.0,0.0,0.0,-0.4777,-0.548,-0.597,0.0,0.0,0.0,0.0,0.0,0.0,0.0,0.0,0.0,-0.9997,-1.02,-1.0445,0.0,0.0,-1.0768,-1.0855,-1.0727,-1.0586,-1.0586,0.0,0.0,0.0,-1.0586,-1.0586,-1.0586,-1.0519,-1.0432,-1.0358,-1.0345,-1.0345,-1.0332,-1.0345,-1.0244,-0.992,-0.9693,-0.9539,-0.9452,-0.9432,-0.9432,-0.9432,-0.9432,-0.945,-0.3446,-0.295,-0.2903,-0.2867,-0.2853,-0.2875,-0.2958,-0.3079,-0.3171,-0.3231,-0.326,-0.3372,-0.3361,-0.3268,-0.3396,0.0,0.0,0.0,-0.4644,-0.4793,-0.4857,-0.4918,-0.4918,-0.4918,-0.4918,-0.4918,-0.4918,-0.484,-0.4782,-0.4782,-0.4646,-0.4351,0.0,0.0,-0.4301,-0.4331,-0.4375,-0.4484,-0.4491,-0.4491,-0.4491,-0.4491,-0.4491,-0.4491,-0.4491,-0.4447,-0.4308,-0.4163,-0.4014,-0.3887,-0.363,-0.3411,0.0,0.0,0.0,0.0,0.0,0.0,0.0,0.0,0.0,0.0,0.0,-0.3088,-0.3502,0.0,0.0,0.0,-0.4744,-0.5129,-0.5403,-0.6083,0.0,0.0,0.0,0.0,0.0,0.0,0.0,-0.9653,-1.0053,-1.0408,-1.072,-1.0968,-1.1142,-1.1156,-1.1169,-1.1122,-1.1009,0.0,-1.0727,-1.0613,-1.0586,-1.0586,-1.0586,-1.0586,-1.0586,-1.0586,-1.0586,-1.0586,-1.0586,-1.0586,-1.0586,-1.0586,-1.0586,-1.0539,-1.0321,-1.0177,-0.9976,-0.9762,-0.9715,-0.9715,-0.9715,-0.9715,-0.9712,-0.4113,-0.3835,-0.3675,-0.3554,-0.3506,-0.3506,-0.3537,-0.3539,-0.3539,-0.3537,-0.3568,-0.3676,-0.3725,-0.3747,-0.4072,0.0,0.0,-0.4632,-0.4832,-0.4924,-0.4921,-0.4955,-0.4955,-0.4924,-0.4924,-0.4952,-0.4924,-0.4948,-0.4904,-0.4904,-0.4928,-0.4911,-0.4636,-0.4525,-0.4553,-0.4515,-0.4508,-0.4508,-0.4525,-0.4491,-0.4491,-0.4491,-0.4491,-0.4491,-0.4491,-0.4491,-0.4484,-0.4297,-0.413,-0.4014,-0.3883,-0.3663,-0.3325,0.0,0.0,0.0,0.0,0.0,0.0,0.0,0.0,0.0,0.0,0.0,0.0,0.0,0.0,0.0,-0.534,0.0,-0.6181,-0.6742,0.0,0.0,0.0,-0.8199,-0.8792,-0.9093,-0.9491,-1.0086,0.0,0.0,-1.1055,0.0,-1.1777,-1.153,-1.1476,-1.1329,-1.1096,-1.1029,-1.0895,-1.068,-1.0606,-1.0586,-1.0586,-1.0586,-1.0586,-1.0586,-1.0586,-1.0586,-1.0586,-1.0586,-1.0586,-1.0586,-1.0586,-1.0586,-1.0586,-1.0553,-1.0432,-0.9896,-0.9809,-0.9802,-0.9793,-0.9836,-0.9852,-0.4558,-0.449,-0.4437,-0.4141,-0.3717,-0.375,-0.3783,-0.3883,-0.3883,-0.3951,-0.4112,-0.4051,-0.3958,-0.3878,-0.4313,-0.4514,-0.458,-0.5038,-0.5257,-0.5289,-0.5289,-0.5257,-0.5289,-0.5289,-0.5289,-0.5286,-0.5289,-0.5196,-0.5052,-0.5049,-0.4995,-0.4891,-0.4843,-0.4809,-0.4806,-0.4697,-0.4636,-0.4636,-0.4549,-0.4491,-0.4491,-0.4491,-0.4491,-0.4491,-0.4491,-0.4491,-0.4487,-0.4297,-0.4177,-0.4163,-0.3938,-0.373,-0.3556,-0.337,0.0,0.0,0.0,0.0,0.0,0.0,0.0,0.0,0.0,-0.3641,-0.4303,0.0,-0.4805,0.0,-0.6148,-0.667,-0.6919,-0.7396,0.0,0.0,-0.8361,-0.8707,-0.9207,-0.9617,-1.0084,-1.0522,-1.0936,-1.1329,-1.1658,-1.1819,-1.196,-1.2058,-1.1904,-1.1737,-1.1698,-1.1296,-1.0969,-1.0889,-1.0747,-1.0593,-1.06,-1.0586,-1.0586,-1.0586,-1.0586,-1.0586,-1.0586,-1.0586,-1.0586,-1.0586,-1.0586,-1.0586,-1.0586,-1.0586,-1.0553,-1.0412,-1.0385,-1.0385,-1.0385,-1.0372,-1.0335,-0.4739,-0.469,-0.469,-0.4504,-0.4208,-0.4122,-0.4133,-0.4199,-0.4152,-0.42,-0.4298,-0.4227,-0.4129,-0.4105,-0.4426,-0.4649,-0.4724,-0.5088,-0.5326,-0.5395,-0.5395,-0.5395,-0.5395,-0.5395,-0.5395,-0.5395,-0.5395,-0.5351,-0.5237,-0.5233,-0.5192,-0.5118,-0.5118,-0.5114,-0.5108,-0.4901,-0.4792,-0.4792,-0.464,-0.4559,-0.4491,-0.4491,-0.4491,-0.4491,-0.4491,-0.4491,-0.4491,-0.4412,-0.4287,-0.4197,-0.4062,-0.3903,-0.3782,-0.3607,-0.348,0.0,0.0,0.0,0.0,0.0,0.0,0.0,0.0,0.0,0.0,0.0,-0.5339,0.0,-0.6759,-0.7258,-0.7484,-0.795,-0.8351,-0.8638,-0.8903,-0.9229,-0.9711,-1.0088,-1.0486,-1.0827,-1.1237,-1.1613,-1.185,-1.1984,-1.2118,-1.2285,-1.2164,-1.2011,-1.1906,-1.1577,-1.1336,-1.1202,-1.1049,-1.0928,-1.0782,-1.0673,-1.0586,-1.0586,-1.0586,-1.0586,-1.0586,-1.0586,-1.0586,-1.0586,-1.0586,-1.0586,-1.0586,-1.0586,-1.0586,-1.0586,-1.0586,-1.0586,-1.0586,-1.0586,-1.0564,-0.4798,-0.4736,-0.4736,-0.4736,-0.4725,-0.4605,-0.4542,-0.452,-0.439,-0.4346,-0.4346,-0.4344,-0.4338,-0.4322,-0.452,-0.4676,-0.4797,-0.5024,-0.5223,-0.5395,-0.5395,-0.5395,-0.5395,-0.5395,-0.5395,-0.5395,-0.5395,-0.5395,-0.5395,-0.5395,-0.5395,-0.5395,-0.5395,-0.5395,-0.5382,-0.5104,-0.4928,-0.4918,-0.4789,-0.4682,-0.4552,-0.4528,-0.4518,-0.4518,-0.4525,-0.4491,-0.4491,-0.4491,-0.4433,-0.426,-0.4207,-0.4133,-0.4028,-0.3907,-0.3765,0.0,-0.3658,0.0,0.0,0.0,0.0,0.0,0.0,0.0,0.0,-0.5465,-0.5934,-0.6665,-0.7299,-0.7775,-0.796,-0.8445,-0.8878,-0.9167,-0.9388,-0.9732,-1.0159,-1.0464,-1.0764,-1.1069,-1.1391,-1.1673,-1.1837,-1.2115,-1.2268,-1.2261,-1.2254,-1.2191,-1.202,-1.1913,-1.1737,-1.151,-1.1409,-1.1235,-1.1015,-1.0814,-1.0646,-1.0613,-1.0586,-1.0586,-1.0586,-1.0586,-1.0586,-1.0586,-1.0586,-1.0586,-1.0586,-1.0586,-1.0586,-1.0586,-1.0586,-1.0586,-1.0586,-1.0586,-1.0586,-0.4969,-0.495,-0.4947,-0.4947,-0.4936,-0.4817,-0.4711,-0.4651,-0.4629,-0.4621,-0.4621,-0.4621,-0.4566,-0.4473,-0.4611,-0.4727,-0.4797,-0.499,-0.519,-0.5395,-0.5395,-0.5395,-0.5395,-0.5395,-0.5395,-0.5395,-0.5395,-0.5395,-0.5395,-0.5395,-0.5395,-0.5395,-0.5395,-0.5395,-0.5392,0.0,0.0,0.0,-0.4887,-0.486,-0.483,-0.4707,-0.4675,-0.4643,-0.4556,0.0,-0.4491,-0.4491,-0.4477,-0.4447,-0.4284,0.0,0.0,0.0,0.0,0.0,0.0,0.0,0.0,0.0,0.0,0.0,-0.4682,-0.4929,-0.5414,-0.6188,-0.6895,-0.7378,-0.7883,-0.8275,-0.8516,-0.8817,-0.9221,-0.969,-0.9799,-0.9937,-1.0264,-1.0666,-1.0968,-1.101,-1.1422,-1.1697,-1.1734,-1.1903,-1.204,-1.2077,-1.2187,-1.2278,-1.2225,-1.2017,-1.1893,-1.1812,-1.1603,-1.1336,-1.1035,-1.0995,-1.0868,-1.0673,-1.0586,-1.0593,-1.0593,-1.0586,-1.0586,-1.0586,-1.0586,-1.0586,-1.0586,-1.0586,-1.0586,-1.0586,-1.0586,-1.0586,-1.0586,-1.0586,-1.0586,-0.5018,0.0,-0.5018,-0.5018,0.0,-0.4914,-0.489,-0.4862,-0.4742,-0.469,-0.469,-0.469,-0.4654,-0.4594,-0.4667,-0.4778,-0.4897,-0.4999,-0.5161,-0.5395,-0.5395,-0.5395,-0.5395,-0.5395,-0.5395,-0.5395,-0.5395,-0.5395,-0.5395,-0.5395,-0.5395,-0.5395,-0.5395,-0.5395,-0.5395,-0.5395,-0.5279,-0.4995,-0.4995,-0.4989,-0.4884,-0.4772,-0.4694,-0.4687,0.0,0.0,0.0,0.0,0.0,0.0,0.0,0.0,0.0,0.0,0.0,-0.4083,-0.408,-0.4083,-0.4109,-0.4169,-0.4464,-0.4893,-0.5397,-0.58,-0.6114,-0.6757,-0.7362,-0.7861,-0.8287,-0.8602,-0.8837,-0.9229,-0.9606,-0.9877,-1.0136,-1.0352,-1.0485,-1.0827,-1.1095,-1.1174,-1.1403,-1.1595,-1.1669,-1.1781,-1.1861,-1.1855,-1.2003,-1.215,-1.2144,-1.2141,-1.2084,-1.2071,-1.183,-1.1603,-1.145,-1.1283,-1.1109,-1.0848,-1.0801,-1.074,-1.0613,-1.0586,-1.0586,-1.0586,-1.0586,-1.0586,-1.0586,-1.0586,-1.0586,-1.0586,-1.0586,-1.0586,-1.0586,-1.0586,-1.0586,-0.5018,-0.5018,-0.5018,-0.5018,-0.5018,-0.5018,-0.5018,-0.5004,0.0,0.0,0.0,-0.4755,-0.4742,-0.472,-0.4723,-0.4836,-0.5037,-0.5034,-0.5167,-0.5436,-0.5436,-0.5423,-0.5395,-0.5395,-0.5395,-0.5395,-0.5395,-0.5395,-0.5395,-0.5395,-0.5395,-0.5395,-0.5395,-0.5395,-0.5395,-0.5395,-0.5334,-0.5147,-0.5137,-0.5083,-0.4999,-0.4823,-0.4731,-0.4731,-0.4586,-0.4491,-0.4491,-0.4491,-0.4491,-0.4491,-0.4491,-0.4491,-0.4487,-0.4324,-0.426,-0.4257,-0.4234,-0.4271,-0.4301,-0.4436,-0.4763,-0.5213,-0.6011,-0.6558,-0.6876,-0.718,-0.7623,-0.8225,-0.8527,-0.8823,-0.9057,-0.9532,-0.9916,-1.0033,-1.043,-1.0695,-1.0755,-1.0936,-1.1174,-1.1298,-1.1329,-1.1409,-1.1558,-1.1632,-1.1626,-1.1669,-1.1818,-1.1966,-1.2003,-1.2174,-1.2278,-1.2258,-1.2071,-1.196,-1.1873,-1.1663,-1.1396,-1.1129,-1.1022,-1.0902,-1.074,-1.0658,-1.0593,-1.0586,-1.0586,-1.0586,-1.0586,-1.0586,-1.0586,-1.0586,-1.0586,-1.0586,-1.0586,-1.0586,-1.0586,-0.5018,-0.5018,-0.5018,-0.5018,-0.5018,-0.5018,-0.5018,-0.5015,-0.498,-0.4966,-0.4963,-0.4966,-0.4906,-0.4809,-0.4809,-0.4924,-0.5164,-0.5197,-0.5307,0.0,-0.5555,-0.5521,-0.5399,-0.5395,-0.5395,-0.5395,-0.5395,-0.5395,-0.5395,-0.5395,-0.5395,-0.5395,-0.5395,-0.5395,-0.5395,-0.5395,-0.5382,-0.5365,-0.5332,-0.5354,-0.533,-0.503,-0.4857,-0.4874,-0.4613,-0.4491,-0.4491,-0.4491,-0.4491,-0.4491,-0.4491,-0.4491,-0.4487,-0.447,-0.446,-0.4457,-0.446,-0.4515,-0.4619,-0.4646,-0.4929,-0.5498,-0.6221,-0.6848,-0.7285,-0.75,-0.7866,-0.8404,-0.865,-0.8944,-0.9302,-0.9594,-0.9975,-1.0449,-1.0635,-1.0803,-1.1009,-1.1075,-1.1111,-1.1149,-1.1149,-1.1149,-1.1223,-1.1335,-1.1446,-1.1484,-1.1632,-1.1818,-1.1966,-1.2157,-1.2305,-1.2305,-1.2271,-1.2138,-1.1986,-1.1886,-1.1683,-1.1382,-1.1162,-1.1002,-1.0915,-1.074,-1.06,-1.0586,-1.0586,-1.0586,-1.0586,-1.0586,-1.0586,-1.0586,-1.0586,-1.0586,-1.0586,-1.0586,-1.0586,-0.5108,-0.5102,-0.5042,-0.5018,-0.5018,-0.5018,-0.5018,-0.5018,-0.5018,-0.5018,-0.5018,-0.5018,-0.4947,-0.4895,-0.4895,-0.4979,-0.5151,-0.5264,-0.5379,-0.5535,-0.5634,-0.5661,-0.5528,-0.5484,-0.5477,-0.5399,-0.5395,-0.5395,-0.5395,-0.5395,-0.5395,-0.5395,-0.5395,-0.5395,-0.5395,-0.5395,-0.5395,-0.5395,-0.5395,-0.5395,-0.5392,-0.5145,-0.4968,-0.4891,-0.4701,-0.4573,-0.4491,-0.4491,-0.4491,-0.4491,-0.4491,-0.4491,-0.4491,-0.4491,-0.4525,-0.4607,-0.4617,-0.4653,-0.4806,-0.5099,-0.5357,-0.5647,-0.6379,-0.6939,-0.7287,-0.7649,-0.7977,-0.8301,-0.8712,-0.9036,-0.922,-0.9742,-1.0184,-1.0515,-1.0767,-1.0942,-1.105,-1.1117,-1.1117,-1.1117,-1.1117,-1.1117,-1.1117,-1.1186,-1.1223,-1.126,-1.1409,-1.1589,-1.1811,-1.2009,-1.2194,-1.2268,-1.2305,-1.2251,-1.2124,-1.2104,-1.1977,-1.171,-1.1423,-1.1182,-1.1029,-1.0787,-1.062,-1.0586,-1.0586,-1.0586,-1.0586,-1.0586,-1.0586,-1.0586,-1.0586,-1.0586,-1.0586,-1.0586,-1.0586,-0.527,-0.5259,-0.5105,-0.504,-0.5018,-0.5018,-0.5018,-0.5018,-0.5018,-0.5018,-0.5018,-0.5018,-0.5018,-0.5018,-0.5018,-0.5038,-0.5179,-0.5362,-0.5482,-0.5577,-0.5745,-0.5779,-0.565,-0.5637,-0.5559,-0.546,-0.5443,-0.5429,-0.5399,-0.5395,-0.5395,-0.5395,-0.5395,-0.5395,-0.5395,-0.5395,-0.5395,-0.5395,-0.5395,-0.5395,-0.5388,-0.5209,-0.5046,-0.4938,-0.4819,-0.4716,-0.46,-0.4593,-0.4593,-0.4593,-0.4593,-0.4593,-0.459,-0.459,-0.4648,-0.4728,-0.4741,-0.4809,-0.4958,-0.5451,-0.5758,-0.5762,-0.6432,-0.6942,-0.7138,-0.7639,-0.8058,-0.8303,-0.871,-0.9057,-0.9319,-0.9861,-1.0351,-1.0482,-1.08,-1.1019,-1.1111,-1.1117,-1.1117,-1.1117,-1.1117,-1.1117,-1.1117,-1.1117,-1.1117,-1.1149,-1.1223,-1.1409,-1.1595,-1.1781,-1.1929,-1.215,-1.2268,-1.2298,-1.2305,-1.2298,-1.2191,-1.202,-1.1717,-1.1443,-1.1162,-1.0894,-1.0667,-1.0626,-1.0586,-1.0586,-1.0586,-1.0586,-1.0586,-1.0586,-1.0586,-1.0586,-1.0586,-1.0586,-1.0586,-0.5394,-0.5333,-0.5219,-0.511,-0.5023,-0.5018,-0.5018,-0.5018,-0.5018,-0.5018,-0.5018,-0.5018,-0.5018,-0.5018,-0.5018,-0.5121,-0.5259,-0.55,-0.5616,-0.5678,-0.5895,-0.5925,-0.5789,-0.5779,-0.5708,-0.5583,-0.5569,-0.5498,-0.5412,-0.5399,-0.5395,-0.5395,-0.5395,-0.5395,-0.5395,-0.5395,-0.5395,-0.5395,-0.5395,-0.5395,-0.5385,-0.5209,-0.5093,-0.5076,-0.4941,-0.4864,-0.486,-0.4847,-0.4874,-0.4844,-0.4867,-0.487,-0.484,-0.4874,-0.488,-0.4894,-0.4901,-0.4928,-0.5101,-0.5578,-0.5858,-0.5932,-0.6396,-0.6778,-0.6964,-0.7478,-0.8054,-0.8446,-0.8625,-0.8997,-0.9694,-0.9919,-1.0183,-1.0613,-1.0783,-1.0887,-1.1074,-1.1117,-1.1117,-1.1117,-1.1117,-1.1117,-1.1117,-1.1117,-1.1117,-1.1117,-1.1111,-1.1223,-1.1366,-1.1484,-1.1632,-1.1929,-1.215,-1.2268,-1.2305,-1.2305,-1.2271,-1.2225,-1.2011,-1.1697,-1.139,-1.1109,-1.0914,-1.0633,-1.0586,-1.0586,-1.0586,-1.0586,-1.0586,-1.0586,-1.0586,-1.0586,-1.0586,-1.0586,-1.0586,-0.5474,-0.5421,-0.5344,-0.5224,-0.5118,-0.5048,-0.5018,-0.5018,-0.5018,-0.5018,-0.5018,-0.5018,-0.5018,-0.5018,-0.5018,-0.5057,-0.5132,-0.5323,-0.5491,-0.5666,-0.5857,-0.5927,-0.5909,-0.5939,-0.5824,-0.5725,-0.5715,-0.564,-0.5535,-0.544,-0.5395,-0.5395,-0.5395,-0.5395,-0.5395,-0.5395,-0.5395,-0.5395,-0.5395,-0.5395,-0.5388,-0.5334,-0.5223,-0.5103,-0.5042,-0.4968,-0.4931,-0.4918,-0.4918,-0.4918,-0.4918,-0.4918,-0.4918,-0.4918,-0.4924,-0.5005,-0.5131,-0.5206,-0.5264,-0.5552,-0.5789,-0.5892,-0.6284,-0.6626,-0.6907,-0.7362,-0.7872,-0.8427,-0.8826,-0.9241,-0.967,-0.9911,-1.0193,-1.0426,-1.0669,-1.0812,-1.0887,-1.1031,-1.1117,-1.1117,-1.1117,-1.1117,-1.1117,-1.1117,-1.1117,-1.1117,-1.1117,-1.1149,-1.1223,-1.1298,-1.1484,-1.1639,-1.1824,-1.204,-1.2231,-1.2305,-1.2305,-1.2258,-1.2094,-1.177,-1.1442,-1.1189,-1.0935,-1.0646,-1.06,-1.0586,-1.0586,-1.0586,-1.0586,-1.0586,-1.0586,-1.0586,-1.0586,-1.0586,-1.0586,-0.5556,-0.554,-0.5469,-0.533,-0.5181,-0.5099,-0.5045,-0.5018,-0.5018,-0.5018,-0.5018,-0.5018,-0.5018,-0.5018,-0.5018,-0.5018,-0.5018,-0.5207,-0.5362,-0.5518,-0.5786,-0.5925,-0.5985,-0.605,-0.601,-0.5884,-0.5867,-0.5789,-0.565,-0.5576,-0.5498,-0.5467,-0.5457,-0.5436,-0.5399,-0.5395,-0.5395,-0.5395,-0.5395,-0.5395,-0.5395,-0.5395,-0.5341,-0.5206,-0.5164,-0.5142,-0.5047,-0.504,-0.504,-0.5043,-0.5009,-0.5043,-0.504,-0.504,-0.5087,-0.5186,-0.533,-0.5395,-0.5395,-0.5521,-0.5686,-0.5892,-0.6185,-0.6493,-0.6856,-0.725,-0.7711,-0.8335,-0.8859,-0.9227,-0.958,-0.9894,-1.0099,-1.0218,-1.0481,-1.0663,-1.0775,-1.0962,-1.1037,-1.1074,-1.1117,-1.1117,-1.1117,-1.1117,-1.1117,-1.1117,-1.1117,-1.1117,-1.1111,-1.1223,-1.1329,-1.1366,-1.1521,-1.1781,-1.212,-1.2187,-1.2231,-1.2271,-1.2104,-1.1884,-1.1495,-1.1236,-1.0968,-1.0727,-1.0646,-1.0586,-1.0586,-1.0586,-1.0586,-1.0586,-1.0586,-1.0586,-1.0586,-1.0586,-1.0586,-0.5683,-0.5661,-0.5548,-0.5365,-0.5192,-0.5184,-0.5116,-0.5029,-0.5023,-0.5021,-0.5018,-0.5018,-0.5018,-0.5018,-0.5018,-0.5018,-0.5015,-0.5207,-0.5285,-0.5359,-0.5705,-0.5896,-0.5931,-0.617,-0.6166,-0.6027,-0.602,-0.5942,-0.5803,-0.5776,-0.5711,-0.5586,-0.5579,-0.5508,-0.5426,-0.5409,-0.5399,-0.5399,-0.5395,-0.5395,-0.5395,-0.5395,-0.5388,-0.5371,-0.5378,-0.5365,-0.5361,-0.5368,-0.5368,-0.5368,-0.5354,-0.5361,-0.5365,-0.5361,-0.5361,-0.5378,-0.5388,-0.5395,-0.5425,-0.5521,-0.569,-0.5896,-0.6106,-0.6401,-0.6858,-0.7175,-0.7637,-0.8318,-0.8613,-0.8969,-0.9465,-0.9744,-0.9992,-1.0143,-1.0223,-1.0438,-1.0738,-1.0812,-1.0893,-1.1037,-1.1111,-1.1117,-1.1117,-1.1117,-1.1117,-1.1117,-1.1117,-1.1117,-1.1117,-1.1149,-1.1223,-1.1335,-1.1409,-1.1558,-1.1935,-1.2003,-1.2114,-1.2174,-1.2138,-1.2084,-1.1675,-1.1315,-1.1042,-1.0801,-1.0667,-1.0593,-1.0593,-1.0586,-1.0586,-1.0586,-1.0586,-1.0586,-1.0586,-1.0586,-1.0586,-0.5688,-0.5677,-0.5556,-0.5454,-0.5373,-0.5339,-0.5235,-0.5129,-0.5127,-0.5083,-0.5026,-0.5018,-0.5018,-0.5018,-0.5018,-0.5018,-0.5018,-0.5093,-0.5168,-0.5279,-0.5437,-0.5631,-0.5899,-0.6018,-0.6118,-0.6186,-0.6176,-0.6098,-0.5952,-0.5854,-0.5779,-0.5735,-0.5725,-0.5654,-0.5569,-0.5542,-0.5498,-0.5405,-0.5395,-0.5395,-0.5399,-0.5395,-0.5395,-0.5395,-0.5395,-0.5395,-0.5395,-0.5395,-0.5395,-0.5395,-0.5395,-0.5395,-0.5395,-0.5395,-0.5395,-0.5395,-0.5395,-0.5395,-0.5395,-0.5422,-0.5566,-0.583,-0.6048,-0.6406,-0.6853,-0.7231,-0.7601,-0.8003,-0.8462,-0.8818,-0.9046,-0.943,-0.9728,-0.9846,-1.0035,-1.0255,-1.04,-1.0625,-1.0812,-1.0925,-1.0999,-1.1117,-1.1117,-1.1117,-1.1117,-1.1117,-1.1117,-1.1117,-1.1117,-1.1117,-1.1149,-1.1186,-1.1223,-1.1292,-1.1564,-1.1744,-1.1855,-1.2003,-1.2061,-1.1995,-1.1746,-1.1441,-1.1169,-1.0902,-1.0754,-1.0593,-1.0586,-1.0586,-1.0586,-1.0586,-1.0586,-1.0586,-1.0586,-1.0586,-1.0586,-0.5688,-0.5677,-0.5599,-0.5543,-0.5499,-0.5421,-0.5358,-0.5246,-0.5243,-0.514,-0.5075,-0.5034,-0.5018,-0.5018,-0.5018,-0.5018,-0.5018,-0.5018,-0.5054,-0.5207,-0.5243,-0.5437,-0.5667,-0.5786,-0.5944,-0.6138,-0.6257,-0.6242,-0.6105,-0.6,-0.5925,-0.5878,-0.5874,-0.5803,-0.5681,-0.5657,-0.5599,-0.5545,-0.5494,-0.547,-0.5463,-0.5419,-0.5395,-0.5395,-0.5395,-0.5395,-0.5395,-0.5395,-0.5395,-0.5395,-0.5395,-0.5395,-0.5395,-0.5395,-0.5395,-0.5395,-0.5395,-0.5395,-0.5402,-0.544,-0.5579,-0.5779,-0.602,-0.6375,-0.6847,-0.7138,-0.7422,-0.7783,-0.8102,-0.8441,-0.8665,-0.9046,-0.9392,-0.9582,-0.9846,-1.0067,-1.0223,-1.0443,-1.0663,-1.0812,-1.0925,-1.0999,-1.1074,-1.1117,-1.1117,-1.1117,-1.1117,-1.1117,-1.1117,-1.1117,-1.1117,-1.1117,-1.1117,-1.1149,-1.1298,-1.1409,-1.1632,-1.1781,-1.1885,-1.1889,-1.1801,-1.1504,-1.1247,-1.1022,-1.0815,-1.0673,-1.0586,-1.0586,-1.0586,-1.0586,-1.0586,-1.0586,-1.0586,-1.0586,-1.0586,-0.5688,-0.5688,-0.5688,-0.5618,-0.5529,-0.5513,-0.5483,-0.5405,-0.5257,-0.5214,-0.5178,-0.5078,-0.5037,-0.5026,-0.4984,-0.5018,-0.5018,-0.5018,-0.5018,-0.5054,-0.5207,-0.5282,-0.5359,-0.5518,-0.5712,-0.5941,-0.6177,-0.6296,-0.6276,-0.6252,-0.6152,-0.6013,-0.603,-0.5956,-0.5806,-0.5803,-0.5796,-0.5745,-0.5644,-0.5589,-0.561,-0.5501,-0.544,-0.5426,-0.5419,-0.5416,-0.5405,-0.5399,-0.5395,-0.5395,-0.5395,-0.5395,-0.5395,-0.5395,-0.5395,-0.5395,-0.5395,-0.5395,-0.5423,-0.5535,-0.5638,-0.5822,-0.6019,-0.635,-0.6763,-0.6951,-0.7201,-0.7647,-0.7842,-0.7991,-0.8327,-0.8627,-0.897,-0.9468,-0.962,-0.9803,-1.0067,-1.0212,-1.0363,-1.0706,-1.0769,-1.0887,-1.1037,-1.1074,-1.1074,-1.1074,-1.1074,-1.1043,-1.1005,-1.1005,-1.108,-1.1074,-1.0999,-1.0962,-1.1037,-1.1111,-1.1335,-1.1552,-1.1657,-1.1697,-1.1624,-1.1429,-1.1176,-1.0916,-1.0678,-1.0538,-1.0586,-1.0586,-1.0586,-1.0586,-1.0586,-1.0586,-1.0586,-1.0586,-1.0586,-0.5688,-0.5688,-0.5688,-0.5667,-0.5634,-0.5634,-0.5564,-0.5454,-0.5405,-0.539,-0.5342,-0.5186,-0.5135,-0.5113,-0.5056,-0.5018,-0.5018,-0.5018,-0.5018,-0.5018,-0.5054,-0.5168,-0.5285,-0.5362,-0.5553,-0.5864,-0.598,-0.6138,-0.6257,-0.6296,-0.6265,-0.6235,-0.6186,-0.6108,-0.5969,-0.5956,-0.5878,-0.5806,-0.5759,-0.5732,-0.5735,-0.5688,-0.5661,-0.5654,-0.5572,-0.5552,-0.5549,-0.5453,-0.5395,-0.5395,-0.5395,-0.5395,-0.5395,-0.5395,-0.5395,-0.5395,-0.5395,-0.545,-0.5542,-0.5569,-0.5691,-0.5913,-0.6115,-0.6362,-0.6688,-0.6942,-0.7156,-0.7411,-0.7612,-0.7876,-0.803,-0.8289,-0.867,-0.9137,-0.9435,-0.962,-0.9803,-1.003,-1.0293,-1.0519,-1.0588,-1.0663,-1.0812,-1.0887,-1.0887,-1.0887,-1.0887,-1.085,-1.0743,-1.0743,-1.0669,-1.0663,-1.07,-1.0738,-1.0775,-1.085,-1.0999,-1.1223,-1.1366,-1.1545,-1.1478,-1.133,-1.1076,-1.0814,-1.0581,-1.0487,-1.0543,-1.0555,-1.0555,-1.0586,-1.0586,-1.0586,-1.0586,-1.0586,-1.0586,-0.5688,-0.5688,-0.5688,-0.5688,-0.5688,-0.5688,-0.5648,-0.5572,-0.5524,-0.5464,-0.542,-0.5309,-0.527,-0.5178,-0.511,-0.5056,-0.5021,-0.5018,-0.5018,-0.5018,-0.5018,-0.5093,-0.5207,-0.5282,-0.5398,-0.5667,-0.5747,-0.5906,-0.6138,-0.6177,-0.6219,-0.6257,-0.63,-0.6252,-0.6122,-0.6115,-0.6061,-0.5976,-0.5918,-0.5888,-0.5838,-0.583,-0.58,-0.5786,-0.5715,-0.5671,-0.5661,-0.5572,-0.5508,-0.5419,-0.5395,-0.5395,-0.5395,-0.5443,-0.5481,-0.5491,-0.5535,-0.5576,-0.5661,-0.5732,-0.582,-0.5996,-0.619,-0.6373,-0.6584,-0.6872,-0.6988,-0.7223,-0.7415,-0.7646,-0.7804,-0.7991,-0.8331,-0.8751,-0.9132,-0.943,-0.9582,-0.9884,-1.0143,-1.0331,-1.0406,-1.0481,-1.0625,-1.0663,-1.07,-1.07,-1.0663,-1.0663,-1.0556,-1.0513,-1.0475,-1.0475,-1.055,-1.055,-1.0513,-1.0588,-1.07,-1.0887,-1.1074,-1.1292,-1.1421,-1.1211,-1.0962,-1.0625,-1.0373,-1.0264,-1.0269,-1.0396,-1.046,-1.0523,-1.0555,-1.0586,-1.0586,-1.0586,-1.0586,-0.5688,-0.5688,-0.5688,-0.5688,-0.5688,-0.5688,-0.5683,-0.5664,-0.5575,-0.5526,-0.5494,-0.5434,-0.5366,-0.523,-0.5195,-0.5121,-0.5042,-0.5018,-0.5018,-0.5018,-0.5018,-0.5018,-0.5054,-0.5168,-0.5282,-0.5359,-0.5518,-0.5712,-0.5864,-0.5902,-0.6018,-0.6183,-0.6183,-0.6257,-0.6195,-0.6254,-0.6234,-0.6238,-0.6101,-0.604,-0.6037,-0.5922,-0.585,-0.5854,-0.5833,-0.5817,-0.581,-0.5772,-0.565,-0.5467,-0.5457,-0.5463,-0.5457,-0.5562,-0.5599,-0.5606,-0.5725,-0.5776,-0.5837,-0.5911,-0.5976,-0.6064,-0.6207,-0.6377,-0.6525,-0.6641,-0.6795,-0.7065,-0.7223,-0.7377,-0.7646,-0.7804,-0.803,-0.8369,-0.8827,-0.9208,-0.9549,-0.9771,-0.9954,-1.0143,-1.018,-1.0255,-1.0443,-1.0481,-1.0481,-1.0481,-1.0481,-1.0438,-1.0406,-1.0368,-1.0443,-1.0406,-1.0325,-1.0255,-1.018,-1.018,-1.0293,-1.0443,-1.0663,-1.0925,-1.1113,-1.0918,-1.0775,-1.0451,-1.0216,-1.0084,-1.0079,-1.0206,-1.0333,-1.0371,-1.0434,-1.0523,-1.0586,-1.0586,-1.0586,-0.5688,-0.5688,-0.5688,-0.5688,-0.5688,-0.5688,-0.5688,-0.5686,-0.5656,-0.5634,-0.5615,-0.5513,-0.548,-0.5394,-0.5262,-0.5167,-0.5129,-0.5059,-0.5018,-0.5018,-0.5018,-0.5018,-0.5018,-0.5054,-0.5168,-0.5282,-0.5323,-0.5476,-0.5673,-0.5676,-0.575,-0.5754,-0.5796,-0.587,-0.5983,-0.6022,-0.6099,-0.6257,-0.6265,-0.6193,-0.6186,-0.6194,-0.618,-0.617,-0.6027,-0.5939,-0.5956,-0.5861,-0.5779,-0.5701,-0.5684,-0.5688,-0.5674,-0.5718,-0.5749,-0.5759,-0.5786,-0.5861,-0.5956,-0.5969,-0.6043,-0.6186,-0.623,-0.63,-0.6374,-0.6525,-0.6641,-0.6795,-0.6992,-0.7223,-0.7377,-0.765,-0.7953,-0.8365,-0.8713,-0.9137,-0.9473,-0.9663,-0.9733,-0.9922,-0.9997,-1.0073,-1.0218,-1.0288,-1.0255,-1.0255,-1.025,-1.0212,-1.0105,-1.0067,-1.0067,-0.9992,-0.9916,-0.9841,-0.9809,-0.9809,-0.9879,-1.003,-1.0218,-1.0443,-1.0561,-1.0473,-1.0375,-1.0202,-1.0038,-0.9897,-0.9957,-1.0047,-1.0149,-1.0212,-1.0339,-1.0434,-1.0555,-1.0586,-1.0586,-0.5688,-0.5688,-0.5688,-0.5688,-0.5688,-0.5688,-0.5688,-0.5688,-0.5688,-0.5688,-0.5672,-0.5621,-0.5553,-0.5491,-0.5362,-0.5309,-0.5252,-0.5143,-0.5094,-0.5078,-0.504,-0.5021,-0.5018,-0.5018,-0.5054,-0.5168,-0.5168,-0.5282,-0.544,-0.5482,-0.5521,-0.5601,-0.5601,-0.5676,-0.575,-0.5789,-0.5828,-0.5986,-0.5986,-0.6025,-0.6138,-0.6138,-0.6215,-0.6247,-0.6166,-0.6129,-0.6112,-0.604,-0.5945,-0.5837,-0.58,-0.58,-0.581,-0.5867,-0.5891,-0.5898,-0.5952,-0.604,-0.6101,-0.6125,-0.6166,-0.6276,-0.63,-0.63,-0.63,-0.6412,-0.649,-0.6641,-0.6834,-0.7026,-0.7219,-0.7569,-0.788,-0.814,-0.8522,-0.8903,-0.9327,-0.9435,-0.9544,-0.9695,-0.9771,-0.9841,-1.0073,-1.0067,-1.003,-0.996,-0.9954,-0.9846,-0.97,-0.9663,-0.9657,-0.962,-0.9582,-0.9506,-0.9468,-0.9468,-0.9468,-0.962,-0.9765,-0.9954,-1.0127,-1.0128,-1.0072,-1.0009,-0.9853,-0.974,-0.9751,-0.9824,-0.9958,-1.0053,-1.018,-1.0308,-1.0434,-1.0555,-1.0555,-0.5688,-0.5688,-0.5688,-0.5688,-0.5688,-0.5688,-0.5688,-0.5688,-0.5688,-0.5688,-0.5686,-0.5688,-0.5623,-0.5526,-0.5486,-0.544,-0.5379,-0.5303,-0.5197,-0.5146,-0.5075,-0.5018,-0.5018,-0.5018,-0.5018,-0.5054,-0.5018,-0.509,-0.5246,-0.5246,-0.5362,-0.5443,-0.5485,-0.5559,-0.5559,-0.5598,-0.5601,-0.564,-0.5679,-0.5754,-0.5867,-0.5867,-0.5986,-0.6099,-0.617,-0.6153,-0.6198,-0.6217,-0.6166,-0.5867,-0.5847,-0.5878,-0.5888,-0.5993,-0.6044,-0.6067,-0.619,-0.6262,-0.6289,-0.6276,-0.6289,-0.63,-0.63,-0.63,-0.63,-0.6335,-0.6377,-0.6525,-0.6602,-0.6834,-0.718,-0.7531,-0.7727,-0.7876,-0.8183,-0.8484,-0.8832,-0.9137,-0.9365,-0.9549,-0.9587,-0.9657,-0.9765,-0.9841,-0.9771,-0.9657,-0.962,-0.9587,-0.9473,-0.9473,-0.9392,-0.9311,-0.9279,-0.9203,-0.917,-0.9132,-0.9132,-0.917,-0.9316,-0.9528,-0.9857,-0.9895,-0.986,-0.9782,-0.9676,-0.9485,-0.9341,-0.9472,-0.9702,-0.9862,-0.9951,-1.0149,-1.0308,-1.0434,-1.0498,-0.5688,-0.5688,-0.5688,-0.5688,-0.5688,-0.5688,-0.5688,-0.5688,-0.5688,-0.5688,-0.5688,-0.5688,-0.5672,-0.5642,-0.5556,-0.5489,-0.5454,-0.5385,-0.5325,-0.5173,-0.5069,-0.5023,-0.5018,-0.5021,-0.5018,-0.5018,-0.5018,-0.5018,-0.5054,-0.5093,-0.5093,-0.5135,-0.521,-0.521,-0.5362,-0.5362,-0.5443,-0.5562,-0.5601,-0.5559,-0.5637,-0.5637,-0.5715,-0.5792,-0.5906,-0.598,-0.6018,-0.618,-0.6265,-0.6218,-0.6187,-0.616,-0.6173,-0.6173,-0.6193,-0.62,-0.6265,-0.63,-0.63,-0.63,-0.63,-0.63,-0.63,-0.63,-0.63,-0.63,-0.63,-0.6374,-0.6486,-0.6756,-0.7103,-0.7257,-0.7492,-0.7727,-0.788,-0.8068,-0.8331,-0.8751,-0.9099,-0.9284,-0.9359,-0.9402,-0.9435,-0.9473,-0.943,-0.9354,-0.9322,-0.9322,-0.9284,-0.9208,-0.9089,-0.8937,-0.8899,-0.8822,-0.8751,-0.8713,-0.8713,-0.8751,-0.8861,-0.897,-0.9304,-0.9553,-0.9494,-0.948,-0.9525,-0.9336,-0.9148,-0.9242,-0.9472,-0.96,-0.976,-0.9951,-1.0149,-1.0276,-1.0434,-0.5688,-0.5688,-0.5688,-0.5688,-0.5688,-0.5688,-0.5688,-0.5688,-0.5688,-0.5688,-0.5688,-0.5688,-0.5688,-0.5686,-0.5623,-0.5594,-0.5564,-0.5467,-0.539,-0.5271,-0.5156,-0.5099,-0.5078,-0.5042,-0.5018,-0.5018,-0.5018,-0.5018,-0.5018,-0.5018,-0.5018,-0.5018,-0.4979,-0.5054,-0.5129,-0.5051,-0.5129,-0.521,-0.5249,-0.5246,-0.5443,-0.5443,-0.5521,-0.5598,-0.5712,-0.575,-0.5786,-0.5983,-0.6099,-0.6138,-0.6219,-0.63,-0.63,-0.63,-0.63,-0.63,-0.63,-0.63,-0.63,-0.63,-0.63,-0.63,-0.63,-0.63,-0.63,-0.63,-0.63,-0.6338,-0.6412,-0.6602,-0.6911,-0.7142,-0.7338,-0.7492,-0.7688,-0.7842,-0.803,-0.8408,-0.8794,-0.898,-0.9089,-0.9208,-0.9246,-0.9208,-0.917,-0.9132,-0.897,-0.8937,-0.8751,-0.867,-0.8599,-0.8518,-0.8479,-0.8403,-0.8331,-0.8293,-0.8298,-0.8331,-0.8446,-0.8479,-0.8613,-0.8863,-0.9047,-0.9124,-0.9232,-0.9162,-0.9053,-0.915,-0.9227,-0.9402,-0.9594,-0.9792,-0.9989,-1.0142,-1.0301,-0.5688,-0.5688,-0.5688,-0.5688,-0.5688,-0.5688,-0.5688,-0.5688,-0.5688,-0.5688,-0.5688,-0.5688,-0.5688,-0.5688,-0.5686,-0.5686,-0.565,-0.5556,-0.5427,-0.539,-0.5271,-0.52,-0.5162,-0.5099,-0.5042,-0.5023,-0.5018,-0.5018,-0.4979,-0.4979,-0.4898,-0.494,-0.4898,-0.4857,-0.4859,-0.4779,-0.474,-0.4857,-0.4779,-0.4815,-0.5087,-0.5126,-0.5207,-0.5362,-0.544,-0.5521,-0.5595,-0.575,-0.5864,-0.5864,-0.6099,-0.6219,-0.6257,-0.6296,-0.63,-0.63,-0.63,-0.63,-0.63,-0.63,-0.63,-0.63,-0.63,-0.63,-0.63,-0.63,-0.63,-0.63,-0.6335,-0.6412,-0.6602,-0.6872,-0.7065,-0.7261,-0.7531,-0.7684,-0.7838,-0.8102,-0.8365,-0.8594,-0.867,-0.8789,-0.8903,-0.8903,-0.8946,-0.8908,-0.8708,-0.8551,-0.8365,-0.8255,-0.8217,-0.8178,-0.814,-0.8059,-0.7944,-0.7949,-0.791,-0.7949,-0.8063,-0.8102,-0.8102,-0.8353,-0.8632,-0.8851,-0.8929,-0.8903,-0.8892,-0.8948,-0.9056,-0.923,-0.9402,-0.9594,-0.9792,-1.0015,-1.0174,-0.5688,-0.5688,-0.5688,-0.5688,-0.5688,-0.5688,-0.5688,-0.5688,-0.5688,-0.5688,-0.5688,-0.5688,-0.5688,-0.5688,-0.5688,-0.5688,-0.5661,-0.5575,-0.5508,-0.5459,-0.5396,-0.5306,-0.5227,-0.5165,-0.5105,-0.5037,-0.4979,-0.4979,-0.494,-0.482,-0.4779,-0.474,-0.4621,-0.4543,-0.4543,-0.4462,-0.4462,-0.4504,-0.4426,-0.4462,-0.4582,-0.4657,-0.4735,-0.4893,-0.5049,-0.5165,-0.5362,-0.5518,-0.5673,-0.5676,-0.5867,-0.5941,-0.6018,-0.6177,-0.6257,-0.63,-0.63,-0.63,-0.63,-0.63,-0.63,-0.63,-0.63,-0.63,-0.63,-0.63,-0.63,-0.63,-0.63,-0.6374,-0.6563,-0.6718,-0.6872,-0.7103,-0.7257,-0.7373,-0.7526,-0.7718,-0.7906,-0.8097,-0.8174,-0.8331,-0.8484,-0.856,-0.8522,-0.8489,-0.8369,-0.8289,-0.8178,-0.8063,-0.7987,-0.7915,-0.7876,-0.7757,-0.7599,-0.7599,-0.7599,-0.7599,-0.7676,-0.7795,-0.7872,-0.8025,-0.8245,-0.8458,-0.8651,-0.872,-0.8722,-0.8753,-0.8854,-0.8985,-0.9177,-0.937,-0.9594,-0.9817,-1.0021,-0.5688,-0.5688,-0.5688,-0.5688,-0.5688,-0.5688,-0.5688,-0.5688,-0.5688,-0.5688,-0.5688,-0.5688,-0.5688,-0.5688,-0.5688,-0.5688,-0.5667,-0.5637,-0.5602,-0.5575,-0.5478,-0.5439,-0.5341,-0.526,-0.5167,-0.506,-0.4935,-0.4862,-0.4859,-0.474,-0.4623,-0.4543,-0.4423,-0.4384,-0.4345,-0.419,-0.419,-0.4192,-0.4073,-0.4034,-0.4231,-0.4307,-0.4423,-0.454,-0.4618,-0.4813,-0.4971,-0.5165,-0.5323,-0.544,-0.5634,-0.5786,-0.5902,-0.6018,-0.6138,-0.6257,-0.63,-0.63,-0.63,-0.63,-0.63,-0.63,-0.63,-0.63,-0.63,-0.63,-0.63,-0.63,-0.63,-0.6338,-0.6412,-0.6525,-0.6679,-0.683,-0.6984,-0.7099,-0.7173,-0.7292,-0.7407,-0.7599,-0.7906,-0.8063,-0.814,-0.8178,-0.8102,-0.8063,-0.7987,-0.7949,-0.791,-0.7795,-0.7642,-0.7565,-0.7488,-0.7407,-0.7288,-0.7288,-0.7292,-0.733,-0.733,-0.745,-0.7488,-0.7642,-0.7855,-0.8052,-0.8249,-0.8435,-0.8562,-0.8607,-0.8696,-0.8794,-0.8984,-0.9163,-0.937,-0.9594,-0.9824,-0.5688,-0.5688,-0.5688,-0.5688,-0.5688,-0.5688,-0.5688,-0.5688,-0.5688,-0.5688,-0.5688,-0.5688,-0.5688,-0.5688,-0.5688,-0.5688,-0.5688,-0.5683,-0.5677,-0.5659,-0.5591,-0.5534,-0.5448,-0.534,-0.5216,-0.5095,-0.4917,-0.4721,-0.4701,-0.4584,-0.4465,-0.4348,-0.427,-0.4229,-0.4112,-0.38,-0.3843,-0.3765,-0.3645,-0.3606,-0.388,-0.4036,-0.419,-0.4268,-0.4307,-0.4387,-0.4659,-0.4813,-0.4968,-0.5165,-0.5359,-0.5556,-0.5747,-0.5825,-0.5944,-0.618,-0.6257,-0.63,-0.63,-0.63,-0.63,-0.63,-0.63,-0.63,-0.63,-0.63,-0.63,-0.63,-0.63,-0.63,-0.6335,-0.6451,-0.6563,-0.6641,-0.6753,-0.6865,-0.6942,-0.698,-0.7019,-0.7249,-0.7599,-0.7714,-0.7676,-0.7676,-0.7561,-0.7561,-0.7484,-0.7484,-0.7446,-0.7373,-0.7257,-0.7176,-0.7099,-0.7022,-0.698,-0.7019,-0.7019,-0.7057,-0.7096,-0.7138,-0.7142,-0.718,-0.7429,-0.7681,-0.7892,-0.8092,-0.8239,-0.8421,-0.8507,-0.8601,-0.8799,-0.8986,-0.9183,-0.9402,-0.9632,-0.5688,-0.5688,-0.5688,-0.5688,-0.5688,-0.5688,-0.5688,-0.5688,-0.5688,-0.5688,-0.5688,-0.5688,-0.5688,-0.5688,-0.5688,-0.5688,-0.5688,-0.5688,-0.5688,-0.5683,-0.5659,-0.5599,-0.5526,-0.5494,-0.5249,-0.5095,-0.4946,-0.4795,-0.4616,-0.4362,-0.4155,-0.4077,-0.3841,-0.3643,-0.3643,-0.3372,-0.3219,-0.3219,-0.318,-0.318,-0.3219,-0.3295,-0.353,-0.3763,-0.388,-0.4036,-0.4348,-0.4462,-0.4579,-0.4779,-0.4968,-0.5162,-0.5356,-0.5556,-0.5712,-0.5944,-0.6138,-0.63,-0.6296,-0.63,-0.63,-0.63,-0.63,-0.63,-0.63,-0.63,-0.63,-0.63,-0.63,-0.63,-0.63,-0.6296,-0.6409,-0.6525,-0.6602,-0.6714,-0.6788,-0.6714,-0.6753,-0.6791,-0.7099,-0.7099,-0.7061,-0.7057,-0.7015,-0.7019,-0.7019,-0.7057,-0.7061,-0.6984,-0.6872,-0.6834,-0.6795,-0.6753,-0.6714,-0.6753,-0.6753,-0.6791,-0.683,-0.683,-0.6907,-0.6949,-0.7065,-0.731,-0.7537,-0.7832,-0.812,-0.8291,-0.8329,-0.8444,-0.8648,-0.881,-0.899,-0.9215,-0.9504,-0.5688,-0.5688,-0.5688,-0.5688,-0.5688,-0.5688,-0.5688,-0.5688,-0.5688,-0.5688,-0.5688,-0.5688,-0.5688,-0.5688,-0.5688,-0.5688,-0.5688,-0.5688,-0.5688,-0.5688,-0.5686,-0.5659,-0.5607,-0.5543,-0.5336,-0.5122,-0.4895,-0.4625,-0.4419,-0.4226,-0.3999,-0.3763,-0.3604,-0.3448,-0.3255,-0.2942,-0.2785,-0.2746,-0.2668,-0.2628,-0.2746,-0.2904,-0.3061,-0.3374,-0.3413,-0.3647,-0.3958,-0.4075,-0.4229,-0.4504,-0.4698,-0.4929,-0.5124,-0.5321,-0.5515,-0.5715,-0.5944,-0.6099,-0.6257,-0.6296,-0.63,-0.63,-0.63,-0.63,-0.63,-0.63,-0.63,-0.63,-0.63,-0.63,-0.63,-0.63,-0.6335,-0.6412,-0.6451,-0.6486,-0.6563,-0.6525,-0.6528,-0.6563,-0.6602,-0.6641,-0.6676,-0.6788,-0.6826,-0.6865,-0.6865,-0.6903,-0.6907,-0.683,-0.6679,-0.6528,-0.6528,-0.649,-0.6486,-0.6486,-0.6486,-0.6525,-0.6525,-0.6563,-0.6714,-0.6791,-0.6872,-0.7026,-0.7314,-0.7605,-0.7957,-0.8176,-0.8286,-0.8394,-0.8495,-0.8655,-0.8842,-0.9145,-0.9408,-0.5688,-0.5688,-0.5688,-0.5688,-0.5688,-0.5688,-0.5688,-0.5688,-0.5688,-0.5688,-0.5688,-0.5688,-0.5688,-0.5688,-0.5688,-0.5688,-0.5688,-0.5688,-0.5688,-0.5688,-0.5688,-0.5686,-0.5656,-0.5547,-0.5339,-0.515,-0.4789,-0.4501,-0.425,-0.4029,-0.3795,-0.3489,-0.3331,-0.3175,-0.2942,-0.2628,-0.2433,-0.2356,-0.2238,-0.2237,-0.2354,-0.2472,-0.2708,-0.2865,-0.2982,-0.318,-0.3567,-0.3724,-0.3917,-0.4192,-0.4428,-0.4621,-0.4893,-0.5046,-0.5282,-0.5479,-0.567,-0.5864,-0.6099,-0.6219,-0.6257,-0.63,-0.63,-0.63,-0.63,-0.63,-0.63,-0.63,-0.63,-0.63,-0.63,-0.63,-0.6296,-0.6296,-0.6296,-0.6296,-0.63,-0.6335,-0.6374,-0.6412,-0.6412,-0.6374,-0.6447,-0.6598,-0.6676,-0.6714,-0.6753,-0.6753,-0.6714,-0.6641,-0.6525,-0.6374,-0.6374,-0.6374,-0.6374,-0.6335,-0.6296,-0.63,-0.63,-0.6335,-0.6486,-0.6563,-0.6641,-0.6837,-0.7065,-0.7314,-0.7609,-0.7933,-0.8239,-0.8334,-0.8414,-0.8526,-0.8706,-0.8999,-0.9274,-0.5688,-0.5688,-0.5688,-0.5688,-0.5688,-0.5688,-0.5688,-0.5688,-0.5688,-0.5688,-0.5688,-0.5688,-0.5688,-0.5688,-0.5688,-0.5688,-0.5688,-0.5688,-0.5688,-0.5688,-0.5688,-0.5688,-0.563,-0.5487,-0.5255,-0.5017,-0.4718,-0.4461,-0.4152,-0.3806,-0.3622,-0.3458,-0.3103,-0.2787,-0.255,-0.2315,-0.2081,-0.2004,-0.1886,-0.1925,-0.1964,-0.2043,-0.22,-0.2473,-0.255,-0.2746,-0.3141,-0.3333,-0.3565,-0.3841,-0.4077,-0.4311,-0.4543,-0.4776,-0.4971,-0.5204,-0.5398,-0.5592,-0.5825,-0.6103,-0.6257,-0.63,-0.63,-0.63,-0.63,-0.63,-0.63,-0.63,-0.63,-0.63,-0.63,-0.63,-0.63,-0.63,-0.63,-0.63,-0.63,-0.63,-0.63,-0.63,-0.63,-0.63,-0.6296,-0.6447,-0.6486,-0.6525,-0.6486,-0.6525,-0.6486,-0.6412,-0.6374,-0.63,-0.63,-0.63,-0.6296,-0.63,-0.63,-0.63,-0.63,-0.63,-0.6335,-0.6412,-0.649,-0.6641,-0.6868,-0.7022,-0.7242,-0.7631,-0.7963,-0.8202,-0.835,-0.8482,-0.864,-0.8904,-0.9097,-0.5688,-0.5688,-0.5688,-0.5688,-0.5688,-0.5688,-0.5688,-0.5688,-0.5688,-0.5688,-0.5688,-0.5688,-0.5688,-0.5688,-0.5688,-0.5688,-0.5688,-0.5688,-0.5688,-0.5688,-0.5688,-0.5688,-0.5644,-0.5463,-0.5277,-0.5003,-0.4745,-0.4345,-0.3937,-0.3652,-0.3356,-0.3117,-0.278,-0.2552,-0.2275,-0.2002,-0.1728,-0.1572,-0.1533,-0.1573,-0.173,-0.173,-0.1847,-0.2082,-0.2276,-0.2431,-0.2707,-0.294,-0.3176,-0.3413,-0.3724,-0.3958,-0.4231,-0.4465,-0.4737,-0.4971,-0.5126,-0.5359,-0.5553,-0.5867,-0.6099,-0.6257,-0.63,-0.63,-0.63,-0.63,-0.63,-0.63,-0.63,-0.63,-0.63,-0.63,-0.63,-0.63,-0.63,-0.63,-0.63,-0.63,-0.63,-0.63,-0.63,-0.63,-0.63,-0.6296,-0.6296,-0.6296,-0.6296,-0.63,-0.63,-0.63,-0.63,-0.63,-0.63,-0.63,-0.63,-0.63,-0.63,-0.63,-0.63,-0.63,-0.63,-0.63,-0.6374,-0.6525,-0.6676,-0.6872,-0.7122,-0.7423,-0.7714,-0.7973,-0.8237,-0.8462,-0.8639,-0.8802,-0.8981,-0.5688,-0.5688,-0.5688,-0.5688,-0.5688,-0.5688,-0.5688,-0.5688,-0.5688,-0.5688,-0.5688,-0.5688,-0.5688,-0.5688,-0.5688,-0.5688,-0.5688,-0.5688,-0.5688,-0.5688,-0.5688,-0.5688,-0.5599,-0.5416,-0.5146,-0.4968,-0.4696,-0.4305,-0.3869,-0.3618,-0.3287,-0.2911,-0.2514,-0.2283,-0.2041,-0.1649,-0.1336,-0.1218,-0.114,-0.1179,-0.1336,-0.1375,-0.1573,-0.1768,-0.1963,-0.2157,-0.2392,-0.2627,-0.2824,-0.31,-0.3374,-0.3647,-0.388,-0.4153,-0.4465,-0.4737,-0.4935,-0.5165,-0.5359,-0.567,-0.6018,-0.6257,-0.63,-0.63,-0.63,-0.63,-0.63,-0.63,-0.63,-0.63,-0.63,-0.63,-0.63,-0.63,-0.63,-0.63,-0.63,-0.63,-0.63,-0.63,-0.63,-0.63,-0.63,-0.63,-0.63,-0.63,-0.63,-0.63,-0.63,-0.63,-0.63,-0.63,-0.63,-0.63,-0.63,-0.63,-0.63,-0.63,-0.63,-0.63,-0.63,-0.63,-0.63,-0.6412,-0.6567,-0.6756,-0.6973,-0.7218,-0.7471,-0.7743,-0.8056,-0.8425,-0.8373,-0.8535,-0.8858,-0.5688,-0.5688,-0.5688,-0.5688,-0.5688,-0.5688,-0.5688,-0.5688,-0.5688,-0.5688,-0.5688,-0.5688,-0.5688,-0.5688,-0.5688,-0.5688,-0.5688,-0.5688,-0.5688,-0.5688,-0.5688,-0.5688,-0.5552,-0.5327,-0.5055,-0.4921,-0.461,-0.4206,-0.3842,-0.3654,-0.3258,-0.2747,-0.2305,-0.1962,-0.1815,-0.1257,-0.0943,-0.0904,-0.0746,-0.0825,-0.0943,-0.1022,-0.1258,-0.1454,-0.169,-0.1884,-0.2118,-0.2392,-0.2588,-0.2746,-0.3022,-0.3335,-0.3645,-0.3802,-0.4153,-0.4582,-0.4701,-0.4935,-0.5282,-0.567,-0.5944,-0.6219,-0.6219,-0.63,-0.63,-0.63,-0.63,-0.63,-0.63,-0.63,-0.63,-0.63,-0.63,-0.63,-0.63,-0.63,-0.63,-0.63,-0.63,-0.63,-0.63,-0.63,-0.63,-0.63,-0.63,-0.63,-0.63,-0.63,-0.63,-0.63,-0.63,-0.63,-0.63,-0.63,-0.63,-0.63,-0.63,-0.63,-0.63,-0.63,-0.63,-0.63,-0.63,-0.6338,-0.6454,-0.6606,-0.6756,-0.6945,-0.7283,-0.7618,-0.8062,-0.8336,-0.8255,-0.8338,-0.8643,-0.5688,-0.5688,-0.5688,-0.5688,-0.5688,-0.5688,-0.5688,-0.5688,-0.5688,-0.5688,-0.5688,-0.5688,-0.5688,-0.5688,-0.5688,-0.5688,-0.5688,-0.5688,-0.5688,-0.5688,-0.5688,-0.5688,-0.5552,-0.5282,-0.501,-0.4877,-0.4523,-0.4078,-0.3673,-0.3593,-0.3119,-0.2561,-0.2046,-0.1616,-0.1331,-0.0954,-0.0864,-0.0707,-0.0629,-0.0629,-0.0708,-0.0825,-0.0982,-0.1179,-0.1415,-0.169,-0.1845,-0.2118,-0.2314,-0.247,-0.2707,-0.2981,-0.3255,-0.345,-0.388,-0.4231,-0.4389,-0.4896,-0.5165,-0.5473,-0.567,-0.5944,-0.618,-0.6257,-0.63,-0.63,-0.63,-0.63,-0.63,-0.63,-0.63,-0.63,-0.63,-0.63,-0.63,-0.63,-0.63,-0.63,-0.63,-0.63,-0.63,-0.63,-0.63,-0.63,-0.63,-0.63,-0.63,-0.63,-0.63,-0.63,-0.63,-0.63,-0.63,-0.63,-0.63,-0.63,-0.63,-0.63,-0.63,-0.63,-0.63,-0.63,-0.63,-0.63,-0.6377,-0.6451,-0.6644,-0.6872,-0.7103,-0.7447,-0.7836,-0.8174,-0.8258,-0.83,-0.8463,-0.5688,-0.5688,-0.5688,-0.5688,-0.5688,-0.5688,-0.5688,-0.5688,-0.5688,-0.5688,-0.5688,-0.5688,-0.5688,-0.5688,-0.5688,-0.5688,-0.5688,-0.5688,-0.5688,-0.5688,-0.5688,-0.5688,-0.5552,-0.5235,-0.5055,-0.4877,-0.4523,-0.4076,-0.3631,-0.3587,-0.3117,-0.2372,-0.1765,-0.1315,-0.0998,-0.0819,-0.0727,-0.0525,-0.0443,-0.0399,-0.0517,-0.0673,-0.0825,-0.1022,-0.1258,-0.1533,-0.165,-0.1846,-0.2079,-0.2235,-0.2431,-0.2668,-0.2902,-0.3137,-0.3567,-0.3841,-0.435,-0.4779,-0.501,-0.5282,-0.5476,-0.567,-0.5983,-0.618,-0.6257,-0.63,-0.63,-0.63,-0.63,-0.63,-0.63,-0.63,-0.63,-0.63,-0.63,-0.63,-0.63,-0.63,-0.63,-0.63,-0.63,-0.63,-0.63,-0.63,-0.63,-0.63,-0.63,-0.63,-0.63,-0.63,-0.63,-0.63,-0.63,-0.63,-0.63,-0.63,-0.63,-0.63,-0.63,-0.63,-0.63,-0.63,-0.63,-0.63,-0.6338,-0.6412,-0.6606,-0.6795,-0.6949,-0.718,-0.7425,-0.7778,-0.8113,-0.8245,-0.8332,-0.5688,-0.5688,-0.5688,-0.5688,-0.5688,-0.5688,-0.5688,-0.5688,-0.5688,-0.5688,-0.5688,-0.5688,-0.5688,-0.5688,-0.5688,-0.5688,-0.5688,-0.5688,-0.5688,-0.5688,-0.5688,-0.5688,-0.5552,-0.5235,-0.501,-0.4832,-0.4476,-0.3987,-0.3631,-0.3318,-0.2867,-0.2232,-0.1493,-0.1087,-0.0818,-0.0682,-0.0546,-0.0332,-0.0205,-0.0204,-0.0284,-0.0481,-0.0677,-0.0873,-0.1109,-0.1381,-0.1497,-0.165,-0.1845,-0.204,-0.2195,-0.247,-0.2628,-0.2785,-0.3215,-0.3724,-0.435,-0.4543,-0.4815,-0.5087,-0.5243,-0.5437,-0.5709,-0.5983,-0.618,-0.6257,-0.63,-0.63,-0.63,-0.63,-0.63,-0.63,-0.63,-0.63,-0.63,-0.63,-0.63,-0.63,-0.63,-0.63,-0.63,-0.63,-0.63,-0.63,-0.63,-0.63,-0.63,-0.63,-0.63,-0.63,-0.63,-0.63,-0.63,-0.63,-0.63,-0.63,-0.63,-0.63,-0.63,-0.63,-0.63,-0.63,-0.63,-0.63,-0.63,-0.6374,-0.649,-0.6602,-0.6714,-0.6945,-0.7138,-0.7468,-0.7812,-0.8031,-0.8156,-0.5688,-0.5688,-0.5688,-0.5688,-0.5688,-0.5688,-0.5688,-0.5688,-0.5688,-0.5688,-0.5688,-0.5688,-0.5688,-0.5688,-0.5688,-0.5688,-0.5688,-0.5688,-0.5688,-0.5688,-0.5688,-0.5599,-0.5416,-0.5191,-0.4968,-0.4659,-0.4302,-0.39,-0.3497,-0.3094,-0.2602,-0.2104,-0.1379,-0.0977,-0.0709,-0.053,-0.0303,0.0,0.0,0.0,0.0,-0.0289,-0.049,-0.0728,-0.0927,-0.1161,-0.1384,-0.1538,-0.1693,-0.1767,-0.204,-0.2314,-0.2352,-0.2668,-0.3098,-0.3684,-0.4036,-0.4192,-0.4623,-0.4818,-0.4971,-0.5243,-0.5518,-0.575,-0.5983,-0.6141,-0.6257,-0.63,-0.63,-0.63,-0.63,-0.63,-0.63,-0.63,-0.63,-0.63,-0.63,-0.63,-0.63,-0.63,-0.63,-0.63,-0.63,-0.63,-0.63,-0.63,-0.63,-0.63,-0.63,-0.63,-0.63,-0.63,-0.63,-0.63,-0.63,-0.63,-0.63,-0.63,-0.63,-0.63,-0.63,-0.63,-0.63,-0.63,-0.63,-0.63,-0.6377,-0.649,-0.6602,-0.6676,-0.6907,-0.7176,-0.7484,-0.768,-0.7953,-0.5688,-0.5688,-0.5688,-0.5688,-0.5688,-0.5688,-0.5688,-0.5688,-0.5688,-0.5688,-0.5688,-0.5688,-0.5688,-0.5688,-0.5688,-0.5688,-0.5688,-0.5688,-0.5688,-0.5688,-0.5688,-0.5552,-0.5371,-0.5102,-0.4921,-0.4569,-0.4214,-0.381,-0.3363,-0.2736,-0.2155,-0.193,-0.1301,-0.0942,-0.0672,-0.0402,-0.0177,0.0,0.0,0.0,0.0,-0.0212,-0.0417,-0.0621,-0.0825,-0.1058,-0.128,-0.1435,-0.1508,-0.1576,-0.1885,-0.2041,-0.2196,-0.2588,-0.2863,-0.3411,-0.3726,-0.3958,-0.427,-0.4582,-0.4815,-0.5049,-0.5323,-0.5556,-0.5828,-0.6064,-0.618,-0.63,-0.63,-0.63,-0.63,-0.63,-0.63,-0.63,-0.63,-0.63,-0.63,-0.63,-0.63,-0.63,-0.63,-0.63,-0.63,-0.63,-0.63,-0.63,-0.63,-0.63,-0.63,-0.63,-0.63,-0.63,-0.63,-0.63,-0.63,-0.63,-0.63,-0.63,-0.63,-0.63,-0.63,-0.63,-0.63,-0.63,-0.63,-0.63,-0.6338,-0.6374,-0.649,-0.6563,-0.6641,-0.6868,-0.7099,-0.7334,-0.7603,-0.5688,-0.5688,-0.5688,-0.5688,-0.5688,-0.5688,-0.5688,-0.5688,-0.5688,-0.5688,-0.5688,-0.5688,-0.5688,-0.5688,-0.5688,-0.5688,-0.5688,-0.5688,-0.5688,-0.5688,-0.5688,-0.5552,-0.5327,-0.5146,-0.4877,-0.4567,-0.4123,-0.3631,-0.3275,-0.2648,-0.2064,-0.175,-0.1076,-0.0718,-0.0673,-0.0269,0.0,0.0,0.0,0.0,0.0,-0.0215,-0.0423,-0.0676,-0.0842,-0.1045,-0.1232,-0.134,-0.1371,-0.151,-0.1651,-0.1847,-0.2198,-0.247,-0.2707,-0.2982,-0.3374,-0.3686,-0.3997,-0.4309,-0.4582,-0.4815,-0.5049,-0.5362,-0.5673,-0.5983,-0.6138,-0.6257,-0.63,-0.63,-0.63,-0.63,-0.63,-0.63,-0.63,-0.63,-0.63,-0.63,-0.63,-0.63,-0.63,-0.63,-0.63,-0.63,-0.63,-0.63,-0.63,-0.63,-0.63,-0.63,-0.63,-0.63,-0.63,-0.63,-0.63,-0.63,-0.63,-0.63,-0.63,-0.63,-0.63,-0.63,-0.63,-0.63,-0.63,-0.63,-0.63,-0.6335,-0.6374,-0.6374,-0.6451,-0.6563,-0.6756,-0.6992,-0.7261,-0.5688,-0.5688,-0.5688,-0.5688,-0.5688,-0.5688,-0.5688,-0.5688,-0.5688,-0.5688,-0.5688,-0.5688,-0.5688,-0.5688,-0.5688,-0.5688,-0.5688,-0.5688,-0.5688,-0.5688,-0.5688,-0.5463,-0.5191,-0.5055,-0.4788,-0.4342,-0.3898,-0.3409,-0.2872,-0.2379,-0.2019,-0.1705,-0.1076,-0.0718,-0.0628,0.0,0.0,0.0,0.0,0.0,0.0,0.0,-0.022,-0.0566,-0.0819,-0.0981,-0.1174,-0.1316,-0.1346,-0.1372,-0.1545,-0.181,-0.2196,-0.2314,-0.251,-0.2785,-0.31,-0.3413,-0.3765,-0.4077,-0.435,-0.4659,-0.4932,-0.5246,-0.5556,-0.5825,-0.6057,-0.618,-0.63,-0.63,-0.63,-0.63,-0.63,-0.63,-0.63,-0.63,-0.63,-0.63,-0.63,-0.63,-0.63,-0.63,-0.63,-0.63,-0.63,-0.63,-0.63,-0.63,-0.63,-0.63,-0.63,-0.63,-0.63,-0.63,-0.63,-0.63,-0.63,-0.63,-0.63,-0.63,-0.63,-0.63,-0.63,-0.63,-0.63,-0.63,-0.63,-0.63,-0.63,-0.63,-0.6338,-0.6451,-0.6525,-0.6721,-0.6992,-0.5688,-0.5688,-0.5688,-0.5688,-0.5688,-0.5688,-0.5688,-0.5688,-0.5688,-0.5688,-0.5688,-0.5688,-0.5688,-0.5688,-0.5688,-0.5688,-0.5688,-0.5688,-0.5688,-0.5688,-0.5644,-0.5416,-0.5191,-0.4966,-0.4699,-0.4297,-0.381,-0.323,-0.2513,-0.2244,-0.2019,-0.1525,-0.0942,-0.0673,-0.0538,0.0,0.0,0.0,0.0,0.0,0.0,0.0,0.0,-0.0486,-0.0704,-0.0871,-0.1074,-0.1263,-0.1328,-0.1345,-0.1472,-0.1693,-0.2002,-0.2157,-0.2353,-0.2627,-0.2863,-0.31,-0.3452,-0.3804,-0.4155,-0.4504,-0.4737,-0.5051,-0.5398,-0.567,-0.5986,-0.6145,-0.6261,-0.63,-0.63,-0.63,-0.63,-0.63,-0.63,-0.63,-0.63,-0.63,-0.63,-0.63,-0.63,-0.63,-0.63,-0.63,-0.63,-0.63,-0.63,-0.63,-0.63,-0.63,-0.63,-0.63,-0.63,-0.63,-0.63,-0.63,-0.63,-0.63,-0.63,-0.63,-0.63,-0.63,-0.63,-0.63,-0.63,-0.63,-0.63,-0.63,-0.63,-0.63,-0.63,-0.6338,-0.6412,-0.649,-0.6683,-0.5688,-0.5688,-0.5688,-0.5688,-0.5688,-0.5688,-0.5688,-0.5688,-0.5688,-0.5688,-0.5688,-0.5688,-0.5688,-0.5688,-0.5688,-0.5688,-0.5688,-0.5688,-0.5688,-0.5688,-0.5644,-0.5371,-0.5102,-0.4919,-0.4565,-0.421,-0.3765,-0.305,-0.2244,-0.2155,-0.1885,-0.1211,-0.0852,-0.0628,-0.0359,0.0,0.0,0.0,0.0,0.0,0.0,0.0,0.0,-0.0403,-0.0582,-0.08,-0.101,-0.1211,-0.1315,-0.1368,-0.145,-0.1624,-0.1849,-0.2042,-0.2237,-0.2472,-0.2707,-0.2943,-0.3178,-0.3528,-0.3958,-0.4309,-0.4543,-0.4854,-0.5204,-0.5518,-0.5834,-0.6067,-0.618,-0.6296,-0.6296,-0.63,-0.63,-0.63,-0.63,-0.63,-0.63,-0.63,-0.63,-0.63,-0.63,-0.63,-0.63,-0.63,-0.63,-0.63,-0.63,-0.63,-0.63,-0.63,-0.63,-0.63,-0.63,-0.63,-0.63,-0.63,-0.63,-0.63,-0.63,-0.63,-0.63,-0.63,-0.63,-0.63,-0.63,-0.63,-0.63,-0.63,-0.63,-0.63,-0.63,-0.63,-0.6338,-0.6374,-0.6412,-0.5688,-0.5688,-0.5688,-0.5688,-0.5688,-0.5688,-0.5688,-0.5688,-0.5688,-0.5688,-0.5688,-0.5688,-0.5688,-0.5688,-0.5688,-0.5688,-0.5688,-0.5688,-0.5688,-0.5688,-0.5552,-0.5282,-0.5013,-0.4701,-0.4344,-0.3944,-0.3542,-0.305,-0.2289,-0.2155,-0.1795,-0.1076,-0.0807,-0.0583,-0.0359,0.0,0.0,0.0,0.0,0.0,0.0,0.0,0.0,-0.0359,-0.0583,-0.0805,-0.1067,-0.1271,-0.1344,-0.1404,-0.1363,-0.1487,-0.1665,-0.185,-0.2042,-0.2314,-0.2588,-0.2824,-0.3059,-0.3333,-0.3763,-0.4231,-0.4465,-0.4698,-0.5087,-0.544,-0.5715,-0.5948,-0.6064,-0.6219,-0.6257,-0.6296,-0.63,-0.63,-0.63,-0.63,-0.63,-0.63,-0.63,-0.63,-0.63,-0.63,-0.63,-0.63,-0.63,-0.63,-0.63,-0.63,-0.63,-0.63,-0.63,-0.63,-0.63,-0.63,-0.63,-0.63,-0.63,-0.63,-0.63,-0.63,-0.63,-0.63,-0.63,-0.63,-0.63,-0.63,-0.63,-0.63,-0.63,-0.63,-0.63,-0.63,-0.63,-0.6296,-0.6335]}]]